<?xml version="1.0" encoding="UTF-8" standalone="no" ?>
<gpx xmlns="http://www.topografix.com/GPX/1/1" xmlns:xsi="http://www.w3.org/2001/XMLSchema-instance" xsi:schemaLocation="http://www.topografix.com/GPX/1/1 http://www.topografix.com/GPX/1/1/gpx.xsd" version="1.1" creator="VisuGPX - https://www.visugpx.com">
  <metadata>
    <name>Mons ASCVTT</name>
    <desc><![CDATA[Trace AlpineQuest 08/05/2015 09:23:40]]></desc>
  </metadata>
  <trk>
    <name><![CDATA[Mons ASCVTT_1]]></name>
    <trkseg>
      <trkpt lat="43.69203" lon="6.714">
        <ele>806</ele>
        <time>2015-05-08T07:23:40Z</time>
      </trkpt>
      <trkpt lat="43.69209" lon="6.71414">
        <ele>806</ele>
        <time>2015-05-08T07:23:45Z</time>
      </trkpt>
      <trkpt lat="43.69215" lon="6.71423">
        <ele>806</ele>
        <time>2015-05-08T07:23:51Z</time>
      </trkpt>
      <trkpt lat="43.69225" lon="6.71436">
        <ele>806</ele>
        <time>2015-05-08T07:23:56Z</time>
      </trkpt>
      <trkpt lat="43.69231" lon="6.71442">
        <ele>806</ele>
        <time>2015-05-08T07:23:58Z</time>
      </trkpt>
      <trkpt lat="43.69241" lon="6.71454">
        <ele>806</ele>
        <time>2015-05-08T07:24:03Z</time>
      </trkpt>
      <trkpt lat="43.69261" lon="6.71458">
        <ele>809</ele>
        <time>2015-05-08T07:24:08Z</time>
      </trkpt>
      <trkpt lat="43.69281" lon="6.71462">
        <ele>810</ele>
        <time>2015-05-08T07:24:13Z</time>
      </trkpt>
      <trkpt lat="43.693" lon="6.7147">
        <ele>811</ele>
        <time>2015-05-08T07:24:18Z</time>
      </trkpt>
      <trkpt lat="43.69315" lon="6.71478">
        <ele>812</ele>
        <time>2015-05-08T07:24:23Z</time>
      </trkpt>
      <trkpt lat="43.69334" lon="6.71484">
        <ele>816</ele>
        <time>2015-05-08T07:24:29Z</time>
      </trkpt>
      <trkpt lat="43.69342" lon="6.71489">
        <ele>816</ele>
        <time>2015-05-08T07:24:31Z</time>
      </trkpt>
      <trkpt lat="43.69359" lon="6.71497">
        <ele>817</ele>
        <time>2015-05-08T07:24:36Z</time>
      </trkpt>
      <trkpt lat="43.69362" lon="6.71497">
        <ele>817</ele>
        <time>2015-05-08T07:24:37Z</time>
      </trkpt>
      <trkpt lat="43.69382" lon="6.71499">
        <ele>817</ele>
        <time>2015-05-08T07:24:43Z</time>
      </trkpt>
      <trkpt lat="43.69397" lon="6.71498">
        <ele>818</ele>
        <time>2015-05-08T07:24:48Z</time>
      </trkpt>
      <trkpt lat="43.69411" lon="6.71486">
        <ele>818</ele>
        <time>2015-05-08T07:24:53Z</time>
      </trkpt>
      <trkpt lat="43.69416" lon="6.71464">
        <ele>818</ele>
        <time>2015-05-08T07:24:58Z</time>
      </trkpt>
      <trkpt lat="43.6941" lon="6.71446">
        <ele>819</ele>
        <time>2015-05-08T07:25:03Z</time>
      </trkpt>
      <trkpt lat="43.69398" lon="6.71431">
        <ele>819</ele>
        <time>2015-05-08T07:25:08Z</time>
      </trkpt>
      <trkpt lat="43.69384" lon="6.71418">
        <ele>818</ele>
        <time>2015-05-08T07:25:13Z</time>
      </trkpt>
      <trkpt lat="43.6937" lon="6.71404">
        <ele>819</ele>
        <time>2015-05-08T07:25:18Z</time>
      </trkpt>
      <trkpt lat="43.69357" lon="6.71388">
        <ele>819</ele>
        <time>2015-05-08T07:25:23Z</time>
      </trkpt>
      <trkpt lat="43.69349" lon="6.7137">
        <ele>819</ele>
        <time>2015-05-08T07:25:28Z</time>
      </trkpt>
      <trkpt lat="43.69343" lon="6.71348">
        <ele>819</ele>
        <time>2015-05-08T07:25:33Z</time>
      </trkpt>
      <trkpt lat="43.69339" lon="6.71326">
        <ele>822</ele>
        <time>2015-05-08T07:25:38Z</time>
      </trkpt>
      <trkpt lat="43.69335" lon="6.71303">
        <ele>827</ele>
        <time>2015-05-08T07:25:43Z</time>
      </trkpt>
      <trkpt lat="43.6933" lon="6.71284">
        <ele>819</ele>
        <time>2015-05-08T07:25:48Z</time>
      </trkpt>
      <trkpt lat="43.69322" lon="6.71269">
        <ele>821</ele>
        <time>2015-05-08T07:25:53Z</time>
      </trkpt>
      <trkpt lat="43.69312" lon="6.71256">
        <ele>821</ele>
        <time>2015-05-08T07:25:58Z</time>
      </trkpt>
      <trkpt lat="43.693" lon="6.71241">
        <ele>829</ele>
        <time>2015-05-08T07:26:04Z</time>
      </trkpt>
      <trkpt lat="43.69288" lon="6.71228">
        <ele>829</ele>
        <time>2015-05-08T07:26:09Z</time>
      </trkpt>
      <trkpt lat="43.69278" lon="6.71216">
        <ele>830</ele>
        <time>2015-05-08T07:26:15Z</time>
      </trkpt>
      <trkpt lat="43.69268" lon="6.71206">
        <ele>830</ele>
        <time>2015-05-08T07:26:21Z</time>
      </trkpt>
      <trkpt lat="43.69262" lon="6.712">
        <ele>831</ele>
        <time>2015-05-08T07:26:22Z</time>
      </trkpt>
      <trkpt lat="43.69258" lon="6.71198">
        <ele>831</ele>
        <time>2015-05-08T07:26:23Z</time>
      </trkpt>
      <trkpt lat="43.69253" lon="6.71192">
        <ele>832</ele>
        <time>2015-05-08T07:26:25Z</time>
      </trkpt>
      <trkpt lat="43.69238" lon="6.7118">
        <ele>824</ele>
        <time>2015-05-08T07:26:30Z</time>
      </trkpt>
      <trkpt lat="43.69226" lon="6.71166">
        <ele>832</ele>
        <time>2015-05-08T07:26:36Z</time>
      </trkpt>
      <trkpt lat="43.69214" lon="6.71152">
        <ele>831</ele>
        <time>2015-05-08T07:26:42Z</time>
      </trkpt>
      <trkpt lat="43.69208" lon="6.71137">
        <ele>832</ele>
        <time>2015-05-08T07:26:47Z</time>
      </trkpt>
      <trkpt lat="43.69205" lon="6.71121">
        <ele>833</ele>
        <time>2015-05-08T07:26:53Z</time>
      </trkpt>
      <trkpt lat="43.69197" lon="6.71102">
        <ele>834</ele>
        <time>2015-05-08T07:26:59Z</time>
      </trkpt>
      <trkpt lat="43.69187" lon="6.71083">
        <ele>842</ele>
        <time>2015-05-08T07:27:05Z</time>
      </trkpt>
      <trkpt lat="43.69178" lon="6.7107">
        <ele>841</ele>
        <time>2015-05-08T07:27:08Z</time>
      </trkpt>
      <trkpt lat="43.69175" lon="6.71066">
        <ele>841</ele>
        <time>2015-05-08T07:27:09Z</time>
      </trkpt>
      <trkpt lat="43.69172" lon="6.71062">
        <ele>842</ele>
        <time>2015-05-08T07:27:10Z</time>
      </trkpt>
      <trkpt lat="43.6917" lon="6.71058">
        <ele>843</ele>
        <time>2015-05-08T07:27:11Z</time>
      </trkpt>
      <trkpt lat="43.69164" lon="6.71054">
        <ele>833</ele>
        <time>2015-05-08T07:27:13Z</time>
      </trkpt>
      <trkpt lat="43.69157" lon="6.71047">
        <ele>833</ele>
        <time>2015-05-08T07:27:16Z</time>
      </trkpt>
      <trkpt lat="43.69152" lon="6.71041">
        <ele>834</ele>
        <time>2015-05-08T07:27:18Z</time>
      </trkpt>
      <trkpt lat="43.6914" lon="6.71028">
        <ele>834</ele>
        <time>2015-05-08T07:27:23Z</time>
      </trkpt>
      <trkpt lat="43.69127" lon="6.71015">
        <ele>834</ele>
        <time>2015-05-08T07:27:28Z</time>
      </trkpt>
      <trkpt lat="43.69116" lon="6.71002">
        <ele>833</ele>
        <time>2015-05-08T07:27:33Z</time>
      </trkpt>
      <trkpt lat="43.69102" lon="6.70991">
        <ele>839</ele>
        <time>2015-05-08T07:27:38Z</time>
      </trkpt>
      <trkpt lat="43.69098" lon="6.70985">
        <ele>839</ele>
        <time>2015-05-08T07:27:40Z</time>
      </trkpt>
      <trkpt lat="43.69085" lon="6.70972">
        <ele>841</ele>
        <time>2015-05-08T07:27:45Z</time>
      </trkpt>
      <trkpt lat="43.69076" lon="6.70957">
        <ele>833</ele>
        <time>2015-05-08T07:27:50Z</time>
      </trkpt>
      <trkpt lat="43.69062" lon="6.70943">
        <ele>834</ele>
        <time>2015-05-08T07:27:55Z</time>
      </trkpt>
      <trkpt lat="43.69056" lon="6.70937">
        <ele>834</ele>
        <time>2015-05-08T07:27:57Z</time>
      </trkpt>
      <trkpt lat="43.69039" lon="6.70923">
        <ele>833</ele>
        <time>2015-05-08T07:28:03Z</time>
      </trkpt>
      <trkpt lat="43.69024" lon="6.70906">
        <ele>839</ele>
        <time>2015-05-08T07:28:09Z</time>
      </trkpt>
      <trkpt lat="43.69011" lon="6.70892">
        <ele>839</ele>
        <time>2015-05-08T07:28:14Z</time>
      </trkpt>
      <trkpt lat="43.68997" lon="6.70877">
        <ele>832</ele>
        <time>2015-05-08T07:28:19Z</time>
      </trkpt>
      <trkpt lat="43.68985" lon="6.70857">
        <ele>834</ele>
        <time>2015-05-08T07:28:24Z</time>
      </trkpt>
      <trkpt lat="43.68971" lon="6.70839">
        <ele>834</ele>
        <time>2015-05-08T07:28:29Z</time>
      </trkpt>
      <trkpt lat="43.68965" lon="6.70828">
        <ele>840</ele>
        <time>2015-05-08T07:28:32Z</time>
      </trkpt>
      <trkpt lat="43.68957" lon="6.70803">
        <ele>839</ele>
        <time>2015-05-08T07:28:37Z</time>
      </trkpt>
      <trkpt lat="43.68958" lon="6.70778">
        <ele>840</ele>
        <time>2015-05-08T07:28:42Z</time>
      </trkpt>
      <trkpt lat="43.68967" lon="6.7076">
        <ele>841</ele>
        <time>2015-05-08T07:28:46Z</time>
      </trkpt>
      <trkpt lat="43.68972" lon="6.70751">
        <ele>842</ele>
        <time>2015-05-08T07:28:48Z</time>
      </trkpt>
      <trkpt lat="43.68974" lon="6.70748">
        <ele>843</ele>
        <time>2015-05-08T07:28:49Z</time>
      </trkpt>
      <trkpt lat="43.6899" lon="6.70738">
        <ele>843</ele>
        <time>2015-05-08T07:28:54Z</time>
      </trkpt>
      <trkpt lat="43.69008" lon="6.7073">
        <ele>844</ele>
        <time>2015-05-08T07:28:59Z</time>
      </trkpt>
      <trkpt lat="43.69026" lon="6.70723">
        <ele>844</ele>
        <time>2015-05-08T07:29:04Z</time>
      </trkpt>
      <trkpt lat="43.69045" lon="6.70719">
        <ele>843</ele>
        <time>2015-05-08T07:29:09Z</time>
      </trkpt>
      <trkpt lat="43.69065" lon="6.70727">
        <ele>844</ele>
        <time>2015-05-08T07:29:14Z</time>
      </trkpt>
      <trkpt lat="43.69084" lon="6.70737">
        <ele>842</ele>
        <time>2015-05-08T07:29:19Z</time>
      </trkpt>
      <trkpt lat="43.69103" lon="6.70749">
        <ele>841</ele>
        <time>2015-05-08T07:29:24Z</time>
      </trkpt>
      <trkpt lat="43.69122" lon="6.70761">
        <ele>844</ele>
        <time>2015-05-08T07:29:29Z</time>
      </trkpt>
      <trkpt lat="43.6914" lon="6.70778">
        <ele>844</ele>
        <time>2015-05-08T07:29:34Z</time>
      </trkpt>
      <trkpt lat="43.69155" lon="6.70799">
        <ele>845</ele>
        <time>2015-05-08T07:29:39Z</time>
      </trkpt>
      <trkpt lat="43.69167" lon="6.7082">
        <ele>844</ele>
        <time>2015-05-08T07:29:44Z</time>
      </trkpt>
      <trkpt lat="43.6918" lon="6.70841">
        <ele>847</ele>
        <time>2015-05-08T07:29:49Z</time>
      </trkpt>
      <trkpt lat="43.69194" lon="6.70862">
        <ele>848</ele>
        <time>2015-05-08T07:29:54Z</time>
      </trkpt>
      <trkpt lat="43.6921" lon="6.70877">
        <ele>848</ele>
        <time>2015-05-08T07:29:59Z</time>
      </trkpt>
      <trkpt lat="43.69231" lon="6.70881">
        <ele>848</ele>
        <time>2015-05-08T07:30:04Z</time>
      </trkpt>
      <trkpt lat="43.6925" lon="6.70876">
        <ele>847</ele>
        <time>2015-05-08T07:30:09Z</time>
      </trkpt>
      <trkpt lat="43.69268" lon="6.70866">
        <ele>847</ele>
        <time>2015-05-08T07:30:14Z</time>
      </trkpt>
      <trkpt lat="43.69286" lon="6.70857">
        <ele>847</ele>
        <time>2015-05-08T07:30:19Z</time>
      </trkpt>
      <trkpt lat="43.69303" lon="6.70849">
        <ele>847</ele>
        <time>2015-05-08T07:30:24Z</time>
      </trkpt>
      <trkpt lat="43.69309" lon="6.70861">
        <ele>848</ele>
        <time>2015-05-08T07:30:31Z</time>
      </trkpt>
      <trkpt lat="43.69311" lon="6.70872">
        <ele>848</ele>
        <time>2015-05-08T07:30:36Z</time>
      </trkpt>
      <trkpt lat="43.69312" lon="6.70876">
        <ele>848</ele>
        <time>2015-05-08T07:30:38Z</time>
      </trkpt>
      <trkpt lat="43.69314" lon="6.70889">
        <ele>849</ele>
        <time>2015-05-08T07:30:43Z</time>
      </trkpt>
      <trkpt lat="43.69315" lon="6.70893">
        <ele>849</ele>
        <time>2015-05-08T07:30:44Z</time>
      </trkpt>
      <trkpt lat="43.69317" lon="6.70903">
        <ele>850</ele>
        <time>2015-05-08T07:30:48Z</time>
      </trkpt>
      <trkpt lat="43.69319" lon="6.70917">
        <ele>851</ele>
        <time>2015-05-08T07:30:54Z</time>
      </trkpt>
      <trkpt lat="43.69323" lon="6.7093">
        <ele>854</ele>
        <time>2015-05-08T07:31:00Z</time>
      </trkpt>
      <trkpt lat="43.69327" lon="6.70943">
        <ele>854</ele>
        <time>2015-05-08T07:31:06Z</time>
      </trkpt>
      <trkpt lat="43.6933" lon="6.70955">
        <ele>855</ele>
        <time>2015-05-08T07:31:13Z</time>
      </trkpt>
      <trkpt lat="43.6936" lon="6.70991">
        <ele>862</ele>
        <time>2015-05-08T07:31:40Z</time>
      </trkpt>
      <trkpt lat="43.69364" lon="6.71001">
        <ele>865</ele>
        <time>2015-05-08T07:31:43Z</time>
      </trkpt>
      <trkpt lat="43.69374" lon="6.71005">
        <ele>866</ele>
        <time>2015-05-08T07:31:50Z</time>
      </trkpt>
      <trkpt lat="43.69382" lon="6.71012">
        <ele>867</ele>
        <time>2015-05-08T07:31:57Z</time>
      </trkpt>
      <trkpt lat="43.69388" lon="6.71017">
        <ele>868</ele>
        <time>2015-05-08T07:32:03Z</time>
      </trkpt>
      <trkpt lat="43.69394" lon="6.71022">
        <ele>868</ele>
        <time>2015-05-08T07:32:09Z</time>
      </trkpt>
      <trkpt lat="43.694" lon="6.71027">
        <ele>869</ele>
        <time>2015-05-08T07:32:16Z</time>
      </trkpt>
      <trkpt lat="43.69407" lon="6.71032">
        <ele>869</ele>
        <time>2015-05-08T07:32:22Z</time>
      </trkpt>
      <trkpt lat="43.69413" lon="6.71036">
        <ele>869</ele>
        <time>2015-05-08T07:32:28Z</time>
      </trkpt>
      <trkpt lat="43.69418" lon="6.71038">
        <ele>876</ele>
        <time>2015-05-08T07:32:36Z</time>
      </trkpt>
      <trkpt lat="43.6942" lon="6.71043">
        <ele>876</ele>
        <time>2015-05-08T07:32:39Z</time>
      </trkpt>
      <trkpt lat="43.69421" lon="6.71059">
        <ele>877</ele>
        <time>2015-05-08T07:32:45Z</time>
      </trkpt>
      <trkpt lat="43.69422" lon="6.71073">
        <ele>877</ele>
        <time>2015-05-08T07:32:51Z</time>
      </trkpt>
      <trkpt lat="43.69423" lon="6.71086">
        <ele>877</ele>
        <time>2015-05-08T07:32:57Z</time>
      </trkpt>
      <trkpt lat="43.69425" lon="6.71096">
        <ele>877</ele>
        <time>2015-05-08T07:33:02Z</time>
      </trkpt>
      <trkpt lat="43.69431" lon="6.71105">
        <ele>877</ele>
        <time>2015-05-08T07:33:08Z</time>
      </trkpt>
      <trkpt lat="43.69437" lon="6.71114">
        <ele>877</ele>
        <time>2015-05-08T07:33:14Z</time>
      </trkpt>
      <trkpt lat="43.69446" lon="6.71125">
        <ele>878</ele>
        <time>2015-05-08T07:33:21Z</time>
      </trkpt>
      <trkpt lat="43.69452" lon="6.71123">
        <ele>878</ele>
        <time>2015-05-08T07:33:26Z</time>
      </trkpt>
      <trkpt lat="43.69454" lon="6.71109">
        <ele>879</ele>
        <time>2015-05-08T07:33:32Z</time>
      </trkpt>
      <trkpt lat="43.69458" lon="6.71097">
        <ele>879</ele>
        <time>2015-05-08T07:33:38Z</time>
      </trkpt>
      <trkpt lat="43.69465" lon="6.71091">
        <ele>880</ele>
        <time>2015-05-08T07:33:43Z</time>
      </trkpt>
      <trkpt lat="43.69476" lon="6.71088">
        <ele>881</ele>
        <time>2015-05-08T07:33:48Z</time>
      </trkpt>
      <trkpt lat="43.69487" lon="6.71089">
        <ele>883</ele>
        <time>2015-05-08T07:33:54Z</time>
      </trkpt>
      <trkpt lat="43.69497" lon="6.71095">
        <ele>883</ele>
        <time>2015-05-08T07:33:59Z</time>
      </trkpt>
      <trkpt lat="43.69501" lon="6.71096">
        <ele>887</ele>
        <time>2015-05-08T07:34:04Z</time>
      </trkpt>
      <trkpt lat="43.69512" lon="6.71098">
        <ele>887</ele>
        <time>2015-05-08T07:34:09Z</time>
      </trkpt>
      <trkpt lat="43.69525" lon="6.71103">
        <ele>887</ele>
        <time>2015-05-08T07:34:14Z</time>
      </trkpt>
      <trkpt lat="43.6954" lon="6.71106">
        <ele>887</ele>
        <time>2015-05-08T07:34:19Z</time>
      </trkpt>
      <trkpt lat="43.69556" lon="6.71107">
        <ele>887</ele>
        <time>2015-05-08T07:34:25Z</time>
      </trkpt>
      <trkpt lat="43.69572" lon="6.71111">
        <ele>888</ele>
        <time>2015-05-08T07:34:30Z</time>
      </trkpt>
      <trkpt lat="43.6959" lon="6.71119">
        <ele>891</ele>
        <time>2015-05-08T07:34:35Z</time>
      </trkpt>
      <trkpt lat="43.69606" lon="6.71126">
        <ele>892</ele>
        <time>2015-05-08T07:34:41Z</time>
      </trkpt>
      <trkpt lat="43.69621" lon="6.71119">
        <ele>892</ele>
        <time>2015-05-08T07:34:47Z</time>
      </trkpt>
      <trkpt lat="43.69635" lon="6.71112">
        <ele>892</ele>
        <time>2015-05-08T07:34:53Z</time>
      </trkpt>
      <trkpt lat="43.69647" lon="6.71106">
        <ele>892</ele>
        <time>2015-05-08T07:34:59Z</time>
      </trkpt>
      <trkpt lat="43.6966" lon="6.71101">
        <ele>892</ele>
        <time>2015-05-08T07:35:05Z</time>
      </trkpt>
      <trkpt lat="43.69671" lon="6.71097">
        <ele>895</ele>
        <time>2015-05-08T07:35:10Z</time>
      </trkpt>
      <trkpt lat="43.69686" lon="6.71093">
        <ele>896</ele>
        <time>2015-05-08T07:35:16Z</time>
      </trkpt>
      <trkpt lat="43.69697" lon="6.71089">
        <ele>897</ele>
        <time>2015-05-08T07:35:22Z</time>
      </trkpt>
      <trkpt lat="43.69708" lon="6.71084">
        <ele>898</ele>
        <time>2015-05-08T07:35:27Z</time>
      </trkpt>
      <trkpt lat="43.69723" lon="6.71081">
        <ele>891</ele>
        <time>2015-05-08T07:35:33Z</time>
      </trkpt>
      <trkpt lat="43.69736" lon="6.71082">
        <ele>893</ele>
        <time>2015-05-08T07:35:39Z</time>
      </trkpt>
      <trkpt lat="43.69746" lon="6.71084">
        <ele>897</ele>
        <time>2015-05-08T07:35:45Z</time>
      </trkpt>
      <trkpt lat="43.69757" lon="6.71082">
        <ele>896</ele>
        <time>2015-05-08T07:35:51Z</time>
      </trkpt>
      <trkpt lat="43.69763" lon="6.71083">
        <ele>901</ele>
        <time>2015-05-08T07:35:54Z</time>
      </trkpt>
      <trkpt lat="43.69775" lon="6.71084">
        <ele>903</ele>
        <time>2015-05-08T07:36:00Z</time>
      </trkpt>
      <trkpt lat="43.69782" lon="6.71084">
        <ele>904</ele>
        <time>2015-05-08T07:36:04Z</time>
      </trkpt>
      <trkpt lat="43.69787" lon="6.71085">
        <ele>904</ele>
        <time>2015-05-08T07:36:06Z</time>
      </trkpt>
      <trkpt lat="43.69797" lon="6.71084">
        <ele>905</ele>
        <time>2015-05-08T07:36:12Z</time>
      </trkpt>
      <trkpt lat="43.69808" lon="6.71085">
        <ele>905</ele>
        <time>2015-05-08T07:36:18Z</time>
      </trkpt>
      <trkpt lat="43.69821" lon="6.7109">
        <ele>905</ele>
        <time>2015-05-08T07:36:24Z</time>
      </trkpt>
      <trkpt lat="43.69833" lon="6.71094">
        <ele>905</ele>
        <time>2015-05-08T07:36:29Z</time>
      </trkpt>
      <trkpt lat="43.69845" lon="6.71098">
        <ele>909</ele>
        <time>2015-05-08T07:36:35Z</time>
      </trkpt>
      <trkpt lat="43.69858" lon="6.71099">
        <ele>911</ele>
        <time>2015-05-08T07:36:41Z</time>
      </trkpt>
      <trkpt lat="43.69868" lon="6.71093">
        <ele>912</ele>
        <time>2015-05-08T07:36:47Z</time>
      </trkpt>
      <trkpt lat="43.69874" lon="6.71086">
        <ele>912</ele>
        <time>2015-05-08T07:36:51Z</time>
      </trkpt>
      <trkpt lat="43.69879" lon="6.7108">
        <ele>905</ele>
        <time>2015-05-08T07:36:55Z</time>
      </trkpt>
      <trkpt lat="43.69885" lon="6.71075">
        <ele>905</ele>
        <time>2015-05-08T07:36:59Z</time>
      </trkpt>
      <trkpt lat="43.6989" lon="6.7107">
        <ele>906</ele>
        <time>2015-05-08T07:37:04Z</time>
      </trkpt>
      <trkpt lat="43.699" lon="6.71065">
        <ele>906</ele>
        <time>2015-05-08T07:37:10Z</time>
      </trkpt>
      <trkpt lat="43.69908" lon="6.71071">
        <ele>908</ele>
        <time>2015-05-08T07:37:16Z</time>
      </trkpt>
      <trkpt lat="43.69904" lon="6.71083">
        <ele>908</ele>
        <time>2015-05-08T07:37:22Z</time>
      </trkpt>
      <trkpt lat="43.69899" lon="6.71094">
        <ele>913</ele>
        <time>2015-05-08T07:37:28Z</time>
      </trkpt>
      <trkpt lat="43.69897" lon="6.71108">
        <ele>914</ele>
        <time>2015-05-08T07:37:34Z</time>
      </trkpt>
      <trkpt lat="43.69895" lon="6.71119">
        <ele>915</ele>
        <time>2015-05-08T07:37:39Z</time>
      </trkpt>
      <trkpt lat="43.69891" lon="6.71132">
        <ele>916</ele>
        <time>2015-05-08T07:37:45Z</time>
      </trkpt>
      <trkpt lat="43.69889" lon="6.71141">
        <ele>916</ele>
        <time>2015-05-08T07:37:50Z</time>
      </trkpt>
      <trkpt lat="43.69883" lon="6.71171">
        <ele>924</ele>
        <time>2015-05-08T07:38:11Z</time>
      </trkpt>
      <trkpt lat="43.6988" lon="6.71185">
        <ele>925</ele>
        <time>2015-05-08T07:38:13Z</time>
      </trkpt>
      <trkpt lat="43.69878" lon="6.71196">
        <ele>925</ele>
        <time>2015-05-08T07:38:19Z</time>
      </trkpt>
      <trkpt lat="43.69874" lon="6.71208">
        <ele>926</ele>
        <time>2015-05-08T07:38:25Z</time>
      </trkpt>
      <trkpt lat="43.69868" lon="6.7122">
        <ele>926</ele>
        <time>2015-05-08T07:38:32Z</time>
      </trkpt>
      <trkpt lat="43.69863" lon="6.71229">
        <ele>927</ele>
        <time>2015-05-08T07:38:38Z</time>
      </trkpt>
      <trkpt lat="43.69859" lon="6.71236">
        <ele>927</ele>
        <time>2015-05-08T07:38:43Z</time>
      </trkpt>
      <trkpt lat="43.69853" lon="6.71246">
        <ele>927</ele>
        <time>2015-05-08T07:38:49Z</time>
      </trkpt>
      <trkpt lat="43.69846" lon="6.71255">
        <ele>931</ele>
        <time>2015-05-08T07:38:56Z</time>
      </trkpt>
      <trkpt lat="43.69837" lon="6.7126">
        <ele>930</ele>
        <time>2015-05-08T07:39:03Z</time>
      </trkpt>
      <trkpt lat="43.69831" lon="6.71264">
        <ele>927</ele>
        <time>2015-05-08T07:39:08Z</time>
      </trkpt>
      <trkpt lat="43.69821" lon="6.71274">
        <ele>927</ele>
        <time>2015-05-08T07:39:14Z</time>
      </trkpt>
      <trkpt lat="43.6981" lon="6.71283">
        <ele>927</ele>
        <time>2015-05-08T07:39:20Z</time>
      </trkpt>
      <trkpt lat="43.69802" lon="6.71292">
        <ele>927</ele>
        <time>2015-05-08T07:39:26Z</time>
      </trkpt>
      <trkpt lat="43.69794" lon="6.71303">
        <ele>926</ele>
        <time>2015-05-08T07:39:33Z</time>
      </trkpt>
      <trkpt lat="43.69791" lon="6.71316">
        <ele>926</ele>
        <time>2015-05-08T07:39:39Z</time>
      </trkpt>
      <trkpt lat="43.69789" lon="6.71328">
        <ele>926</ele>
        <time>2015-05-08T07:39:45Z</time>
      </trkpt>
      <trkpt lat="43.69791" lon="6.71336">
        <ele>925</ele>
        <time>2015-05-08T07:39:50Z</time>
      </trkpt>
      <trkpt lat="43.69791" lon="6.71341">
        <ele>925</ele>
        <time>2015-05-08T07:39:52Z</time>
      </trkpt>
      <trkpt lat="43.6979" lon="6.71345">
        <ele>925</ele>
        <time>2015-05-08T07:39:54Z</time>
      </trkpt>
      <trkpt lat="43.69792" lon="6.71358">
        <ele>925</ele>
        <time>2015-05-08T07:40:01Z</time>
      </trkpt>
      <trkpt lat="43.69796" lon="6.71374">
        <ele>925</ele>
        <time>2015-05-08T07:40:08Z</time>
      </trkpt>
      <trkpt lat="43.69798" lon="6.71378">
        <ele>925</ele>
        <time>2015-05-08T07:40:10Z</time>
      </trkpt>
      <trkpt lat="43.698" lon="6.71382">
        <ele>926</ele>
        <time>2015-05-08T07:40:13Z</time>
      </trkpt>
      <trkpt lat="43.69804" lon="6.71388">
        <ele>926</ele>
        <time>2015-05-08T07:40:19Z</time>
      </trkpt>
      <trkpt lat="43.69801" lon="6.7139">
        <ele>926</ele>
        <time>2015-05-08T07:40:24Z</time>
      </trkpt>
      <trkpt lat="43.69795" lon="6.7139">
        <ele>925</ele>
        <time>2015-05-08T07:40:29Z</time>
      </trkpt>
      <trkpt lat="43.6979" lon="6.71395">
        <ele>924</ele>
        <time>2015-05-08T07:40:34Z</time>
      </trkpt>
      <trkpt lat="43.69792" lon="6.71394">
        <ele>924</ele>
        <time>2015-05-08T07:40:42Z</time>
      </trkpt>
      <trkpt lat="43.69797" lon="6.71394">
        <ele>925</ele>
        <time>2015-05-08T07:41:19Z</time>
      </trkpt>
      <trkpt lat="43.69792" lon="6.71391">
        <ele>924</ele>
        <time>2015-05-08T07:41:24Z</time>
      </trkpt>
      <trkpt lat="43.69786" lon="6.71392">
        <ele>923</ele>
        <time>2015-05-08T07:41:30Z</time>
      </trkpt>
      <trkpt lat="43.69788" lon="6.71389">
        <ele>924</ele>
        <time>2015-05-08T07:45:38Z</time>
      </trkpt>
      <trkpt lat="43.69792" lon="6.71389">
        <ele>924</ele>
        <time>2015-05-08T07:45:43Z</time>
      </trkpt>
      <trkpt lat="43.69796" lon="6.71387">
        <ele>925</ele>
        <time>2015-05-08T07:46:48Z</time>
      </trkpt>
      <trkpt lat="43.69801" lon="6.71387">
        <ele>926</ele>
        <time>2015-05-08T07:47:24Z</time>
      </trkpt>
      <trkpt lat="43.69803" lon="6.71387">
        <ele>926</ele>
        <time>2015-05-08T07:47:32Z</time>
      </trkpt>
      <trkpt lat="43.69806" lon="6.71397">
        <ele>927</ele>
        <time>2015-05-08T07:47:38Z</time>
      </trkpt>
      <trkpt lat="43.69811" lon="6.71413">
        <ele>929</ele>
        <time>2015-05-08T07:47:44Z</time>
      </trkpt>
      <trkpt lat="43.69812" lon="6.71425">
        <ele>927</ele>
        <time>2015-05-08T07:47:49Z</time>
      </trkpt>
      <trkpt lat="43.69816" lon="6.71439">
        <ele>926</ele>
        <time>2015-05-08T07:47:54Z</time>
      </trkpt>
      <trkpt lat="43.69821" lon="6.71454">
        <ele>925</ele>
        <time>2015-05-08T07:48:00Z</time>
      </trkpt>
      <trkpt lat="43.69829" lon="6.71471">
        <ele>927</ele>
        <time>2015-05-08T07:48:05Z</time>
      </trkpt>
      <trkpt lat="43.69831" lon="6.71485">
        <ele>930</ele>
        <time>2015-05-08T07:48:10Z</time>
      </trkpt>
      <trkpt lat="43.69832" lon="6.7149">
        <ele>932</ele>
        <time>2015-05-08T07:48:12Z</time>
      </trkpt>
      <trkpt lat="43.69836" lon="6.71507">
        <ele>940</ele>
        <time>2015-05-08T07:48:18Z</time>
      </trkpt>
      <trkpt lat="43.69841" lon="6.71522">
        <ele>941</ele>
        <time>2015-05-08T07:48:24Z</time>
      </trkpt>
      <trkpt lat="43.69846" lon="6.71539">
        <ele>942</ele>
        <time>2015-05-08T07:48:29Z</time>
      </trkpt>
      <trkpt lat="43.6985" lon="6.71555">
        <ele>941</ele>
        <time>2015-05-08T07:48:35Z</time>
      </trkpt>
      <trkpt lat="43.69855" lon="6.71571">
        <ele>941</ele>
        <time>2015-05-08T07:48:41Z</time>
      </trkpt>
      <trkpt lat="43.69862" lon="6.71587">
        <ele>940</ele>
        <time>2015-05-08T07:48:47Z</time>
      </trkpt>
      <trkpt lat="43.69868" lon="6.71602">
        <ele>941</ele>
        <time>2015-05-08T07:48:53Z</time>
      </trkpt>
      <trkpt lat="43.69872" lon="6.71615">
        <ele>942</ele>
        <time>2015-05-08T07:48:59Z</time>
      </trkpt>
      <trkpt lat="43.69877" lon="6.71626">
        <ele>942</ele>
        <time>2015-05-08T07:49:05Z</time>
      </trkpt>
      <trkpt lat="43.69883" lon="6.71641">
        <ele>943</ele>
        <time>2015-05-08T07:49:11Z</time>
      </trkpt>
      <trkpt lat="43.69889" lon="6.71657">
        <ele>944</ele>
        <time>2015-05-08T07:49:17Z</time>
      </trkpt>
      <trkpt lat="43.69897" lon="6.71671">
        <ele>943</ele>
        <time>2015-05-08T07:49:23Z</time>
      </trkpt>
      <trkpt lat="43.69906" lon="6.71683">
        <ele>943</ele>
        <time>2015-05-08T07:49:28Z</time>
      </trkpt>
      <trkpt lat="43.69915" lon="6.71694">
        <ele>942</ele>
        <time>2015-05-08T07:49:33Z</time>
      </trkpt>
      <trkpt lat="43.69926" lon="6.71702">
        <ele>956</ele>
        <time>2015-05-08T07:49:39Z</time>
      </trkpt>
      <trkpt lat="43.69937" lon="6.7171">
        <ele>956</ele>
        <time>2015-05-08T07:49:45Z</time>
      </trkpt>
      <trkpt lat="43.69949" lon="6.71713">
        <ele>957</ele>
        <time>2015-05-08T07:49:51Z</time>
      </trkpt>
      <trkpt lat="43.6996" lon="6.71716">
        <ele>958</ele>
        <time>2015-05-08T07:49:56Z</time>
      </trkpt>
      <trkpt lat="43.6997" lon="6.71719">
        <ele>959</ele>
        <time>2015-05-08T07:50:02Z</time>
      </trkpt>
      <trkpt lat="43.69981" lon="6.71719">
        <ele>960</ele>
        <time>2015-05-08T07:50:09Z</time>
      </trkpt>
      <trkpt lat="43.69991" lon="6.71714">
        <ele>961</ele>
        <time>2015-05-08T07:50:15Z</time>
      </trkpt>
      <trkpt lat="43.70002" lon="6.71711">
        <ele>970</ele>
        <time>2015-05-08T07:50:21Z</time>
      </trkpt>
      <trkpt lat="43.7001" lon="6.7171">
        <ele>971</ele>
        <time>2015-05-08T07:50:26Z</time>
      </trkpt>
      <trkpt lat="43.70015" lon="6.71708">
        <ele>971</ele>
        <time>2015-05-08T07:50:31Z</time>
      </trkpt>
      <trkpt lat="43.70024" lon="6.71702">
        <ele>971</ele>
        <time>2015-05-08T07:50:37Z</time>
      </trkpt>
      <trkpt lat="43.70031" lon="6.71698">
        <ele>972</ele>
        <time>2015-05-08T07:50:42Z</time>
      </trkpt>
      <trkpt lat="43.70043" lon="6.71699">
        <ele>973</ele>
        <time>2015-05-08T07:50:48Z</time>
      </trkpt>
      <trkpt lat="43.70053" lon="6.71705">
        <ele>973</ele>
        <time>2015-05-08T07:50:54Z</time>
      </trkpt>
      <trkpt lat="43.70056" lon="6.71707">
        <ele>973</ele>
        <time>2015-05-08T07:50:56Z</time>
      </trkpt>
      <trkpt lat="43.70066" lon="6.71715">
        <ele>974</ele>
        <time>2015-05-08T07:51:02Z</time>
      </trkpt>
      <trkpt lat="43.70077" lon="6.71722">
        <ele>975</ele>
        <time>2015-05-08T07:51:09Z</time>
      </trkpt>
      <trkpt lat="43.70087" lon="6.71725">
        <ele>981</ele>
        <time>2015-05-08T07:51:15Z</time>
      </trkpt>
      <trkpt lat="43.70092" lon="6.71732">
        <ele>981</ele>
        <time>2015-05-08T07:51:20Z</time>
      </trkpt>
      <trkpt lat="43.70095" lon="6.71734">
        <ele>981</ele>
        <time>2015-05-08T07:51:22Z</time>
      </trkpt>
      <trkpt lat="43.70105" lon="6.71741">
        <ele>981</ele>
        <time>2015-05-08T07:51:28Z</time>
      </trkpt>
      <trkpt lat="43.70113" lon="6.71744">
        <ele>982</ele>
        <time>2015-05-08T07:51:33Z</time>
      </trkpt>
      <trkpt lat="43.7012" lon="6.71744">
        <ele>982</ele>
        <time>2015-05-08T07:51:38Z</time>
      </trkpt>
      <trkpt lat="43.7013" lon="6.71744">
        <ele>983</ele>
        <time>2015-05-08T07:51:44Z</time>
      </trkpt>
      <trkpt lat="43.70137" lon="6.71746">
        <ele>983</ele>
        <time>2015-05-08T07:51:49Z</time>
      </trkpt>
      <trkpt lat="43.70146" lon="6.71743">
        <ele>984</ele>
        <time>2015-05-08T07:51:56Z</time>
      </trkpt>
      <trkpt lat="43.70153" lon="6.71741">
        <ele>985</ele>
        <time>2015-05-08T07:52:01Z</time>
      </trkpt>
      <trkpt lat="43.70164" lon="6.71739">
        <ele>985</ele>
        <time>2015-05-08T07:52:07Z</time>
      </trkpt>
      <trkpt lat="43.70173" lon="6.71739">
        <ele>988</ele>
        <time>2015-05-08T07:52:13Z</time>
      </trkpt>
      <trkpt lat="43.70183" lon="6.71735">
        <ele>989</ele>
        <time>2015-05-08T07:52:19Z</time>
      </trkpt>
      <trkpt lat="43.70193" lon="6.71737">
        <ele>990</ele>
        <time>2015-05-08T07:52:25Z</time>
      </trkpt>
      <trkpt lat="43.70203" lon="6.71735">
        <ele>990</ele>
        <time>2015-05-08T07:52:31Z</time>
      </trkpt>
      <trkpt lat="43.70214" lon="6.7173">
        <ele>991</ele>
        <time>2015-05-08T07:52:37Z</time>
      </trkpt>
      <trkpt lat="43.70225" lon="6.71724">
        <ele>991</ele>
        <time>2015-05-08T07:52:43Z</time>
      </trkpt>
      <trkpt lat="43.70237" lon="6.7172">
        <ele>992</ele>
        <time>2015-05-08T07:52:49Z</time>
      </trkpt>
      <trkpt lat="43.70249" lon="6.71723">
        <ele>992</ele>
        <time>2015-05-08T07:52:55Z</time>
      </trkpt>
      <trkpt lat="43.70258" lon="6.71733">
        <ele>996</ele>
        <time>2015-05-08T07:53:01Z</time>
      </trkpt>
      <trkpt lat="43.70267" lon="6.71746">
        <ele>996</ele>
        <time>2015-05-08T07:53:06Z</time>
      </trkpt>
      <trkpt lat="43.70279" lon="6.71755">
        <ele>998</ele>
        <time>2015-05-08T07:53:12Z</time>
      </trkpt>
      <trkpt lat="43.7029" lon="6.71759">
        <ele>998</ele>
        <time>2015-05-08T07:53:17Z</time>
      </trkpt>
      <trkpt lat="43.703" lon="6.7176">
        <ele>999</ele>
        <time>2015-05-08T07:53:23Z</time>
      </trkpt>
      <trkpt lat="43.70307" lon="6.71753">
        <ele>999</ele>
        <time>2015-05-08T07:53:29Z</time>
      </trkpt>
      <trkpt lat="43.70311" lon="6.71742">
        <ele>999</ele>
        <time>2015-05-08T07:53:35Z</time>
      </trkpt>
      <trkpt lat="43.70317" lon="6.71729">
        <ele>999</ele>
        <time>2015-05-08T07:53:41Z</time>
      </trkpt>
      <trkpt lat="43.70322" lon="6.71721">
        <ele>999</ele>
        <time>2015-05-08T07:53:46Z</time>
      </trkpt>
      <trkpt lat="43.70331" lon="6.71711">
        <ele>999</ele>
        <time>2015-05-08T07:53:52Z</time>
      </trkpt>
      <trkpt lat="43.70339" lon="6.71701">
        <ele>1004</ele>
        <time>2015-05-08T07:53:58Z</time>
      </trkpt>
      <trkpt lat="43.70349" lon="6.71692">
        <ele>1004</ele>
        <time>2015-05-08T07:54:04Z</time>
      </trkpt>
      <trkpt lat="43.70359" lon="6.71685">
        <ele>1004</ele>
        <time>2015-05-08T07:54:10Z</time>
      </trkpt>
      <trkpt lat="43.70365" lon="6.7168">
        <ele>1005</ele>
        <time>2015-05-08T07:54:15Z</time>
      </trkpt>
      <trkpt lat="43.70373" lon="6.71674">
        <ele>1006</ele>
        <time>2015-05-08T07:54:21Z</time>
      </trkpt>
      <trkpt lat="43.70382" lon="6.71665">
        <ele>1007</ele>
        <time>2015-05-08T07:54:28Z</time>
      </trkpt>
      <trkpt lat="43.70386" lon="6.71658">
        <ele>1007</ele>
        <time>2015-05-08T07:54:34Z</time>
      </trkpt>
      <trkpt lat="43.70393" lon="6.71653">
        <ele>1008</ele>
        <time>2015-05-08T07:54:39Z</time>
      </trkpt>
      <trkpt lat="43.704" lon="6.71648">
        <ele>1008</ele>
        <time>2015-05-08T07:54:44Z</time>
      </trkpt>
      <trkpt lat="43.70404" lon="6.71643">
        <ele>1009</ele>
        <time>2015-05-08T07:54:49Z</time>
      </trkpt>
      <trkpt lat="43.70411" lon="6.7164">
        <ele>1009</ele>
        <time>2015-05-08T07:54:55Z</time>
      </trkpt>
      <trkpt lat="43.70417" lon="6.71634">
        <ele>1009</ele>
        <time>2015-05-08T07:55:00Z</time>
      </trkpt>
      <trkpt lat="43.70424" lon="6.71627">
        <ele>1015</ele>
        <time>2015-05-08T07:55:06Z</time>
      </trkpt>
      <trkpt lat="43.70428" lon="6.71621">
        <ele>1015</ele>
        <time>2015-05-08T07:55:12Z</time>
      </trkpt>
      <trkpt lat="43.70433" lon="6.71614">
        <ele>1015</ele>
        <time>2015-05-08T07:55:17Z</time>
      </trkpt>
      <trkpt lat="43.7044" lon="6.71609">
        <ele>1016</ele>
        <time>2015-05-08T07:55:22Z</time>
      </trkpt>
      <trkpt lat="43.70444" lon="6.71603">
        <ele>1016</ele>
        <time>2015-05-08T07:55:27Z</time>
      </trkpt>
      <trkpt lat="43.7045" lon="6.71599">
        <ele>1016</ele>
        <time>2015-05-08T07:55:32Z</time>
      </trkpt>
      <trkpt lat="43.70456" lon="6.71594">
        <ele>1017</ele>
        <time>2015-05-08T07:55:37Z</time>
      </trkpt>
      <trkpt lat="43.70465" lon="6.71586">
        <ele>1017</ele>
        <time>2015-05-08T07:55:43Z</time>
      </trkpt>
      <trkpt lat="43.70474" lon="6.71582">
        <ele>1018</ele>
        <time>2015-05-08T07:55:49Z</time>
      </trkpt>
      <trkpt lat="43.70479" lon="6.71577">
        <ele>1019</ele>
        <time>2015-05-08T07:55:54Z</time>
      </trkpt>
      <trkpt lat="43.70488" lon="6.7157">
        <ele>1019</ele>
        <time>2015-05-08T07:56:00Z</time>
      </trkpt>
      <trkpt lat="43.70497" lon="6.71563">
        <ele>1019</ele>
        <time>2015-05-08T07:56:06Z</time>
      </trkpt>
      <trkpt lat="43.70506" lon="6.71559">
        <ele>1025</ele>
        <time>2015-05-08T07:56:13Z</time>
      </trkpt>
      <trkpt lat="43.70515" lon="6.71556">
        <ele>1026</ele>
        <time>2015-05-08T07:56:19Z</time>
      </trkpt>
      <trkpt lat="43.70521" lon="6.71552">
        <ele>1026</ele>
        <time>2015-05-08T07:56:24Z</time>
      </trkpt>
      <trkpt lat="43.70529" lon="6.71545">
        <ele>1027</ele>
        <time>2015-05-08T07:56:30Z</time>
      </trkpt>
      <trkpt lat="43.70534" lon="6.7154">
        <ele>1027</ele>
        <time>2015-05-08T07:56:35Z</time>
      </trkpt>
      <trkpt lat="43.7054" lon="6.71534">
        <ele>1028</ele>
        <time>2015-05-08T07:56:40Z</time>
      </trkpt>
      <trkpt lat="43.70546" lon="6.71527">
        <ele>1028</ele>
        <time>2015-05-08T07:56:45Z</time>
      </trkpt>
      <trkpt lat="43.70552" lon="6.71517">
        <ele>1029</ele>
        <time>2015-05-08T07:56:51Z</time>
      </trkpt>
      <trkpt lat="43.70559" lon="6.71506">
        <ele>1030</ele>
        <time>2015-05-08T07:56:57Z</time>
      </trkpt>
      <trkpt lat="43.70565" lon="6.71496">
        <ele>1030</ele>
        <time>2015-05-08T07:57:03Z</time>
      </trkpt>
      <trkpt lat="43.70569" lon="6.71488">
        <ele>1031</ele>
        <time>2015-05-08T07:57:08Z</time>
      </trkpt>
      <trkpt lat="43.70575" lon="6.71474">
        <ele>1030</ele>
        <time>2015-05-08T07:57:14Z</time>
      </trkpt>
      <trkpt lat="43.70581" lon="6.71464">
        <ele>1029</ele>
        <time>2015-05-08T07:57:20Z</time>
      </trkpt>
      <trkpt lat="43.70587" lon="6.71452">
        <ele>1041</ele>
        <time>2015-05-08T07:57:27Z</time>
      </trkpt>
      <trkpt lat="43.70592" lon="6.7144">
        <ele>1040</ele>
        <time>2015-05-08T07:57:33Z</time>
      </trkpt>
      <trkpt lat="43.70597" lon="6.7143">
        <ele>1040</ele>
        <time>2015-05-08T07:57:39Z</time>
      </trkpt>
      <trkpt lat="43.70604" lon="6.71417">
        <ele>1040</ele>
        <time>2015-05-08T07:57:45Z</time>
      </trkpt>
      <trkpt lat="43.70608" lon="6.71408">
        <ele>1039</ele>
        <time>2015-05-08T07:57:50Z</time>
      </trkpt>
      <trkpt lat="43.70611" lon="6.71404">
        <ele>1039</ele>
        <time>2015-05-08T07:57:53Z</time>
      </trkpt>
      <trkpt lat="43.70614" lon="6.71396">
        <ele>1040</ele>
        <time>2015-05-08T07:57:58Z</time>
      </trkpt>
      <trkpt lat="43.7062" lon="6.71385">
        <ele>1040</ele>
        <time>2015-05-08T07:58:04Z</time>
      </trkpt>
      <trkpt lat="43.70626" lon="6.71372">
        <ele>1041</ele>
        <time>2015-05-08T07:58:10Z</time>
      </trkpt>
      <trkpt lat="43.70628" lon="6.71367">
        <ele>1041</ele>
        <time>2015-05-08T07:58:12Z</time>
      </trkpt>
      <trkpt lat="43.70635" lon="6.71356">
        <ele>1041</ele>
        <time>2015-05-08T07:58:18Z</time>
      </trkpt>
      <trkpt lat="43.7064" lon="6.71348">
        <ele>1042</ele>
        <time>2015-05-08T07:58:23Z</time>
      </trkpt>
      <trkpt lat="43.70644" lon="6.7134">
        <ele>1043</ele>
        <time>2015-05-08T07:58:29Z</time>
      </trkpt>
      <trkpt lat="43.7065" lon="6.71329">
        <ele>1039</ele>
        <time>2015-05-08T07:58:35Z</time>
      </trkpt>
      <trkpt lat="43.70652" lon="6.71322">
        <ele>1039</ele>
        <time>2015-05-08T07:58:39Z</time>
      </trkpt>
      <trkpt lat="43.70659" lon="6.71308">
        <ele>1036</ele>
        <time>2015-05-08T07:58:45Z</time>
      </trkpt>
      <trkpt lat="43.70669" lon="6.71298">
        <ele>1048</ele>
        <time>2015-05-08T07:58:51Z</time>
      </trkpt>
      <trkpt lat="43.70675" lon="6.71295">
        <ele>1048</ele>
        <time>2015-05-08T07:58:56Z</time>
      </trkpt>
      <trkpt lat="43.70682" lon="6.71287">
        <ele>1048</ele>
        <time>2015-05-08T07:59:02Z</time>
      </trkpt>
      <trkpt lat="43.70688" lon="6.71282">
        <ele>1048</ele>
        <time>2015-05-08T07:59:07Z</time>
      </trkpt>
      <trkpt lat="43.70697" lon="6.71274">
        <ele>1048</ele>
        <time>2015-05-08T07:59:15Z</time>
      </trkpt>
      <trkpt lat="43.70705" lon="6.7127">
        <ele>1049</ele>
        <time>2015-05-08T07:59:20Z</time>
      </trkpt>
      <trkpt lat="43.70713" lon="6.71262">
        <ele>1050</ele>
        <time>2015-05-08T07:59:26Z</time>
      </trkpt>
      <trkpt lat="43.7072" lon="6.71258">
        <ele>1050</ele>
        <time>2015-05-08T07:59:31Z</time>
      </trkpt>
      <trkpt lat="43.7073" lon="6.71251">
        <ele>1051</ele>
        <time>2015-05-08T07:59:38Z</time>
      </trkpt>
      <trkpt lat="43.70741" lon="6.71246">
        <ele>1046</ele>
        <time>2015-05-08T07:59:45Z</time>
      </trkpt>
      <trkpt lat="43.70751" lon="6.71243">
        <ele>1051</ele>
        <time>2015-05-08T07:59:51Z</time>
      </trkpt>
      <trkpt lat="43.70762" lon="6.71241">
        <ele>1050</ele>
        <time>2015-05-08T07:59:57Z</time>
      </trkpt>
      <trkpt lat="43.70768" lon="6.7124">
        <ele>1049</ele>
        <time>2015-05-08T08:00:02Z</time>
      </trkpt>
      <trkpt lat="43.70775" lon="6.71241">
        <ele>1049</ele>
        <time>2015-05-08T08:00:07Z</time>
      </trkpt>
      <trkpt lat="43.70782" lon="6.71242">
        <ele>1050</ele>
        <time>2015-05-08T08:00:12Z</time>
      </trkpt>
      <trkpt lat="43.70791" lon="6.71248">
        <ele>1051</ele>
        <time>2015-05-08T08:00:18Z</time>
      </trkpt>
      <trkpt lat="43.70798" lon="6.71248">
        <ele>1051</ele>
        <time>2015-05-08T08:00:23Z</time>
      </trkpt>
      <trkpt lat="43.70807" lon="6.71244">
        <ele>1053</ele>
        <time>2015-05-08T08:00:29Z</time>
      </trkpt>
      <trkpt lat="43.70816" lon="6.71239">
        <ele>1054</ele>
        <time>2015-05-08T08:00:35Z</time>
      </trkpt>
      <trkpt lat="43.70826" lon="6.71233">
        <ele>1054</ele>
        <time>2015-05-08T08:00:41Z</time>
      </trkpt>
      <trkpt lat="43.70834" lon="6.71223">
        <ele>1056</ele>
        <time>2015-05-08T08:00:47Z</time>
      </trkpt>
      <trkpt lat="43.70843" lon="6.71215">
        <ele>1054</ele>
        <time>2015-05-08T08:00:54Z</time>
      </trkpt>
      <trkpt lat="43.70852" lon="6.71217">
        <ele>1055</ele>
        <time>2015-05-08T08:01:00Z</time>
      </trkpt>
      <trkpt lat="43.70862" lon="6.71222">
        <ele>1055</ele>
        <time>2015-05-08T08:01:05Z</time>
      </trkpt>
      <trkpt lat="43.7087" lon="6.71227">
        <ele>1056</ele>
        <time>2015-05-08T08:01:11Z</time>
      </trkpt>
      <trkpt lat="43.70882" lon="6.71233">
        <ele>1056</ele>
        <time>2015-05-08T08:01:17Z</time>
      </trkpt>
      <trkpt lat="43.70893" lon="6.71242">
        <ele>1058</ele>
        <time>2015-05-08T08:01:23Z</time>
      </trkpt>
      <trkpt lat="43.70903" lon="6.71253">
        <ele>1067</ele>
        <time>2015-05-08T08:01:29Z</time>
      </trkpt>
      <trkpt lat="43.70911" lon="6.71266">
        <ele>1068</ele>
        <time>2015-05-08T08:01:35Z</time>
      </trkpt>
      <trkpt lat="43.70914" lon="6.71282">
        <ele>1069</ele>
        <time>2015-05-08T08:01:41Z</time>
      </trkpt>
      <trkpt lat="43.70918" lon="6.71297">
        <ele>1070</ele>
        <time>2015-05-08T08:01:47Z</time>
      </trkpt>
      <trkpt lat="43.70921" lon="6.7131">
        <ele>1072</ele>
        <time>2015-05-08T08:01:52Z</time>
      </trkpt>
      <trkpt lat="43.70926" lon="6.71322">
        <ele>1073</ele>
        <time>2015-05-08T08:01:57Z</time>
      </trkpt>
      <trkpt lat="43.70931" lon="6.71336">
        <ele>1076</ele>
        <time>2015-05-08T08:02:03Z</time>
      </trkpt>
      <trkpt lat="43.70936" lon="6.7135">
        <ele>1076</ele>
        <time>2015-05-08T08:02:09Z</time>
      </trkpt>
      <trkpt lat="43.70944" lon="6.7136">
        <ele>1077</ele>
        <time>2015-05-08T08:02:14Z</time>
      </trkpt>
      <trkpt lat="43.7095" lon="6.71371">
        <ele>1077</ele>
        <time>2015-05-08T08:02:20Z</time>
      </trkpt>
      <trkpt lat="43.70959" lon="6.71384">
        <ele>1078</ele>
        <time>2015-05-08T08:02:26Z</time>
      </trkpt>
      <trkpt lat="43.70968" lon="6.71389">
        <ele>1078</ele>
        <time>2015-05-08T08:02:32Z</time>
      </trkpt>
      <trkpt lat="43.70974" lon="6.71389">
        <ele>1078</ele>
        <time>2015-05-08T08:02:37Z</time>
      </trkpt>
      <trkpt lat="43.70984" lon="6.71395">
        <ele>1079</ele>
        <time>2015-05-08T08:02:43Z</time>
      </trkpt>
      <trkpt lat="43.70995" lon="6.71399">
        <ele>1080</ele>
        <time>2015-05-08T08:02:50Z</time>
      </trkpt>
      <trkpt lat="43.71005" lon="6.71401">
        <ele>1083</ele>
        <time>2015-05-08T08:02:56Z</time>
      </trkpt>
      <trkpt lat="43.71011" lon="6.71403">
        <ele>1084</ele>
        <time>2015-05-08T08:03:01Z</time>
      </trkpt>
      <trkpt lat="43.71021" lon="6.714">
        <ele>1084</ele>
        <time>2015-05-08T08:03:07Z</time>
      </trkpt>
      <trkpt lat="43.7103" lon="6.71395">
        <ele>1085</ele>
        <time>2015-05-08T08:03:13Z</time>
      </trkpt>
      <trkpt lat="43.71041" lon="6.71392">
        <ele>1086</ele>
        <time>2015-05-08T08:03:20Z</time>
      </trkpt>
      <trkpt lat="43.7105" lon="6.71391">
        <ele>1087</ele>
        <time>2015-05-08T08:03:26Z</time>
      </trkpt>
      <trkpt lat="43.71057" lon="6.71387">
        <ele>1087</ele>
        <time>2015-05-08T08:03:31Z</time>
      </trkpt>
      <trkpt lat="43.71067" lon="6.71381">
        <ele>1088</ele>
        <time>2015-05-08T08:03:37Z</time>
      </trkpt>
      <trkpt lat="43.71074" lon="6.71375">
        <ele>1088</ele>
        <time>2015-05-08T08:03:42Z</time>
      </trkpt>
      <trkpt lat="43.7108" lon="6.71364">
        <ele>1088</ele>
        <time>2015-05-08T08:03:48Z</time>
      </trkpt>
      <trkpt lat="43.71085" lon="6.71352">
        <ele>1095</ele>
        <time>2015-05-08T08:03:53Z</time>
      </trkpt>
      <trkpt lat="43.71089" lon="6.7134">
        <ele>1093</ele>
        <time>2015-05-08T08:03:59Z</time>
      </trkpt>
      <trkpt lat="43.71091" lon="6.71331">
        <ele>1090</ele>
        <time>2015-05-08T08:04:04Z</time>
      </trkpt>
      <trkpt lat="43.71095" lon="6.71319">
        <ele>1089</ele>
        <time>2015-05-08T08:04:10Z</time>
      </trkpt>
      <trkpt lat="43.71101" lon="6.71308">
        <ele>1089</ele>
        <time>2015-05-08T08:04:16Z</time>
      </trkpt>
      <trkpt lat="43.71112" lon="6.71303">
        <ele>1089</ele>
        <time>2015-05-08T08:04:22Z</time>
      </trkpt>
      <trkpt lat="43.71122" lon="6.71302">
        <ele>1089</ele>
        <time>2015-05-08T08:04:28Z</time>
      </trkpt>
      <trkpt lat="43.71129" lon="6.71305">
        <ele>1090</ele>
        <time>2015-05-08T08:04:33Z</time>
      </trkpt>
      <trkpt lat="43.71135" lon="6.7131">
        <ele>1091</ele>
        <time>2015-05-08T08:04:39Z</time>
      </trkpt>
      <trkpt lat="43.71141" lon="6.71313">
        <ele>1092</ele>
        <time>2015-05-08T08:04:44Z</time>
      </trkpt>
      <trkpt lat="43.71147" lon="6.71316">
        <ele>1093</ele>
        <time>2015-05-08T08:04:51Z</time>
      </trkpt>
      <trkpt lat="43.71153" lon="6.7132">
        <ele>1095</ele>
        <time>2015-05-08T08:04:57Z</time>
      </trkpt>
      <trkpt lat="43.71159" lon="6.71324">
        <ele>1097</ele>
        <time>2015-05-08T08:05:02Z</time>
      </trkpt>
      <trkpt lat="43.71164" lon="6.7133">
        <ele>1100</ele>
        <time>2015-05-08T08:05:08Z</time>
      </trkpt>
      <trkpt lat="43.7117" lon="6.71335">
        <ele>1103</ele>
        <time>2015-05-08T08:05:14Z</time>
      </trkpt>
      <trkpt lat="43.71177" lon="6.71338">
        <ele>1104</ele>
        <time>2015-05-08T08:05:19Z</time>
      </trkpt>
      <trkpt lat="43.71182" lon="6.71345">
        <ele>1105</ele>
        <time>2015-05-08T08:05:24Z</time>
      </trkpt>
      <trkpt lat="43.71184" lon="6.71347">
        <ele>1105</ele>
        <time>2015-05-08T08:05:26Z</time>
      </trkpt>
      <trkpt lat="43.71188" lon="6.71352">
        <ele>1106</ele>
        <time>2015-05-08T08:05:31Z</time>
      </trkpt>
      <trkpt lat="43.71197" lon="6.71357">
        <ele>1106</ele>
        <time>2015-05-08T08:05:37Z</time>
      </trkpt>
      <trkpt lat="43.71202" lon="6.7136">
        <ele>1107</ele>
        <time>2015-05-08T08:05:42Z</time>
      </trkpt>
      <trkpt lat="43.71209" lon="6.71364">
        <ele>1107</ele>
        <time>2015-05-08T08:05:48Z</time>
      </trkpt>
      <trkpt lat="43.71216" lon="6.71369">
        <ele>1107</ele>
        <time>2015-05-08T08:05:54Z</time>
      </trkpt>
      <trkpt lat="43.71222" lon="6.71374">
        <ele>1108</ele>
        <time>2015-05-08T08:05:59Z</time>
      </trkpt>
      <trkpt lat="43.71228" lon="6.71379">
        <ele>1109</ele>
        <time>2015-05-08T08:06:05Z</time>
      </trkpt>
      <trkpt lat="43.71237" lon="6.71384">
        <ele>1109</ele>
        <time>2015-05-08T08:06:11Z</time>
      </trkpt>
      <trkpt lat="43.71243" lon="6.71387">
        <ele>1110</ele>
        <time>2015-05-08T08:06:16Z</time>
      </trkpt>
      <trkpt lat="43.71253" lon="6.7139">
        <ele>1112</ele>
        <time>2015-05-08T08:06:23Z</time>
      </trkpt>
      <trkpt lat="43.71259" lon="6.71394">
        <ele>1113</ele>
        <time>2015-05-08T08:06:29Z</time>
      </trkpt>
      <trkpt lat="43.71265" lon="6.71397">
        <ele>1113</ele>
        <time>2015-05-08T08:06:35Z</time>
      </trkpt>
      <trkpt lat="43.71272" lon="6.71404">
        <ele>1113</ele>
        <time>2015-05-08T08:06:42Z</time>
      </trkpt>
      <trkpt lat="43.71276" lon="6.7141">
        <ele>1114</ele>
        <time>2015-05-08T08:06:48Z</time>
      </trkpt>
      <trkpt lat="43.71282" lon="6.71416">
        <ele>1114</ele>
        <time>2015-05-08T08:06:54Z</time>
      </trkpt>
      <trkpt lat="43.71289" lon="6.71421">
        <ele>1121</ele>
        <time>2015-05-08T08:07:00Z</time>
      </trkpt>
      <trkpt lat="43.71294" lon="6.71425">
        <ele>1121</ele>
        <time>2015-05-08T08:07:05Z</time>
      </trkpt>
      <trkpt lat="43.71299" lon="6.71429">
        <ele>1121</ele>
        <time>2015-05-08T08:07:10Z</time>
      </trkpt>
      <trkpt lat="43.71306" lon="6.71432">
        <ele>1121</ele>
        <time>2015-05-08T08:07:16Z</time>
      </trkpt>
      <trkpt lat="43.71312" lon="6.71437">
        <ele>1122</ele>
        <time>2015-05-08T08:07:21Z</time>
      </trkpt>
      <trkpt lat="43.71318" lon="6.71442">
        <ele>1122</ele>
        <time>2015-05-08T08:07:26Z</time>
      </trkpt>
      <trkpt lat="43.71325" lon="6.71447">
        <ele>1122</ele>
        <time>2015-05-08T08:07:32Z</time>
      </trkpt>
      <trkpt lat="43.71331" lon="6.71453">
        <ele>1122</ele>
        <time>2015-05-08T08:07:38Z</time>
      </trkpt>
      <trkpt lat="43.71338" lon="6.71462">
        <ele>1129</ele>
        <time>2015-05-08T08:07:45Z</time>
      </trkpt>
      <trkpt lat="43.71345" lon="6.71472">
        <ele>1129</ele>
        <time>2015-05-08T08:07:52Z</time>
      </trkpt>
      <trkpt lat="43.71349" lon="6.71484">
        <ele>1130</ele>
        <time>2015-05-08T08:07:58Z</time>
      </trkpt>
      <trkpt lat="43.71355" lon="6.71495">
        <ele>1130</ele>
        <time>2015-05-08T08:08:04Z</time>
      </trkpt>
      <trkpt lat="43.71362" lon="6.71506">
        <ele>1132</ele>
        <time>2015-05-08T08:08:10Z</time>
      </trkpt>
      <trkpt lat="43.71368" lon="6.71515">
        <ele>1133</ele>
        <time>2015-05-08T08:08:16Z</time>
      </trkpt>
      <trkpt lat="43.71376" lon="6.71523">
        <ele>1134</ele>
        <time>2015-05-08T08:08:23Z</time>
      </trkpt>
      <trkpt lat="43.71384" lon="6.71531">
        <ele>1134</ele>
        <time>2015-05-08T08:08:29Z</time>
      </trkpt>
      <trkpt lat="43.71392" lon="6.71538">
        <ele>1135</ele>
        <time>2015-05-08T08:08:35Z</time>
      </trkpt>
      <trkpt lat="43.71401" lon="6.71545">
        <ele>1135</ele>
        <time>2015-05-08T08:08:41Z</time>
      </trkpt>
      <trkpt lat="43.71409" lon="6.71551">
        <ele>1135</ele>
        <time>2015-05-08T08:08:47Z</time>
      </trkpt>
      <trkpt lat="43.71417" lon="6.71556">
        <ele>1141</ele>
        <time>2015-05-08T08:08:53Z</time>
      </trkpt>
      <trkpt lat="43.71423" lon="6.71561">
        <ele>1141</ele>
        <time>2015-05-08T08:08:58Z</time>
      </trkpt>
      <trkpt lat="43.71432" lon="6.71566">
        <ele>1141</ele>
        <time>2015-05-08T08:09:04Z</time>
      </trkpt>
      <trkpt lat="43.71442" lon="6.71571">
        <ele>1142</ele>
        <time>2015-05-08T08:09:10Z</time>
      </trkpt>
      <trkpt lat="43.7145" lon="6.71577">
        <ele>1142</ele>
        <time>2015-05-08T08:09:16Z</time>
      </trkpt>
      <trkpt lat="43.71457" lon="6.71585">
        <ele>1140</ele>
        <time>2015-05-08T08:09:22Z</time>
      </trkpt>
      <trkpt lat="43.71465" lon="6.71595">
        <ele>1141</ele>
        <time>2015-05-08T08:09:29Z</time>
      </trkpt>
      <trkpt lat="43.71472" lon="6.71604">
        <ele>1141</ele>
        <time>2015-05-08T08:09:35Z</time>
      </trkpt>
      <trkpt lat="43.71478" lon="6.71613">
        <ele>1141</ele>
        <time>2015-05-08T08:09:41Z</time>
      </trkpt>
      <trkpt lat="43.71484" lon="6.71622">
        <ele>1141</ele>
        <time>2015-05-08T08:09:47Z</time>
      </trkpt>
      <trkpt lat="43.71492" lon="6.7163">
        <ele>1141</ele>
        <time>2015-05-08T08:09:53Z</time>
      </trkpt>
      <trkpt lat="43.71498" lon="6.7164">
        <ele>1142</ele>
        <time>2015-05-08T08:10:00Z</time>
      </trkpt>
      <trkpt lat="43.71506" lon="6.71647">
        <ele>1145</ele>
        <time>2015-05-08T08:10:06Z</time>
      </trkpt>
      <trkpt lat="43.71514" lon="6.71656">
        <ele>1145</ele>
        <time>2015-05-08T08:10:12Z</time>
      </trkpt>
      <trkpt lat="43.71522" lon="6.71664">
        <ele>1146</ele>
        <time>2015-05-08T08:10:18Z</time>
      </trkpt>
      <trkpt lat="43.7153" lon="6.71672">
        <ele>1146</ele>
        <time>2015-05-08T08:10:24Z</time>
      </trkpt>
      <trkpt lat="43.71537" lon="6.71681">
        <ele>1147</ele>
        <time>2015-05-08T08:10:30Z</time>
      </trkpt>
      <trkpt lat="43.71543" lon="6.7169">
        <ele>1147</ele>
        <time>2015-05-08T08:10:36Z</time>
      </trkpt>
      <trkpt lat="43.71548" lon="6.717">
        <ele>1147</ele>
        <time>2015-05-08T08:10:42Z</time>
      </trkpt>
      <trkpt lat="43.71552" lon="6.71713">
        <ele>1148</ele>
        <time>2015-05-08T08:10:48Z</time>
      </trkpt>
      <trkpt lat="43.71554" lon="6.71727">
        <ele>1148</ele>
        <time>2015-05-08T08:10:54Z</time>
      </trkpt>
      <trkpt lat="43.71556" lon="6.71736">
        <ele>1148</ele>
        <time>2015-05-08T08:10:59Z</time>
      </trkpt>
      <trkpt lat="43.71557" lon="6.7175">
        <ele>1148</ele>
        <time>2015-05-08T08:11:05Z</time>
      </trkpt>
      <trkpt lat="43.71557" lon="6.71764">
        <ele>1150</ele>
        <time>2015-05-08T08:11:11Z</time>
      </trkpt>
      <trkpt lat="43.71556" lon="6.71773">
        <ele>1150</ele>
        <time>2015-05-08T08:11:16Z</time>
      </trkpt>
      <trkpt lat="43.71558" lon="6.71788">
        <ele>1150</ele>
        <time>2015-05-08T08:11:22Z</time>
      </trkpt>
      <trkpt lat="43.7156" lon="6.71802">
        <ele>1151</ele>
        <time>2015-05-08T08:11:28Z</time>
      </trkpt>
      <trkpt lat="43.71562" lon="6.71817">
        <ele>1151</ele>
        <time>2015-05-08T08:11:34Z</time>
      </trkpt>
      <trkpt lat="43.71563" lon="6.71831">
        <ele>1152</ele>
        <time>2015-05-08T08:11:39Z</time>
      </trkpt>
      <trkpt lat="43.71564" lon="6.71841">
        <ele>1154</ele>
        <time>2015-05-08T08:11:44Z</time>
      </trkpt>
      <trkpt lat="43.71565" lon="6.71855">
        <ele>1155</ele>
        <time>2015-05-08T08:11:50Z</time>
      </trkpt>
      <trkpt lat="43.71561" lon="6.71868">
        <ele>1155</ele>
        <time>2015-05-08T08:11:56Z</time>
      </trkpt>
      <trkpt lat="43.71558" lon="6.71882">
        <ele>1155</ele>
        <time>2015-05-08T08:12:03Z</time>
      </trkpt>
      <trkpt lat="43.7156" lon="6.71894">
        <ele>1156</ele>
        <time>2015-05-08T08:12:09Z</time>
      </trkpt>
      <trkpt lat="43.71563" lon="6.71907">
        <ele>1157</ele>
        <time>2015-05-08T08:12:15Z</time>
      </trkpt>
      <trkpt lat="43.71564" lon="6.7192">
        <ele>1160</ele>
        <time>2015-05-08T08:12:21Z</time>
      </trkpt>
      <trkpt lat="43.71566" lon="6.71933">
        <ele>1160</ele>
        <time>2015-05-08T08:12:27Z</time>
      </trkpt>
      <trkpt lat="43.71568" lon="6.71946">
        <ele>1161</ele>
        <time>2015-05-08T08:12:33Z</time>
      </trkpt>
      <trkpt lat="43.7157" lon="6.71959">
        <ele>1162</ele>
        <time>2015-05-08T08:12:39Z</time>
      </trkpt>
      <trkpt lat="43.71573" lon="6.71968">
        <ele>1162</ele>
        <time>2015-05-08T08:12:44Z</time>
      </trkpt>
      <trkpt lat="43.71576" lon="6.71981">
        <ele>1163</ele>
        <time>2015-05-08T08:12:50Z</time>
      </trkpt>
      <trkpt lat="43.71579" lon="6.71993">
        <ele>1165</ele>
        <time>2015-05-08T08:12:56Z</time>
      </trkpt>
      <trkpt lat="43.71583" lon="6.72005">
        <ele>1167</ele>
        <time>2015-05-08T08:13:02Z</time>
      </trkpt>
      <trkpt lat="43.71587" lon="6.72017">
        <ele>1169</ele>
        <time>2015-05-08T08:13:08Z</time>
      </trkpt>
      <trkpt lat="43.71591" lon="6.72029">
        <ele>1170</ele>
        <time>2015-05-08T08:13:14Z</time>
      </trkpt>
      <trkpt lat="43.71594" lon="6.7204">
        <ele>1171</ele>
        <time>2015-05-08T08:13:20Z</time>
      </trkpt>
      <trkpt lat="43.71598" lon="6.72053">
        <ele>1172</ele>
        <time>2015-05-08T08:13:27Z</time>
      </trkpt>
      <trkpt lat="43.716" lon="6.72065">
        <ele>1173</ele>
        <time>2015-05-08T08:13:33Z</time>
      </trkpt>
      <trkpt lat="43.71606" lon="6.72074">
        <ele>1174</ele>
        <time>2015-05-08T08:13:39Z</time>
      </trkpt>
      <trkpt lat="43.71615" lon="6.72078">
        <ele>1173</ele>
        <time>2015-05-08T08:13:46Z</time>
      </trkpt>
      <trkpt lat="43.71621" lon="6.72078">
        <ele>1173</ele>
        <time>2015-05-08T08:13:51Z</time>
      </trkpt>
      <trkpt lat="43.71629" lon="6.72079">
        <ele>1174</ele>
        <time>2015-05-08T08:13:57Z</time>
      </trkpt>
      <trkpt lat="43.71639" lon="6.7208">
        <ele>1174</ele>
        <time>2015-05-08T08:14:03Z</time>
      </trkpt>
      <trkpt lat="43.7165" lon="6.72079">
        <ele>1175</ele>
        <time>2015-05-08T08:14:09Z</time>
      </trkpt>
      <trkpt lat="43.71659" lon="6.72082">
        <ele>1176</ele>
        <time>2015-05-08T08:14:15Z</time>
      </trkpt>
      <trkpt lat="43.71668" lon="6.72089">
        <ele>1178</ele>
        <time>2015-05-08T08:14:22Z</time>
      </trkpt>
      <trkpt lat="43.71673" lon="6.72095">
        <ele>1179</ele>
        <time>2015-05-08T08:14:28Z</time>
      </trkpt>
      <trkpt lat="43.71679" lon="6.72099">
        <ele>1179</ele>
        <time>2015-05-08T08:14:33Z</time>
      </trkpt>
      <trkpt lat="43.71684" lon="6.72104">
        <ele>1179</ele>
        <time>2015-05-08T08:14:38Z</time>
      </trkpt>
      <trkpt lat="43.71692" lon="6.72113">
        <ele>1180</ele>
        <time>2015-05-08T08:14:44Z</time>
      </trkpt>
      <trkpt lat="43.71697" lon="6.72119">
        <ele>1180</ele>
        <time>2015-05-08T08:14:50Z</time>
      </trkpt>
      <trkpt lat="43.71703" lon="6.72125">
        <ele>1180</ele>
        <time>2015-05-08T08:14:56Z</time>
      </trkpt>
      <trkpt lat="43.71709" lon="6.72129">
        <ele>1180</ele>
        <time>2015-05-08T08:15:02Z</time>
      </trkpt>
      <trkpt lat="43.71712" lon="6.72131">
        <ele>1180</ele>
        <time>2015-05-08T08:15:07Z</time>
      </trkpt>
      <trkpt lat="43.71719" lon="6.72137">
        <ele>1180</ele>
        <time>2015-05-08T08:15:12Z</time>
      </trkpt>
      <trkpt lat="43.71725" lon="6.72148">
        <ele>1181</ele>
        <time>2015-05-08T08:15:18Z</time>
      </trkpt>
      <trkpt lat="43.71728" lon="6.72156">
        <ele>1181</ele>
        <time>2015-05-08T08:15:23Z</time>
      </trkpt>
      <trkpt lat="43.7173" lon="6.72165">
        <ele>1182</ele>
        <time>2015-05-08T08:15:28Z</time>
      </trkpt>
      <trkpt lat="43.71734" lon="6.72174">
        <ele>1187</ele>
        <time>2015-05-08T08:15:34Z</time>
      </trkpt>
      <trkpt lat="43.71738" lon="6.72182">
        <ele>1187</ele>
        <time>2015-05-08T08:15:39Z</time>
      </trkpt>
      <trkpt lat="43.71744" lon="6.72191">
        <ele>1188</ele>
        <time>2015-05-08T08:15:46Z</time>
      </trkpt>
      <trkpt lat="43.71746" lon="6.72203">
        <ele>1190</ele>
        <time>2015-05-08T08:15:52Z</time>
      </trkpt>
      <trkpt lat="43.7175" lon="6.72212">
        <ele>1190</ele>
        <time>2015-05-08T08:15:57Z</time>
      </trkpt>
      <trkpt lat="43.71753" lon="6.7222">
        <ele>1190</ele>
        <time>2015-05-08T08:16:02Z</time>
      </trkpt>
      <trkpt lat="43.71756" lon="6.72229">
        <ele>1191</ele>
        <time>2015-05-08T08:16:07Z</time>
      </trkpt>
      <trkpt lat="43.7176" lon="6.7224">
        <ele>1192</ele>
        <time>2015-05-08T08:16:13Z</time>
      </trkpt>
      <trkpt lat="43.71764" lon="6.72249">
        <ele>1192</ele>
        <time>2015-05-08T08:16:18Z</time>
      </trkpt>
      <trkpt lat="43.71767" lon="6.72262">
        <ele>1198</ele>
        <time>2015-05-08T08:16:24Z</time>
      </trkpt>
      <trkpt lat="43.71769" lon="6.72271">
        <ele>1199</ele>
        <time>2015-05-08T08:16:29Z</time>
      </trkpt>
      <trkpt lat="43.71773" lon="6.72284">
        <ele>1201</ele>
        <time>2015-05-08T08:16:35Z</time>
      </trkpt>
      <trkpt lat="43.71775" lon="6.72293">
        <ele>1201</ele>
        <time>2015-05-08T08:16:40Z</time>
      </trkpt>
      <trkpt lat="43.7178" lon="6.72306">
        <ele>1202</ele>
        <time>2015-05-08T08:16:46Z</time>
      </trkpt>
      <trkpt lat="43.71785" lon="6.72319">
        <ele>1203</ele>
        <time>2015-05-08T08:16:52Z</time>
      </trkpt>
      <trkpt lat="43.71787" lon="6.72327">
        <ele>1203</ele>
        <time>2015-05-08T08:17:10Z</time>
      </trkpt>
      <trkpt lat="43.71793" lon="6.72335">
        <ele>1212</ele>
        <time>2015-05-08T08:17:15Z</time>
      </trkpt>
      <trkpt lat="43.71804" lon="6.72341">
        <ele>1212</ele>
        <time>2015-05-08T08:17:21Z</time>
      </trkpt>
      <trkpt lat="43.71818" lon="6.72341">
        <ele>1211</ele>
        <time>2015-05-08T08:17:30Z</time>
      </trkpt>
      <trkpt lat="43.71827" lon="6.72337">
        <ele>1210</ele>
        <time>2015-05-08T08:17:36Z</time>
      </trkpt>
      <trkpt lat="43.71836" lon="6.72332">
        <ele>1208</ele>
        <time>2015-05-08T08:17:42Z</time>
      </trkpt>
      <trkpt lat="43.71841" lon="6.72326">
        <ele>1209</ele>
        <time>2015-05-08T08:17:47Z</time>
      </trkpt>
      <trkpt lat="43.7185" lon="6.72318">
        <ele>1210</ele>
        <time>2015-05-08T08:17:53Z</time>
      </trkpt>
      <trkpt lat="43.71859" lon="6.72307">
        <ele>1210</ele>
        <time>2015-05-08T08:17:59Z</time>
      </trkpt>
      <trkpt lat="43.71863" lon="6.72295">
        <ele>1210</ele>
        <time>2015-05-08T08:18:06Z</time>
      </trkpt>
      <trkpt lat="43.71867" lon="6.72283">
        <ele>1209</ele>
        <time>2015-05-08T08:18:13Z</time>
      </trkpt>
      <trkpt lat="43.71873" lon="6.72272">
        <ele>1209</ele>
        <time>2015-05-08T08:18:19Z</time>
      </trkpt>
      <trkpt lat="43.71879" lon="6.72261">
        <ele>1209</ele>
        <time>2015-05-08T08:18:26Z</time>
      </trkpt>
      <trkpt lat="43.71885" lon="6.72254">
        <ele>1209</ele>
        <time>2015-05-08T08:18:29Z</time>
      </trkpt>
      <trkpt lat="43.71892" lon="6.72242">
        <ele>1202</ele>
        <time>2015-05-08T08:18:34Z</time>
      </trkpt>
      <trkpt lat="43.71896" lon="6.7224">
        <ele>1202</ele>
        <time>2015-05-08T08:18:36Z</time>
      </trkpt>
      <trkpt lat="43.71902" lon="6.72236">
        <ele>1203</ele>
        <time>2015-05-08T08:18:41Z</time>
      </trkpt>
      <trkpt lat="43.71911" lon="6.72232">
        <ele>1203</ele>
        <time>2015-05-08T08:18:48Z</time>
      </trkpt>
      <trkpt lat="43.71921" lon="6.72225">
        <ele>1213</ele>
        <time>2015-05-08T08:18:55Z</time>
      </trkpt>
      <trkpt lat="43.71928" lon="6.7222">
        <ele>1213</ele>
        <time>2015-05-08T08:19:00Z</time>
      </trkpt>
      <trkpt lat="43.71937" lon="6.72214">
        <ele>1213</ele>
        <time>2015-05-08T08:19:07Z</time>
      </trkpt>
      <trkpt lat="43.71942" lon="6.72206">
        <ele>1213</ele>
        <time>2015-05-08T08:19:13Z</time>
      </trkpt>
      <trkpt lat="43.71945" lon="6.72204">
        <ele>1213</ele>
        <time>2015-05-08T08:19:15Z</time>
      </trkpt>
      <trkpt lat="43.71954" lon="6.72197">
        <ele>1213</ele>
        <time>2015-05-08T08:19:20Z</time>
      </trkpt>
      <trkpt lat="43.71958" lon="6.72196">
        <ele>1214</ele>
        <time>2015-05-08T08:19:22Z</time>
      </trkpt>
      <trkpt lat="43.71964" lon="6.72205">
        <ele>1215</ele>
        <time>2015-05-08T08:19:29Z</time>
      </trkpt>
      <trkpt lat="43.7196" lon="6.72213">
        <ele>1216</ele>
        <time>2015-05-08T08:19:34Z</time>
      </trkpt>
      <trkpt lat="43.71953" lon="6.72219">
        <ele>1215</ele>
        <time>2015-05-08T08:19:39Z</time>
      </trkpt>
      <trkpt lat="43.71947" lon="6.72228">
        <ele>1215</ele>
        <time>2015-05-08T08:19:44Z</time>
      </trkpt>
      <trkpt lat="43.71939" lon="6.72238">
        <ele>1215</ele>
        <time>2015-05-08T08:19:49Z</time>
      </trkpt>
      <trkpt lat="43.71932" lon="6.72252">
        <ele>1220</ele>
        <time>2015-05-08T08:19:55Z</time>
      </trkpt>
      <trkpt lat="43.71927" lon="6.72261">
        <ele>1220</ele>
        <time>2015-05-08T08:20:00Z</time>
      </trkpt>
      <trkpt lat="43.71921" lon="6.72271">
        <ele>1222</ele>
        <time>2015-05-08T08:20:06Z</time>
      </trkpt>
      <trkpt lat="43.71916" lon="6.72284">
        <ele>1213</ele>
        <time>2015-05-08T08:20:12Z</time>
      </trkpt>
      <trkpt lat="43.71912" lon="6.72296">
        <ele>1214</ele>
        <time>2015-05-08T08:20:18Z</time>
      </trkpt>
      <trkpt lat="43.71909" lon="6.72309">
        <ele>1217</ele>
        <time>2015-05-08T08:20:25Z</time>
      </trkpt>
      <trkpt lat="43.71905" lon="6.72316">
        <ele>1218</ele>
        <time>2015-05-08T08:20:30Z</time>
      </trkpt>
      <trkpt lat="43.71902" lon="6.72328">
        <ele>1219</ele>
        <time>2015-05-08T08:20:36Z</time>
      </trkpt>
      <trkpt lat="43.71899" lon="6.72338">
        <ele>1226</ele>
        <time>2015-05-08T08:20:42Z</time>
      </trkpt>
      <trkpt lat="43.71897" lon="6.72347">
        <ele>1226</ele>
        <time>2015-05-08T08:20:47Z</time>
      </trkpt>
      <trkpt lat="43.71894" lon="6.72356">
        <ele>1226</ele>
        <time>2015-05-08T08:20:53Z</time>
      </trkpt>
      <trkpt lat="43.7189" lon="6.72365">
        <ele>1226</ele>
        <time>2015-05-08T08:20:58Z</time>
      </trkpt>
      <trkpt lat="43.71887" lon="6.72371">
        <ele>1226</ele>
        <time>2015-05-08T08:21:03Z</time>
      </trkpt>
      <trkpt lat="43.71881" lon="6.72383">
        <ele>1227</ele>
        <time>2015-05-08T08:21:09Z</time>
      </trkpt>
      <trkpt lat="43.71878" lon="6.72392">
        <ele>1227</ele>
        <time>2015-05-08T08:21:14Z</time>
      </trkpt>
      <trkpt lat="43.71875" lon="6.724">
        <ele>1227</ele>
        <time>2015-05-08T08:21:19Z</time>
      </trkpt>
      <trkpt lat="43.71873" lon="6.72414">
        <ele>1228</ele>
        <time>2015-05-08T08:21:25Z</time>
      </trkpt>
      <trkpt lat="43.71869" lon="6.72426">
        <ele>1238</ele>
        <time>2015-05-08T08:21:30Z</time>
      </trkpt>
      <trkpt lat="43.71867" lon="6.72429">
        <ele>1238</ele>
        <time>2015-05-08T08:21:32Z</time>
      </trkpt>
      <trkpt lat="43.71862" lon="6.72436">
        <ele>1238</ele>
        <time>2015-05-08T08:21:38Z</time>
      </trkpt>
      <trkpt lat="43.71858" lon="6.72444">
        <ele>1238</ele>
        <time>2015-05-08T08:21:44Z</time>
      </trkpt>
      <trkpt lat="43.71852" lon="6.72454">
        <ele>1239</ele>
        <time>2015-05-08T08:21:50Z</time>
      </trkpt>
      <trkpt lat="43.71849" lon="6.72461">
        <ele>1240</ele>
        <time>2015-05-08T08:21:55Z</time>
      </trkpt>
      <trkpt lat="43.71845" lon="6.72469">
        <ele>1241</ele>
        <time>2015-05-08T08:22:02Z</time>
      </trkpt>
      <trkpt lat="43.71842" lon="6.7247">
        <ele>1241</ele>
        <time>2015-05-08T08:22:04Z</time>
      </trkpt>
      <trkpt lat="43.71836" lon="6.72481">
        <ele>1242</ele>
        <time>2015-05-08T08:22:10Z</time>
      </trkpt>
      <trkpt lat="43.71832" lon="6.72488">
        <ele>1238</ele>
        <time>2015-05-08T08:22:15Z</time>
      </trkpt>
      <trkpt lat="43.71827" lon="6.72493">
        <ele>1239</ele>
        <time>2015-05-08T08:22:25Z</time>
      </trkpt>
      <trkpt lat="43.71818" lon="6.72502">
        <ele>1245</ele>
        <time>2015-05-08T08:22:41Z</time>
      </trkpt>
      <trkpt lat="43.71808" lon="6.72518">
        <ele>1246</ele>
        <time>2015-05-08T08:22:43Z</time>
      </trkpt>
      <trkpt lat="43.71796" lon="6.72526">
        <ele>1246</ele>
        <time>2015-05-08T08:22:49Z</time>
      </trkpt>
      <trkpt lat="43.71792" lon="6.7253">
        <ele>1246</ele>
        <time>2015-05-08T08:22:52Z</time>
      </trkpt>
      <trkpt lat="43.71788" lon="6.72538">
        <ele>1247</ele>
        <time>2015-05-08T08:22:57Z</time>
      </trkpt>
      <trkpt lat="43.71786" lon="6.72547">
        <ele>1247</ele>
        <time>2015-05-08T08:23:02Z</time>
      </trkpt>
      <trkpt lat="43.71785" lon="6.72559">
        <ele>1248</ele>
        <time>2015-05-08T08:23:09Z</time>
      </trkpt>
      <trkpt lat="43.71785" lon="6.72574">
        <ele>1249</ele>
        <time>2015-05-08T08:23:16Z</time>
      </trkpt>
      <trkpt lat="43.71781" lon="6.72582">
        <ele>1249</ele>
        <time>2015-05-08T08:23:22Z</time>
      </trkpt>
      <trkpt lat="43.7178" lon="6.72593">
        <ele>1257</ele>
        <time>2015-05-08T08:23:29Z</time>
      </trkpt>
      <trkpt lat="43.71776" lon="6.72601">
        <ele>1258</ele>
        <time>2015-05-08T08:23:35Z</time>
      </trkpt>
      <trkpt lat="43.71777" lon="6.72611">
        <ele>1258</ele>
        <time>2015-05-08T08:23:40Z</time>
      </trkpt>
      <trkpt lat="43.71775" lon="6.72621">
        <ele>1259</ele>
        <time>2015-05-08T08:23:45Z</time>
      </trkpt>
      <trkpt lat="43.71775" lon="6.7263">
        <ele>1260</ele>
        <time>2015-05-08T08:23:50Z</time>
      </trkpt>
      <trkpt lat="43.71776" lon="6.72635">
        <ele>1260</ele>
        <time>2015-05-08T08:23:52Z</time>
      </trkpt>
      <trkpt lat="43.71778" lon="6.72645">
        <ele>1261</ele>
        <time>2015-05-08T08:23:57Z</time>
      </trkpt>
      <trkpt lat="43.7178" lon="6.72658">
        <ele>1261</ele>
        <time>2015-05-08T08:24:04Z</time>
      </trkpt>
      <trkpt lat="43.71776" lon="6.72671">
        <ele>1266</ele>
        <time>2015-05-08T08:24:10Z</time>
      </trkpt>
      <trkpt lat="43.71767" lon="6.72679">
        <ele>1265</ele>
        <time>2015-05-08T08:24:17Z</time>
      </trkpt>
      <trkpt lat="43.71757" lon="6.72684">
        <ele>1265</ele>
        <time>2015-05-08T08:24:23Z</time>
      </trkpt>
      <trkpt lat="43.71749" lon="6.72693">
        <ele>1260</ele>
        <time>2015-05-08T08:24:30Z</time>
      </trkpt>
      <trkpt lat="43.71746" lon="6.72707">
        <ele>1260</ele>
        <time>2015-05-08T08:24:36Z</time>
      </trkpt>
      <trkpt lat="43.71744" lon="6.72722">
        <ele>1261</ele>
        <time>2015-05-08T08:24:42Z</time>
      </trkpt>
      <trkpt lat="43.71743" lon="6.72728">
        <ele>1262</ele>
        <time>2015-05-08T08:24:45Z</time>
      </trkpt>
      <trkpt lat="43.71743" lon="6.72733">
        <ele>1263</ele>
        <time>2015-05-08T08:24:47Z</time>
      </trkpt>
      <trkpt lat="43.71743" lon="6.72738">
        <ele>1263</ele>
        <time>2015-05-08T08:24:49Z</time>
      </trkpt>
      <trkpt lat="43.71744" lon="6.72745">
        <ele>1265</ele>
        <time>2015-05-08T08:24:51Z</time>
      </trkpt>
      <trkpt lat="43.71744" lon="6.72758">
        <ele>1265</ele>
        <time>2015-05-08T08:24:58Z</time>
      </trkpt>
      <trkpt lat="43.71744" lon="6.72772">
        <ele>1264</ele>
        <time>2015-05-08T08:25:04Z</time>
      </trkpt>
      <trkpt lat="43.71744" lon="6.72781">
        <ele>1264</ele>
        <time>2015-05-08T08:25:09Z</time>
      </trkpt>
      <trkpt lat="43.71744" lon="6.72798">
        <ele>1264</ele>
        <time>2015-05-08T08:25:15Z</time>
      </trkpt>
      <trkpt lat="43.71742" lon="6.72813">
        <ele>1266</ele>
        <time>2015-05-08T08:25:21Z</time>
      </trkpt>
      <trkpt lat="43.71741" lon="6.72824">
        <ele>1267</ele>
        <time>2015-05-08T08:25:26Z</time>
      </trkpt>
      <trkpt lat="43.71738" lon="6.72842">
        <ele>1268</ele>
        <time>2015-05-08T08:25:32Z</time>
      </trkpt>
      <trkpt lat="43.71736" lon="6.72856">
        <ele>1267</ele>
        <time>2015-05-08T08:25:38Z</time>
      </trkpt>
      <trkpt lat="43.71734" lon="6.72874">
        <ele>1267</ele>
        <time>2015-05-08T08:25:44Z</time>
      </trkpt>
      <trkpt lat="43.71736" lon="6.7289">
        <ele>1268</ele>
        <time>2015-05-08T08:25:50Z</time>
      </trkpt>
      <trkpt lat="43.71738" lon="6.72907">
        <ele>1270</ele>
        <time>2015-05-08T08:25:57Z</time>
      </trkpt>
      <trkpt lat="43.7174" lon="6.7292">
        <ele>1272</ele>
        <time>2015-05-08T08:26:03Z</time>
      </trkpt>
      <trkpt lat="43.71741" lon="6.72935">
        <ele>1271</ele>
        <time>2015-05-08T08:26:09Z</time>
      </trkpt>
      <trkpt lat="43.71742" lon="6.72949">
        <ele>1270</ele>
        <time>2015-05-08T08:26:14Z</time>
      </trkpt>
      <trkpt lat="43.71743" lon="6.72966">
        <ele>1270</ele>
        <time>2015-05-08T08:26:20Z</time>
      </trkpt>
      <trkpt lat="43.71746" lon="6.72979">
        <ele>1272</ele>
        <time>2015-05-08T08:26:25Z</time>
      </trkpt>
      <trkpt lat="43.71748" lon="6.72994">
        <ele>1275</ele>
        <time>2015-05-08T08:26:31Z</time>
      </trkpt>
      <trkpt lat="43.71749" lon="6.73004">
        <ele>1276</ele>
        <time>2015-05-08T08:26:36Z</time>
      </trkpt>
      <trkpt lat="43.71756" lon="6.7302">
        <ele>1281</ele>
        <time>2015-05-08T08:26:42Z</time>
      </trkpt>
      <trkpt lat="43.71761" lon="6.73031">
        <ele>1282</ele>
        <time>2015-05-08T08:26:48Z</time>
      </trkpt>
      <trkpt lat="43.71766" lon="6.73045">
        <ele>1282</ele>
        <time>2015-05-08T08:26:54Z</time>
      </trkpt>
      <trkpt lat="43.71768" lon="6.73049">
        <ele>1282</ele>
        <time>2015-05-08T08:26:56Z</time>
      </trkpt>
      <trkpt lat="43.71772" lon="6.73065">
        <ele>1282</ele>
        <time>2015-05-08T08:27:02Z</time>
      </trkpt>
      <trkpt lat="43.71775" lon="6.7308">
        <ele>1282</ele>
        <time>2015-05-08T08:27:08Z</time>
      </trkpt>
      <trkpt lat="43.71776" lon="6.73093">
        <ele>1281</ele>
        <time>2015-05-08T08:27:13Z</time>
      </trkpt>
      <trkpt lat="43.71778" lon="6.73111">
        <ele>1282</ele>
        <time>2015-05-08T08:27:19Z</time>
      </trkpt>
      <trkpt lat="43.71781" lon="6.73128">
        <ele>1282</ele>
        <time>2015-05-08T08:27:25Z</time>
      </trkpt>
      <trkpt lat="43.71785" lon="6.73142">
        <ele>1282</ele>
        <time>2015-05-08T08:27:31Z</time>
      </trkpt>
      <trkpt lat="43.7179" lon="6.73156">
        <ele>1282</ele>
        <time>2015-05-08T08:27:37Z</time>
      </trkpt>
      <trkpt lat="43.71794" lon="6.73163">
        <ele>1283</ele>
        <time>2015-05-08T08:27:42Z</time>
      </trkpt>
      <trkpt lat="43.71796" lon="6.73167">
        <ele>1282</ele>
        <time>2015-05-08T08:27:48Z</time>
      </trkpt>
      <trkpt lat="43.71798" lon="6.73171">
        <ele>1282</ele>
        <time>2015-05-08T08:28:07Z</time>
      </trkpt>
      <trkpt lat="43.71801" lon="6.73178">
        <ele>1283</ele>
        <time>2015-05-08T08:28:23Z</time>
      </trkpt>
      <trkpt lat="43.71802" lon="6.73173">
        <ele>1283</ele>
        <time>2015-05-08T08:28:48Z</time>
      </trkpt>
      <trkpt lat="43.718" lon="6.73171">
        <ele>1283</ele>
        <time>2015-05-08T08:30:51Z</time>
      </trkpt>
      <trkpt lat="43.71797" lon="6.7317">
        <ele>1282</ele>
        <time>2015-05-08T08:34:12Z</time>
      </trkpt>
      <trkpt lat="43.71795" lon="6.73167">
        <ele>1282</ele>
        <time>2015-05-08T08:34:22Z</time>
      </trkpt>
      <trkpt lat="43.71797" lon="6.7317">
        <ele>1282</ele>
        <time>2015-05-08T08:36:23Z</time>
      </trkpt>
      <trkpt lat="43.71799" lon="6.73172">
        <ele>1283</ele>
        <time>2015-05-08T08:39:29Z</time>
      </trkpt>
      <trkpt lat="43.71797" lon="6.73168">
        <ele>1282</ele>
        <time>2015-05-08T08:39:41Z</time>
      </trkpt>
      <trkpt lat="43.71793" lon="6.73166">
        <ele>1283</ele>
        <time>2015-05-08T08:39:48Z</time>
      </trkpt>
      <trkpt lat="43.71788" lon="6.73175">
        <ele>1281</ele>
        <time>2015-05-08T08:39:54Z</time>
      </trkpt>
      <trkpt lat="43.71772" lon="6.73174">
        <ele>1279</ele>
        <time>2015-05-08T08:39:59Z</time>
      </trkpt>
      <trkpt lat="43.71757" lon="6.73159">
        <ele>1277</ele>
        <time>2015-05-08T08:40:04Z</time>
      </trkpt>
      <trkpt lat="43.71742" lon="6.73142">
        <ele>1269</ele>
        <time>2015-05-08T08:40:09Z</time>
      </trkpt>
      <trkpt lat="43.71731" lon="6.73117">
        <ele>1268</ele>
        <time>2015-05-08T08:40:14Z</time>
      </trkpt>
      <trkpt lat="43.71721" lon="6.73098">
        <ele>1268</ele>
        <time>2015-05-08T08:40:19Z</time>
      </trkpt>
      <trkpt lat="43.71702" lon="6.73091">
        <ele>1265</ele>
        <time>2015-05-08T08:40:24Z</time>
      </trkpt>
      <trkpt lat="43.71689" lon="6.73079">
        <ele>1264</ele>
        <time>2015-05-08T08:40:29Z</time>
      </trkpt>
      <trkpt lat="43.71676" lon="6.73068">
        <ele>1263</ele>
        <time>2015-05-08T08:40:34Z</time>
      </trkpt>
      <trkpt lat="43.71658" lon="6.73054">
        <ele>1253</ele>
        <time>2015-05-08T08:40:39Z</time>
      </trkpt>
      <trkpt lat="43.71632" lon="6.73037">
        <ele>1250</ele>
        <time>2015-05-08T08:40:44Z</time>
      </trkpt>
      <trkpt lat="43.71608" lon="6.73014">
        <ele>1248</ele>
        <time>2015-05-08T08:40:49Z</time>
      </trkpt>
      <trkpt lat="43.71587" lon="6.72993">
        <ele>1245</ele>
        <time>2015-05-08T08:40:54Z</time>
      </trkpt>
      <trkpt lat="43.71569" lon="6.72985">
        <ele>1237</ele>
        <time>2015-05-08T08:40:59Z</time>
      </trkpt>
      <trkpt lat="43.7156" lon="6.72961">
        <ele>1235</ele>
        <time>2015-05-08T08:41:04Z</time>
      </trkpt>
      <trkpt lat="43.71559" lon="6.72957">
        <ele>1235</ele>
        <time>2015-05-08T08:41:41Z</time>
      </trkpt>
      <trkpt lat="43.71558" lon="6.72941">
        <ele>1234</ele>
        <time>2015-05-08T08:41:47Z</time>
      </trkpt>
      <trkpt lat="43.71557" lon="6.72925">
        <ele>1235</ele>
        <time>2015-05-08T08:41:52Z</time>
      </trkpt>
      <trkpt lat="43.71551" lon="6.72906">
        <ele>1231</ele>
        <time>2015-05-08T08:41:57Z</time>
      </trkpt>
      <trkpt lat="43.71537" lon="6.72878">
        <ele>1228</ele>
        <time>2015-05-08T08:42:02Z</time>
      </trkpt>
      <trkpt lat="43.71519" lon="6.72856">
        <ele>1225</ele>
        <time>2015-05-08T08:42:07Z</time>
      </trkpt>
      <trkpt lat="43.71505" lon="6.72832">
        <ele>1219</ele>
        <time>2015-05-08T08:42:12Z</time>
      </trkpt>
      <trkpt lat="43.71492" lon="6.72823">
        <ele>1212</ele>
        <time>2015-05-08T08:42:17Z</time>
      </trkpt>
      <trkpt lat="43.71472" lon="6.72818">
        <ele>1208</ele>
        <time>2015-05-08T08:42:22Z</time>
      </trkpt>
      <trkpt lat="43.71462" lon="6.72799">
        <ele>1205</ele>
        <time>2015-05-08T08:42:26Z</time>
      </trkpt>
      <trkpt lat="43.71445" lon="6.72778">
        <ele>1203</ele>
        <time>2015-05-08T08:42:31Z</time>
      </trkpt>
      <trkpt lat="43.71435" lon="6.72753">
        <ele>1199</ele>
        <time>2015-05-08T08:42:36Z</time>
      </trkpt>
      <trkpt lat="43.71429" lon="6.72742">
        <ele>1196</ele>
        <time>2015-05-08T08:42:38Z</time>
      </trkpt>
      <trkpt lat="43.71421" lon="6.72726">
        <ele>1196</ele>
        <time>2015-05-08T08:42:41Z</time>
      </trkpt>
      <trkpt lat="43.71407" lon="6.72696">
        <ele>1182</ele>
        <time>2015-05-08T08:42:46Z</time>
      </trkpt>
      <trkpt lat="43.71393" lon="6.7267">
        <ele>1181</ele>
        <time>2015-05-08T08:42:51Z</time>
      </trkpt>
      <trkpt lat="43.71393" lon="6.72664">
        <ele>1178</ele>
        <time>2015-05-08T08:42:52Z</time>
      </trkpt>
      <trkpt lat="43.71381" lon="6.72639">
        <ele>1175</ele>
        <time>2015-05-08T08:42:57Z</time>
      </trkpt>
      <trkpt lat="43.71375" lon="6.72618">
        <ele>1173</ele>
        <time>2015-05-08T08:43:01Z</time>
      </trkpt>
      <trkpt lat="43.71365" lon="6.7259">
        <ele>1171</ele>
        <time>2015-05-08T08:43:06Z</time>
      </trkpt>
      <trkpt lat="43.71366" lon="6.72583">
        <ele>1168</ele>
        <time>2015-05-08T08:43:07Z</time>
      </trkpt>
      <trkpt lat="43.71357" lon="6.72555">
        <ele>1167</ele>
        <time>2015-05-08T08:43:11Z</time>
      </trkpt>
      <trkpt lat="43.71338" lon="6.72529">
        <ele>1165</ele>
        <time>2015-05-08T08:43:16Z</time>
      </trkpt>
      <trkpt lat="43.71321" lon="6.72515">
        <ele>1155</ele>
        <time>2015-05-08T08:43:20Z</time>
      </trkpt>
      <trkpt lat="43.71297" lon="6.72503">
        <ele>1153</ele>
        <time>2015-05-08T08:43:25Z</time>
      </trkpt>
      <trkpt lat="43.71283" lon="6.72502">
        <ele>1151</ele>
        <time>2015-05-08T08:43:27Z</time>
      </trkpt>
      <trkpt lat="43.71265" lon="6.72493">
        <ele>1147</ele>
        <time>2015-05-08T08:43:30Z</time>
      </trkpt>
      <trkpt lat="43.71244" lon="6.72477">
        <ele>1141</ele>
        <time>2015-05-08T08:43:35Z</time>
      </trkpt>
      <trkpt lat="43.71218" lon="6.72476">
        <ele>1139</ele>
        <time>2015-05-08T08:43:40Z</time>
      </trkpt>
      <trkpt lat="43.71198" lon="6.72478">
        <ele>1138</ele>
        <time>2015-05-08T08:43:46Z</time>
      </trkpt>
      <trkpt lat="43.71183" lon="6.72482">
        <ele>1137</ele>
        <time>2015-05-08T08:43:52Z</time>
      </trkpt>
      <trkpt lat="43.71172" lon="6.72485">
        <ele>1136</ele>
        <time>2015-05-08T08:44:42Z</time>
      </trkpt>
      <trkpt lat="43.71166" lon="6.72483">
        <ele>1132</ele>
        <time>2015-05-08T08:44:59Z</time>
      </trkpt>
      <trkpt lat="43.71168" lon="6.72483">
        <ele>1136</ele>
        <time>2015-05-08T08:45:05Z</time>
      </trkpt>
      <trkpt lat="43.71171" lon="6.72484">
        <ele>1136</ele>
        <time>2015-05-08T08:45:17Z</time>
      </trkpt>
      <trkpt lat="43.71168" lon="6.72482">
        <ele>1136</ele>
        <time>2015-05-08T08:45:50Z</time>
      </trkpt>
      <trkpt lat="43.71157" lon="6.72483">
        <ele>1132</ele>
        <time>2015-05-08T08:45:55Z</time>
      </trkpt>
      <trkpt lat="43.71131" lon="6.72485">
        <ele>1130</ele>
        <time>2015-05-08T08:46:00Z</time>
      </trkpt>
      <trkpt lat="43.71097" lon="6.72493">
        <ele>1127</ele>
        <time>2015-05-08T08:46:05Z</time>
      </trkpt>
      <trkpt lat="43.71061" lon="6.72506">
        <ele>1121</ele>
        <time>2015-05-08T08:46:10Z</time>
      </trkpt>
      <trkpt lat="43.71028" lon="6.72516">
        <ele>1118</ele>
        <time>2015-05-08T08:46:15Z</time>
      </trkpt>
      <trkpt lat="43.71002" lon="6.7253">
        <ele>1117</ele>
        <time>2015-05-08T08:46:20Z</time>
      </trkpt>
      <trkpt lat="43.70976" lon="6.72545">
        <ele>1109</ele>
        <time>2015-05-08T08:46:25Z</time>
      </trkpt>
      <trkpt lat="43.70954" lon="6.7256">
        <ele>1107</ele>
        <time>2015-05-08T08:46:30Z</time>
      </trkpt>
      <trkpt lat="43.70932" lon="6.7258">
        <ele>1105</ele>
        <time>2015-05-08T08:46:35Z</time>
      </trkpt>
      <trkpt lat="43.70909" lon="6.72597">
        <ele>1098</ele>
        <time>2015-05-08T08:46:40Z</time>
      </trkpt>
      <trkpt lat="43.70889" lon="6.72601">
        <ele>1095</ele>
        <time>2015-05-08T08:46:45Z</time>
      </trkpt>
      <trkpt lat="43.70868" lon="6.72608">
        <ele>1092</ele>
        <time>2015-05-08T08:46:50Z</time>
      </trkpt>
      <trkpt lat="43.70848" lon="6.72612">
        <ele>1090</ele>
        <time>2015-05-08T08:46:55Z</time>
      </trkpt>
      <trkpt lat="43.70828" lon="6.72612">
        <ele>1079</ele>
        <time>2015-05-08T08:47:00Z</time>
      </trkpt>
      <trkpt lat="43.70808" lon="6.72609">
        <ele>1077</ele>
        <time>2015-05-08T08:47:05Z</time>
      </trkpt>
      <trkpt lat="43.70788" lon="6.72608">
        <ele>1075</ele>
        <time>2015-05-08T08:47:10Z</time>
      </trkpt>
      <trkpt lat="43.70768" lon="6.726">
        <ele>1071</ele>
        <time>2015-05-08T08:47:15Z</time>
      </trkpt>
      <trkpt lat="43.70748" lon="6.72594">
        <ele>1060</ele>
        <time>2015-05-08T08:47:20Z</time>
      </trkpt>
      <trkpt lat="43.70727" lon="6.72606">
        <ele>1057</ele>
        <time>2015-05-08T08:47:25Z</time>
      </trkpt>
      <trkpt lat="43.70704" lon="6.72608">
        <ele>1054</ele>
        <time>2015-05-08T08:47:30Z</time>
      </trkpt>
      <trkpt lat="43.7069" lon="6.72608">
        <ele>1051</ele>
        <time>2015-05-08T08:47:33Z</time>
      </trkpt>
      <trkpt lat="43.70667" lon="6.72606">
        <ele>1049</ele>
        <time>2015-05-08T08:47:38Z</time>
      </trkpt>
      <trkpt lat="43.70648" lon="6.72607">
        <ele>1036</ele>
        <time>2015-05-08T08:47:43Z</time>
      </trkpt>
      <trkpt lat="43.70627" lon="6.72612">
        <ele>1034</ele>
        <time>2015-05-08T08:47:48Z</time>
      </trkpt>
      <trkpt lat="43.70605" lon="6.72609">
        <ele>1031</ele>
        <time>2015-05-08T08:47:53Z</time>
      </trkpt>
      <trkpt lat="43.70583" lon="6.72606">
        <ele>1019</ele>
        <time>2015-05-08T08:47:58Z</time>
      </trkpt>
      <trkpt lat="43.70568" lon="6.72613">
        <ele>1017</ele>
        <time>2015-05-08T08:48:03Z</time>
      </trkpt>
      <trkpt lat="43.70565" lon="6.72616">
        <ele>1017</ele>
        <time>2015-05-08T08:48:05Z</time>
      </trkpt>
      <trkpt lat="43.70553" lon="6.72631">
        <ele>1016</ele>
        <time>2015-05-08T08:48:10Z</time>
      </trkpt>
      <trkpt lat="43.70542" lon="6.72651">
        <ele>1015</ele>
        <time>2015-05-08T08:48:15Z</time>
      </trkpt>
      <trkpt lat="43.70526" lon="6.7267">
        <ele>1013</ele>
        <time>2015-05-08T08:48:20Z</time>
      </trkpt>
      <trkpt lat="43.70516" lon="6.72694">
        <ele>1013</ele>
        <time>2015-05-08T08:48:25Z</time>
      </trkpt>
      <trkpt lat="43.70509" lon="6.72718">
        <ele>1013</ele>
        <time>2015-05-08T08:48:30Z</time>
      </trkpt>
      <trkpt lat="43.70501" lon="6.72736">
        <ele>1010</ele>
        <time>2015-05-08T08:48:35Z</time>
      </trkpt>
      <trkpt lat="43.70492" lon="6.72756">
        <ele>1001</ele>
        <time>2015-05-08T08:48:40Z</time>
      </trkpt>
      <trkpt lat="43.70481" lon="6.72777">
        <ele>996</ele>
        <time>2015-05-08T08:48:45Z</time>
      </trkpt>
      <trkpt lat="43.70475" lon="6.72805">
        <ele>995</ele>
        <time>2015-05-08T08:48:50Z</time>
      </trkpt>
      <trkpt lat="43.70465" lon="6.72824">
        <ele>994</ele>
        <time>2015-05-08T08:48:55Z</time>
      </trkpt>
      <trkpt lat="43.70456" lon="6.72842">
        <ele>990</ele>
        <time>2015-05-08T08:49:00Z</time>
      </trkpt>
      <trkpt lat="43.70448" lon="6.72859">
        <ele>989</ele>
        <time>2015-05-08T08:49:05Z</time>
      </trkpt>
      <trkpt lat="43.70442" lon="6.72875">
        <ele>988</ele>
        <time>2015-05-08T08:49:10Z</time>
      </trkpt>
      <trkpt lat="43.70436" lon="6.72888">
        <ele>987</ele>
        <time>2015-05-08T08:49:16Z</time>
      </trkpt>
      <trkpt lat="43.70428" lon="6.72897">
        <ele>984</ele>
        <time>2015-05-08T08:49:21Z</time>
      </trkpt>
      <trkpt lat="43.7042" lon="6.72912">
        <ele>979</ele>
        <time>2015-05-08T08:49:27Z</time>
      </trkpt>
      <trkpt lat="43.70422" lon="6.72935">
        <ele>980</ele>
        <time>2015-05-08T08:49:33Z</time>
      </trkpt>
      <trkpt lat="43.7043" lon="6.72957">
        <ele>981</ele>
        <time>2015-05-08T08:49:38Z</time>
      </trkpt>
      <trkpt lat="43.70435" lon="6.72981">
        <ele>978</ele>
        <time>2015-05-08T08:49:43Z</time>
      </trkpt>
      <trkpt lat="43.70439" lon="6.73008">
        <ele>973</ele>
        <time>2015-05-08T08:49:48Z</time>
      </trkpt>
      <trkpt lat="43.70436" lon="6.73032">
        <ele>973</ele>
        <time>2015-05-08T08:49:54Z</time>
      </trkpt>
      <trkpt lat="43.70426" lon="6.73013">
        <ele>970</ele>
        <time>2015-05-08T08:49:59Z</time>
      </trkpt>
      <trkpt lat="43.70414" lon="6.73002">
        <ele>962</ele>
        <time>2015-05-08T08:50:04Z</time>
      </trkpt>
      <trkpt lat="43.70416" lon="6.73011">
        <ele>958</ele>
        <time>2015-05-08T08:50:05Z</time>
      </trkpt>
      <trkpt lat="43.70416" lon="6.7303">
        <ele>953</ele>
        <time>2015-05-08T08:50:10Z</time>
      </trkpt>
      <trkpt lat="43.70413" lon="6.7306">
        <ele>952</ele>
        <time>2015-05-08T08:50:15Z</time>
      </trkpt>
      <trkpt lat="43.70411" lon="6.73079">
        <ele>954</ele>
        <time>2015-05-08T08:51:24Z</time>
      </trkpt>
      <trkpt lat="43.70412" lon="6.73094">
        <ele>950</ele>
        <time>2015-05-08T08:51:30Z</time>
      </trkpt>
      <trkpt lat="43.70419" lon="6.73112">
        <ele>961</ele>
        <time>2015-05-08T08:51:35Z</time>
      </trkpt>
      <trkpt lat="43.70424" lon="6.73129">
        <ele>961</ele>
        <time>2015-05-08T08:51:40Z</time>
      </trkpt>
      <trkpt lat="43.70429" lon="6.73151">
        <ele>957</ele>
        <time>2015-05-08T08:51:46Z</time>
      </trkpt>
      <trkpt lat="43.70438" lon="6.73165">
        <ele>958</ele>
        <time>2015-05-08T08:51:51Z</time>
      </trkpt>
      <trkpt lat="43.70444" lon="6.73177">
        <ele>952</ele>
        <time>2015-05-08T08:51:56Z</time>
      </trkpt>
      <trkpt lat="43.70445" lon="6.73187">
        <ele>951</ele>
        <time>2015-05-08T08:52:02Z</time>
      </trkpt>
      <trkpt lat="43.7044" lon="6.73199">
        <ele>950</ele>
        <time>2015-05-08T08:52:08Z</time>
      </trkpt>
      <trkpt lat="43.70439" lon="6.73194">
        <ele>950</ele>
        <time>2015-05-08T08:52:16Z</time>
      </trkpt>
      <trkpt lat="43.70436" lon="6.73194">
        <ele>950</ele>
        <time>2015-05-08T08:52:35Z</time>
      </trkpt>
      <trkpt lat="43.70434" lon="6.73198">
        <ele>950</ele>
        <time>2015-05-08T08:52:44Z</time>
      </trkpt>
      <trkpt lat="43.70428" lon="6.73209">
        <ele>948</ele>
        <time>2015-05-08T08:52:49Z</time>
      </trkpt>
      <trkpt lat="43.7042" lon="6.73225">
        <ele>945</ele>
        <time>2015-05-08T08:52:55Z</time>
      </trkpt>
      <trkpt lat="43.70409" lon="6.73233">
        <ele>934</ele>
        <time>2015-05-08T08:53:01Z</time>
      </trkpt>
      <trkpt lat="43.70399" lon="6.7325">
        <ele>930</ele>
        <time>2015-05-08T08:53:06Z</time>
      </trkpt>
      <trkpt lat="43.70391" lon="6.73265">
        <ele>928</ele>
        <time>2015-05-08T08:53:12Z</time>
      </trkpt>
      <trkpt lat="43.70386" lon="6.73282">
        <ele>926</ele>
        <time>2015-05-08T08:53:17Z</time>
      </trkpt>
      <trkpt lat="43.70382" lon="6.733">
        <ele>924</ele>
        <time>2015-05-08T08:53:23Z</time>
      </trkpt>
      <trkpt lat="43.70381" lon="6.73315">
        <ele>923</ele>
        <time>2015-05-08T08:53:29Z</time>
      </trkpt>
      <trkpt lat="43.70382" lon="6.73319">
        <ele>923</ele>
        <time>2015-05-08T08:53:41Z</time>
      </trkpt>
      <trkpt lat="43.70384" lon="6.73322">
        <ele>923</ele>
        <time>2015-05-08T08:53:50Z</time>
      </trkpt>
      <trkpt lat="43.70387" lon="6.73323">
        <ele>923</ele>
        <time>2015-05-08T08:54:02Z</time>
      </trkpt>
      <trkpt lat="43.7039" lon="6.73323">
        <ele>923</ele>
        <time>2015-05-08T08:54:07Z</time>
      </trkpt>
      <trkpt lat="43.70395" lon="6.73319">
        <ele>924</ele>
        <time>2015-05-08T08:54:14Z</time>
      </trkpt>
      <trkpt lat="43.70392" lon="6.73321">
        <ele>923</ele>
        <time>2015-05-08T08:54:22Z</time>
      </trkpt>
      <trkpt lat="43.70391" lon="6.73327">
        <ele>923</ele>
        <time>2015-05-08T08:54:29Z</time>
      </trkpt>
      <trkpt lat="43.70384" lon="6.73343">
        <ele>917</ele>
        <time>2015-05-08T08:54:34Z</time>
      </trkpt>
      <trkpt lat="43.70373" lon="6.73358">
        <ele>916</ele>
        <time>2015-05-08T08:54:39Z</time>
      </trkpt>
      <trkpt lat="43.70366" lon="6.73362">
        <ele>915</ele>
        <time>2015-05-08T08:54:44Z</time>
      </trkpt>
      <trkpt lat="43.70363" lon="6.73362">
        <ele>915</ele>
        <time>2015-05-08T08:54:52Z</time>
      </trkpt>
      <trkpt lat="43.70352" lon="6.73353">
        <ele>916</ele>
        <time>2015-05-08T08:54:58Z</time>
      </trkpt>
      <trkpt lat="43.70343" lon="6.73361">
        <ele>915</ele>
        <time>2015-05-08T08:55:04Z</time>
      </trkpt>
      <trkpt lat="43.70351" lon="6.73376">
        <ele>914</ele>
        <time>2015-05-08T08:55:09Z</time>
      </trkpt>
      <trkpt lat="43.7036" lon="6.73393">
        <ele>914</ele>
        <time>2015-05-08T08:55:14Z</time>
      </trkpt>
      <trkpt lat="43.70366" lon="6.73403">
        <ele>913</ele>
        <time>2015-05-08T08:55:19Z</time>
      </trkpt>
      <trkpt lat="43.70363" lon="6.7341">
        <ele>913</ele>
        <time>2015-05-08T08:55:24Z</time>
      </trkpt>
      <trkpt lat="43.70372" lon="6.7342">
        <ele>907</ele>
        <time>2015-05-08T08:55:30Z</time>
      </trkpt>
      <trkpt lat="43.70387" lon="6.73425">
        <ele>907</ele>
        <time>2015-05-08T08:55:36Z</time>
      </trkpt>
      <trkpt lat="43.70402" lon="6.73426">
        <ele>908</ele>
        <time>2015-05-08T08:55:42Z</time>
      </trkpt>
      <trkpt lat="43.70416" lon="6.73432">
        <ele>908</ele>
        <time>2015-05-08T08:55:47Z</time>
      </trkpt>
      <trkpt lat="43.70429" lon="6.73438">
        <ele>907</ele>
        <time>2015-05-08T08:55:52Z</time>
      </trkpt>
      <trkpt lat="43.70445" lon="6.73437">
        <ele>906</ele>
        <time>2015-05-08T08:55:57Z</time>
      </trkpt>
      <trkpt lat="43.70462" lon="6.73442">
        <ele>905</ele>
        <time>2015-05-08T08:56:02Z</time>
      </trkpt>
      <trkpt lat="43.70473" lon="6.7345">
        <ele>904</ele>
        <time>2015-05-08T08:56:07Z</time>
      </trkpt>
      <trkpt lat="43.70489" lon="6.73453">
        <ele>904</ele>
        <time>2015-05-08T08:56:12Z</time>
      </trkpt>
      <trkpt lat="43.70504" lon="6.73462">
        <ele>901</ele>
        <time>2015-05-08T08:56:17Z</time>
      </trkpt>
      <trkpt lat="43.70517" lon="6.73469">
        <ele>900</ele>
        <time>2015-05-08T08:56:22Z</time>
      </trkpt>
      <trkpt lat="43.7053" lon="6.73479">
        <ele>899</ele>
        <time>2015-05-08T08:56:27Z</time>
      </trkpt>
      <trkpt lat="43.70544" lon="6.73486">
        <ele>899</ele>
        <time>2015-05-08T08:56:32Z</time>
      </trkpt>
      <trkpt lat="43.70556" lon="6.73496">
        <ele>898</ele>
        <time>2015-05-08T08:56:37Z</time>
      </trkpt>
      <trkpt lat="43.70569" lon="6.73499">
        <ele>896</ele>
        <time>2015-05-08T08:56:43Z</time>
      </trkpt>
      <trkpt lat="43.70581" lon="6.73501">
        <ele>891</ele>
        <time>2015-05-08T08:56:49Z</time>
      </trkpt>
      <trkpt lat="43.70587" lon="6.73503">
        <ele>893</ele>
        <time>2015-05-08T08:56:54Z</time>
      </trkpt>
      <trkpt lat="43.70599" lon="6.73505">
        <ele>895</ele>
        <time>2015-05-08T08:57:16Z</time>
      </trkpt>
      <trkpt lat="43.70612" lon="6.73513">
        <ele>897</ele>
        <time>2015-05-08T08:57:22Z</time>
      </trkpt>
      <trkpt lat="43.70619" lon="6.73528">
        <ele>897</ele>
        <time>2015-05-08T08:57:28Z</time>
      </trkpt>
      <trkpt lat="43.70628" lon="6.73546">
        <ele>897</ele>
        <time>2015-05-08T08:57:34Z</time>
      </trkpt>
      <trkpt lat="43.70632" lon="6.73549">
        <ele>897</ele>
        <time>2015-05-08T08:57:48Z</time>
      </trkpt>
      <trkpt lat="43.70634" lon="6.73553">
        <ele>897</ele>
        <time>2015-05-08T08:57:53Z</time>
      </trkpt>
      <trkpt lat="43.70638" lon="6.73559">
        <ele>897</ele>
        <time>2015-05-08T08:57:58Z</time>
      </trkpt>
      <trkpt lat="43.70643" lon="6.73572">
        <ele>897</ele>
        <time>2015-05-08T08:58:04Z</time>
      </trkpt>
      <trkpt lat="43.70649" lon="6.73588">
        <ele>891</ele>
        <time>2015-05-08T08:58:10Z</time>
      </trkpt>
      <trkpt lat="43.70655" lon="6.73604">
        <ele>890</ele>
        <time>2015-05-08T08:58:15Z</time>
      </trkpt>
      <trkpt lat="43.70663" lon="6.73625">
        <ele>887</ele>
        <time>2015-05-08T08:58:22Z</time>
      </trkpt>
      <trkpt lat="43.70668" lon="6.73642">
        <ele>900</ele>
        <time>2015-05-08T08:58:28Z</time>
      </trkpt>
      <trkpt lat="43.70672" lon="6.73657">
        <ele>895</ele>
        <time>2015-05-08T08:58:34Z</time>
      </trkpt>
      <trkpt lat="43.70676" lon="6.73671">
        <ele>890</ele>
        <time>2015-05-08T08:58:39Z</time>
      </trkpt>
      <trkpt lat="43.70683" lon="6.73687">
        <ele>892</ele>
        <time>2015-05-08T08:58:45Z</time>
      </trkpt>
      <trkpt lat="43.70691" lon="6.73705">
        <ele>893</ele>
        <time>2015-05-08T08:58:51Z</time>
      </trkpt>
      <trkpt lat="43.70699" lon="6.7372">
        <ele>893</ele>
        <time>2015-05-08T08:58:56Z</time>
      </trkpt>
      <trkpt lat="43.70706" lon="6.73735">
        <ele>893</ele>
        <time>2015-05-08T08:59:02Z</time>
      </trkpt>
      <trkpt lat="43.70712" lon="6.73752">
        <ele>885</ele>
        <time>2015-05-08T08:59:07Z</time>
      </trkpt>
      <trkpt lat="43.70719" lon="6.73777">
        <ele>884</ele>
        <time>2015-05-08T08:59:12Z</time>
      </trkpt>
      <trkpt lat="43.70728" lon="6.738">
        <ele>883</ele>
        <time>2015-05-08T08:59:17Z</time>
      </trkpt>
      <trkpt lat="43.70738" lon="6.73819">
        <ele>882</ele>
        <time>2015-05-08T08:59:22Z</time>
      </trkpt>
      <trkpt lat="43.70747" lon="6.73831">
        <ele>883</ele>
        <time>2015-05-08T08:59:27Z</time>
      </trkpt>
      <trkpt lat="43.70761" lon="6.7384">
        <ele>881</ele>
        <time>2015-05-08T08:59:32Z</time>
      </trkpt>
      <trkpt lat="43.70779" lon="6.73851">
        <ele>880</ele>
        <time>2015-05-08T08:59:37Z</time>
      </trkpt>
      <trkpt lat="43.70798" lon="6.73856">
        <ele>880</ele>
        <time>2015-05-08T08:59:42Z</time>
      </trkpt>
      <trkpt lat="43.70815" lon="6.73863">
        <ele>881</ele>
        <time>2015-05-08T08:59:47Z</time>
      </trkpt>
      <trkpt lat="43.70831" lon="6.7388">
        <ele>879</ele>
        <time>2015-05-08T08:59:52Z</time>
      </trkpt>
      <trkpt lat="43.70847" lon="6.7389">
        <ele>883</ele>
        <time>2015-05-08T08:59:57Z</time>
      </trkpt>
      <trkpt lat="43.70863" lon="6.73892">
        <ele>884</ele>
        <time>2015-05-08T09:00:02Z</time>
      </trkpt>
      <trkpt lat="43.70877" lon="6.73889">
        <ele>885</ele>
        <time>2015-05-08T09:00:07Z</time>
      </trkpt>
      <trkpt lat="43.70889" lon="6.73891">
        <ele>886</ele>
        <time>2015-05-08T09:00:12Z</time>
      </trkpt>
      <trkpt lat="43.70897" lon="6.73892">
        <ele>886</ele>
        <time>2015-05-08T09:00:17Z</time>
      </trkpt>
      <trkpt lat="43.70895" lon="6.73908">
        <ele>885</ele>
        <time>2015-05-08T09:00:23Z</time>
      </trkpt>
      <trkpt lat="43.70892" lon="6.73916">
        <ele>885</ele>
        <time>2015-05-08T09:00:32Z</time>
      </trkpt>
      <trkpt lat="43.70892" lon="6.73923">
        <ele>878</ele>
        <time>2015-05-08T09:00:38Z</time>
      </trkpt>
      <trkpt lat="43.70891" lon="6.73927">
        <ele>878</ele>
        <time>2015-05-08T09:00:42Z</time>
      </trkpt>
      <trkpt lat="43.70891" lon="6.73935">
        <ele>877</ele>
        <time>2015-05-08T09:00:56Z</time>
      </trkpt>
      <trkpt lat="43.70893" lon="6.73938">
        <ele>877</ele>
        <time>2015-05-08T09:01:11Z</time>
      </trkpt>
      <trkpt lat="43.70898" lon="6.73945">
        <ele>877</ele>
        <time>2015-05-08T09:01:17Z</time>
      </trkpt>
      <trkpt lat="43.70906" lon="6.73947">
        <ele>877</ele>
        <time>2015-05-08T09:01:22Z</time>
      </trkpt>
      <trkpt lat="43.70921" lon="6.73955">
        <ele>882</ele>
        <time>2015-05-08T09:01:27Z</time>
      </trkpt>
      <trkpt lat="43.7094" lon="6.73957">
        <ele>882</ele>
        <time>2015-05-08T09:01:32Z</time>
      </trkpt>
      <trkpt lat="43.70946" lon="6.73955">
        <ele>883</ele>
        <time>2015-05-08T09:01:37Z</time>
      </trkpt>
      <trkpt lat="43.70949" lon="6.73954">
        <ele>883</ele>
        <time>2015-05-08T09:01:52Z</time>
      </trkpt>
      <trkpt lat="43.70953" lon="6.73956">
        <ele>883</ele>
        <time>2015-05-08T09:02:03Z</time>
      </trkpt>
      <trkpt lat="43.70956" lon="6.73956">
        <ele>883</ele>
        <time>2015-05-08T09:02:08Z</time>
      </trkpt>
      <trkpt lat="43.70963" lon="6.73954">
        <ele>884</ele>
        <time>2015-05-08T09:02:14Z</time>
      </trkpt>
      <trkpt lat="43.70972" lon="6.73962">
        <ele>884</ele>
        <time>2015-05-08T09:02:20Z</time>
      </trkpt>
      <trkpt lat="43.70978" lon="6.73976">
        <ele>883</ele>
        <time>2015-05-08T09:02:26Z</time>
      </trkpt>
      <trkpt lat="43.70985" lon="6.73979">
        <ele>883</ele>
        <time>2015-05-08T09:02:31Z</time>
      </trkpt>
      <trkpt lat="43.70994" lon="6.73985">
        <ele>883</ele>
        <time>2015-05-08T09:02:37Z</time>
      </trkpt>
      <trkpt lat="43.71" lon="6.73989">
        <ele>883</ele>
        <time>2015-05-08T09:02:46Z</time>
      </trkpt>
      <trkpt lat="43.71005" lon="6.73993">
        <ele>886</ele>
        <time>2015-05-08T09:02:54Z</time>
      </trkpt>
      <trkpt lat="43.71006" lon="6.73998">
        <ele>885</ele>
        <time>2015-05-08T09:02:59Z</time>
      </trkpt>
      <trkpt lat="43.71008" lon="6.74004">
        <ele>882</ele>
        <time>2015-05-08T09:03:08Z</time>
      </trkpt>
      <trkpt lat="43.71013" lon="6.74009">
        <ele>882</ele>
        <time>2015-05-08T09:03:15Z</time>
      </trkpt>
      <trkpt lat="43.71016" lon="6.74008">
        <ele>882</ele>
        <time>2015-05-08T09:03:20Z</time>
      </trkpt>
      <trkpt lat="43.71019" lon="6.74009">
        <ele>883</ele>
        <time>2015-05-08T09:03:25Z</time>
      </trkpt>
      <trkpt lat="43.71023" lon="6.74011">
        <ele>883</ele>
        <time>2015-05-08T09:03:46Z</time>
      </trkpt>
      <trkpt lat="43.71026" lon="6.74014">
        <ele>883</ele>
        <time>2015-05-08T09:03:49Z</time>
      </trkpt>
      <trkpt lat="43.71029" lon="6.74012">
        <ele>883</ele>
        <time>2015-05-08T09:03:53Z</time>
      </trkpt>
      <trkpt lat="43.71035" lon="6.74014">
        <ele>883</ele>
        <time>2015-05-08T09:04:02Z</time>
      </trkpt>
      <trkpt lat="43.71038" lon="6.74017">
        <ele>884</ele>
        <time>2015-05-08T09:04:07Z</time>
      </trkpt>
      <trkpt lat="43.71041" lon="6.74018">
        <ele>884</ele>
        <time>2015-05-08T09:04:12Z</time>
      </trkpt>
      <trkpt lat="43.71045" lon="6.74023">
        <ele>884</ele>
        <time>2015-05-08T09:04:19Z</time>
      </trkpt>
      <trkpt lat="43.71051" lon="6.74027">
        <ele>884</ele>
        <time>2015-05-08T09:04:27Z</time>
      </trkpt>
      <trkpt lat="43.71053" lon="6.74032">
        <ele>884</ele>
        <time>2015-05-08T09:04:43Z</time>
      </trkpt>
      <trkpt lat="43.71059" lon="6.74031">
        <ele>884</ele>
        <time>2015-05-08T09:04:50Z</time>
      </trkpt>
      <trkpt lat="43.71061" lon="6.74028">
        <ele>885</ele>
        <time>2015-05-08T09:04:53Z</time>
      </trkpt>
      <trkpt lat="43.71064" lon="6.74021">
        <ele>886</ele>
        <time>2015-05-08T09:05:00Z</time>
      </trkpt>
      <trkpt lat="43.71068" lon="6.74015">
        <ele>888</ele>
        <time>2015-05-08T09:05:06Z</time>
      </trkpt>
      <trkpt lat="43.71071" lon="6.74009">
        <ele>890</ele>
        <time>2015-05-08T09:05:12Z</time>
      </trkpt>
      <trkpt lat="43.71077" lon="6.74007">
        <ele>891</ele>
        <time>2015-05-08T09:05:20Z</time>
      </trkpt>
      <trkpt lat="43.7108" lon="6.74006">
        <ele>893</ele>
        <time>2015-05-08T09:05:28Z</time>
      </trkpt>
      <trkpt lat="43.71084" lon="6.73998">
        <ele>897</ele>
        <time>2015-05-08T09:05:41Z</time>
      </trkpt>
      <trkpt lat="43.71081" lon="6.73986">
        <ele>896</ele>
        <time>2015-05-08T09:05:47Z</time>
      </trkpt>
      <trkpt lat="43.71079" lon="6.73984">
        <ele>896</ele>
        <time>2015-05-08T09:05:53Z</time>
      </trkpt>
      <trkpt lat="43.71079" lon="6.73976">
        <ele>896</ele>
        <time>2015-05-08T09:06:10Z</time>
      </trkpt>
      <trkpt lat="43.71082" lon="6.73975">
        <ele>897</ele>
        <time>2015-05-08T09:06:15Z</time>
      </trkpt>
      <trkpt lat="43.71085" lon="6.73975">
        <ele>905</ele>
        <time>2015-05-08T09:06:20Z</time>
      </trkpt>
      <trkpt lat="43.71091" lon="6.73973">
        <ele>906</ele>
        <time>2015-05-08T09:06:28Z</time>
      </trkpt>
      <trkpt lat="43.71097" lon="6.73968">
        <ele>907</ele>
        <time>2015-05-08T09:06:35Z</time>
      </trkpt>
      <trkpt lat="43.71095" lon="6.73964">
        <ele>908</ele>
        <time>2015-05-08T09:06:41Z</time>
      </trkpt>
      <trkpt lat="43.71093" lon="6.73961">
        <ele>908</ele>
        <time>2015-05-08T09:06:48Z</time>
      </trkpt>
      <trkpt lat="43.71089" lon="6.73954">
        <ele>909</ele>
        <time>2015-05-08T09:07:06Z</time>
      </trkpt>
      <trkpt lat="43.71084" lon="6.73947">
        <ele>909</ele>
        <time>2015-05-08T09:07:13Z</time>
      </trkpt>
      <trkpt lat="43.71083" lon="6.73943">
        <ele>901</ele>
        <time>2015-05-08T09:07:18Z</time>
      </trkpt>
      <trkpt lat="43.71084" lon="6.73935">
        <ele>910</ele>
        <time>2015-05-08T09:07:26Z</time>
      </trkpt>
      <trkpt lat="43.71088" lon="6.73929">
        <ele>910</ele>
        <time>2015-05-08T09:07:33Z</time>
      </trkpt>
      <trkpt lat="43.71092" lon="6.73932">
        <ele>910</ele>
        <time>2015-05-08T09:07:41Z</time>
      </trkpt>
      <trkpt lat="43.71099" lon="6.73935">
        <ele>911</ele>
        <time>2015-05-08T09:07:49Z</time>
      </trkpt>
      <trkpt lat="43.71104" lon="6.73935">
        <ele>911</ele>
        <time>2015-05-08T09:07:56Z</time>
      </trkpt>
      <trkpt lat="43.71108" lon="6.73937">
        <ele>911</ele>
        <time>2015-05-08T09:08:04Z</time>
      </trkpt>
      <trkpt lat="43.71115" lon="6.73938">
        <ele>912</ele>
        <time>2015-05-08T09:08:10Z</time>
      </trkpt>
      <trkpt lat="43.71122" lon="6.73936">
        <ele>913</ele>
        <time>2015-05-08T09:08:15Z</time>
      </trkpt>
      <trkpt lat="43.71132" lon="6.73936">
        <ele>914</ele>
        <time>2015-05-08T09:08:21Z</time>
      </trkpt>
      <trkpt lat="43.71142" lon="6.73934">
        <ele>916</ele>
        <time>2015-05-08T09:08:27Z</time>
      </trkpt>
      <trkpt lat="43.71149" lon="6.73934">
        <ele>917</ele>
        <time>2015-05-08T09:08:32Z</time>
      </trkpt>
      <trkpt lat="43.71157" lon="6.73926">
        <ele>920</ele>
        <time>2015-05-08T09:08:38Z</time>
      </trkpt>
      <trkpt lat="43.71167" lon="6.73918">
        <ele>927</ele>
        <time>2015-05-08T09:08:44Z</time>
      </trkpt>
      <trkpt lat="43.71178" lon="6.73933">
        <ele>931</ele>
        <time>2015-05-08T09:08:49Z</time>
      </trkpt>
      <trkpt lat="43.7118" lon="6.73953">
        <ele>931</ele>
        <time>2015-05-08T09:08:54Z</time>
      </trkpt>
      <trkpt lat="43.71187" lon="6.73979">
        <ele>928</ele>
        <time>2015-05-08T09:08:59Z</time>
      </trkpt>
      <trkpt lat="43.71182" lon="6.74003">
        <ele>917</ele>
        <time>2015-05-08T09:09:04Z</time>
      </trkpt>
      <trkpt lat="43.71185" lon="6.74025">
        <ele>918</ele>
        <time>2015-05-08T09:09:14Z</time>
      </trkpt>
      <trkpt lat="43.71189" lon="6.74035">
        <ele>919</ele>
        <time>2015-05-08T09:09:19Z</time>
      </trkpt>
      <trkpt lat="43.71195" lon="6.74041">
        <ele>919</ele>
        <time>2015-05-08T09:09:24Z</time>
      </trkpt>
      <trkpt lat="43.71199" lon="6.74052">
        <ele>919</ele>
        <time>2015-05-08T09:09:31Z</time>
      </trkpt>
      <trkpt lat="43.71205" lon="6.74063">
        <ele>920</ele>
        <time>2015-05-08T09:09:37Z</time>
      </trkpt>
      <trkpt lat="43.71208" lon="6.74071">
        <ele>920</ele>
        <time>2015-05-08T09:09:43Z</time>
      </trkpt>
      <trkpt lat="43.71213" lon="6.74084">
        <ele>917</ele>
        <time>2015-05-08T09:09:49Z</time>
      </trkpt>
      <trkpt lat="43.7122" lon="6.74097">
        <ele>919</ele>
        <time>2015-05-08T09:09:55Z</time>
      </trkpt>
      <trkpt lat="43.71228" lon="6.74109">
        <ele>919</ele>
        <time>2015-05-08T09:10:00Z</time>
      </trkpt>
      <trkpt lat="43.71237" lon="6.74122">
        <ele>920</ele>
        <time>2015-05-08T09:10:06Z</time>
      </trkpt>
      <trkpt lat="43.71244" lon="6.74131">
        <ele>920</ele>
        <time>2015-05-08T09:10:12Z</time>
      </trkpt>
      <trkpt lat="43.71249" lon="6.7414">
        <ele>921</ele>
        <time>2015-05-08T09:10:17Z</time>
      </trkpt>
      <trkpt lat="43.71254" lon="6.7415">
        <ele>932</ele>
        <time>2015-05-08T09:10:23Z</time>
      </trkpt>
      <trkpt lat="43.71262" lon="6.7416">
        <ele>931</ele>
        <time>2015-05-08T09:10:29Z</time>
      </trkpt>
      <trkpt lat="43.71268" lon="6.74163">
        <ele>933</ele>
        <time>2015-05-08T09:10:38Z</time>
      </trkpt>
      <trkpt lat="43.71274" lon="6.74166">
        <ele>934</ele>
        <time>2015-05-08T09:10:48Z</time>
      </trkpt>
      <trkpt lat="43.71277" lon="6.74167">
        <ele>933</ele>
        <time>2015-05-08T09:13:36Z</time>
      </trkpt>
      <trkpt lat="43.7128" lon="6.74169">
        <ele>934</ele>
        <time>2015-05-08T09:13:41Z</time>
      </trkpt>
      <trkpt lat="43.71285" lon="6.74173">
        <ele>935</ele>
        <time>2015-05-08T09:13:48Z</time>
      </trkpt>
      <trkpt lat="43.71291" lon="6.74175">
        <ele>936</ele>
        <time>2015-05-08T09:13:54Z</time>
      </trkpt>
      <trkpt lat="43.71296" lon="6.74179">
        <ele>937</ele>
        <time>2015-05-08T09:14:05Z</time>
      </trkpt>
      <trkpt lat="43.71299" lon="6.74187">
        <ele>937</ele>
        <time>2015-05-08T09:14:12Z</time>
      </trkpt>
      <trkpt lat="43.71294" lon="6.74194">
        <ele>937</ele>
        <time>2015-05-08T09:14:18Z</time>
      </trkpt>
      <trkpt lat="43.71293" lon="6.74198">
        <ele>937</ele>
        <time>2015-05-08T09:14:23Z</time>
      </trkpt>
      <trkpt lat="43.71286" lon="6.74204">
        <ele>936</ele>
        <time>2015-05-08T09:14:29Z</time>
      </trkpt>
      <trkpt lat="43.71274" lon="6.74211">
        <ele>935</ele>
        <time>2015-05-08T09:14:36Z</time>
      </trkpt>
      <trkpt lat="43.7127" lon="6.74212">
        <ele>935</ele>
        <time>2015-05-08T09:14:38Z</time>
      </trkpt>
      <trkpt lat="43.71256" lon="6.74212">
        <ele>934</ele>
        <time>2015-05-08T09:14:44Z</time>
      </trkpt>
      <trkpt lat="43.71251" lon="6.74215">
        <ele>934</ele>
        <time>2015-05-08T09:14:48Z</time>
      </trkpt>
      <trkpt lat="43.71246" lon="6.74234">
        <ele>926</ele>
        <time>2015-05-08T09:14:53Z</time>
      </trkpt>
      <trkpt lat="43.71242" lon="6.74254">
        <ele>930</ele>
        <time>2015-05-08T09:14:59Z</time>
      </trkpt>
      <trkpt lat="43.71238" lon="6.74267">
        <ele>926</ele>
        <time>2015-05-08T09:15:04Z</time>
      </trkpt>
      <trkpt lat="43.71233" lon="6.74282">
        <ele>924</ele>
        <time>2015-05-08T09:15:09Z</time>
      </trkpt>
      <trkpt lat="43.71232" lon="6.74301">
        <ele>924</ele>
        <time>2015-05-08T09:15:15Z</time>
      </trkpt>
      <trkpt lat="43.71237" lon="6.74318">
        <ele>927</ele>
        <time>2015-05-08T09:15:20Z</time>
      </trkpt>
      <trkpt lat="43.71248" lon="6.74335">
        <ele>932</ele>
        <time>2015-05-08T09:15:26Z</time>
      </trkpt>
      <trkpt lat="43.71254" lon="6.74348">
        <ele>936</ele>
        <time>2015-05-08T09:15:31Z</time>
      </trkpt>
      <trkpt lat="43.71257" lon="6.74365">
        <ele>937</ele>
        <time>2015-05-08T09:15:36Z</time>
      </trkpt>
      <trkpt lat="43.71257" lon="6.74389">
        <ele>936</ele>
        <time>2015-05-08T09:15:41Z</time>
      </trkpt>
      <trkpt lat="43.71264" lon="6.74408">
        <ele>934</ele>
        <time>2015-05-08T09:15:47Z</time>
      </trkpt>
      <trkpt lat="43.71266" lon="6.74411">
        <ele>934</ele>
        <time>2015-05-08T09:16:01Z</time>
      </trkpt>
      <trkpt lat="43.71272" lon="6.74417">
        <ele>933</ele>
        <time>2015-05-08T09:16:06Z</time>
      </trkpt>
      <trkpt lat="43.71274" lon="6.7442">
        <ele>934</ele>
        <time>2015-05-08T09:16:16Z</time>
      </trkpt>
      <trkpt lat="43.71275" lon="6.74424">
        <ele>934</ele>
        <time>2015-05-08T09:16:23Z</time>
      </trkpt>
      <trkpt lat="43.71277" lon="6.74434">
        <ele>934</ele>
        <time>2015-05-08T09:16:28Z</time>
      </trkpt>
      <trkpt lat="43.71279" lon="6.74441">
        <ele>935</ele>
        <time>2015-05-08T09:16:37Z</time>
      </trkpt>
      <trkpt lat="43.71281" lon="6.74449">
        <ele>935</ele>
        <time>2015-05-08T09:16:44Z</time>
      </trkpt>
      <trkpt lat="43.71283" lon="6.74455">
        <ele>935</ele>
        <time>2015-05-08T09:16:52Z</time>
      </trkpt>
      <trkpt lat="43.71284" lon="6.74463">
        <ele>935</ele>
        <time>2015-05-08T09:16:59Z</time>
      </trkpt>
      <trkpt lat="43.71285" lon="6.74471">
        <ele>935</ele>
        <time>2015-05-08T09:17:10Z</time>
      </trkpt>
      <trkpt lat="43.71287" lon="6.74477">
        <ele>935</ele>
        <time>2015-05-08T09:17:28Z</time>
      </trkpt>
      <trkpt lat="43.71292" lon="6.74484">
        <ele>936</ele>
        <time>2015-05-08T09:17:35Z</time>
      </trkpt>
      <trkpt lat="43.71297" lon="6.7449">
        <ele>936</ele>
        <time>2015-05-08T09:17:43Z</time>
      </trkpt>
      <trkpt lat="43.71301" lon="6.74493">
        <ele>937</ele>
        <time>2015-05-08T09:17:48Z</time>
      </trkpt>
      <trkpt lat="43.71305" lon="6.74499">
        <ele>938</ele>
        <time>2015-05-08T09:17:55Z</time>
      </trkpt>
      <trkpt lat="43.71312" lon="6.74503">
        <ele>937</ele>
        <time>2015-05-08T09:18:02Z</time>
      </trkpt>
      <trkpt lat="43.71315" lon="6.74504">
        <ele>938</ele>
        <time>2015-05-08T09:18:07Z</time>
      </trkpt>
      <trkpt lat="43.71321" lon="6.74508">
        <ele>939</ele>
        <time>2015-05-08T09:18:15Z</time>
      </trkpt>
      <trkpt lat="43.71326" lon="6.74513">
        <ele>939</ele>
        <time>2015-05-08T09:18:21Z</time>
      </trkpt>
      <trkpt lat="43.71332" lon="6.74517">
        <ele>939</ele>
        <time>2015-05-08T09:18:27Z</time>
      </trkpt>
      <trkpt lat="43.71336" lon="6.74523">
        <ele>945</ele>
        <time>2015-05-08T09:18:36Z</time>
      </trkpt>
      <trkpt lat="43.71341" lon="6.74528">
        <ele>945</ele>
        <time>2015-05-08T09:18:44Z</time>
      </trkpt>
      <trkpt lat="43.71345" lon="6.74535">
        <ele>945</ele>
        <time>2015-05-08T09:18:53Z</time>
      </trkpt>
      <trkpt lat="43.71345" lon="6.7454">
        <ele>945</ele>
        <time>2015-05-08T09:19:20Z</time>
      </trkpt>
      <trkpt lat="43.71344" lon="6.74544">
        <ele>945</ele>
        <time>2015-05-08T09:19:46Z</time>
      </trkpt>
      <trkpt lat="43.71345" lon="6.74553">
        <ele>945</ele>
        <time>2015-05-08T09:19:51Z</time>
      </trkpt>
      <trkpt lat="43.71348" lon="6.74565">
        <ele>944</ele>
        <time>2015-05-08T09:19:57Z</time>
      </trkpt>
      <trkpt lat="43.71357" lon="6.74574">
        <ele>945</ele>
        <time>2015-05-08T09:20:03Z</time>
      </trkpt>
      <trkpt lat="43.71366" lon="6.74581">
        <ele>946</ele>
        <time>2015-05-08T09:20:09Z</time>
      </trkpt>
      <trkpt lat="43.71376" lon="6.74589">
        <ele>946</ele>
        <time>2015-05-08T09:20:15Z</time>
      </trkpt>
      <trkpt lat="43.71385" lon="6.74597">
        <ele>947</ele>
        <time>2015-05-08T09:20:21Z</time>
      </trkpt>
      <trkpt lat="43.71393" lon="6.74607">
        <ele>948</ele>
        <time>2015-05-08T09:20:27Z</time>
      </trkpt>
      <trkpt lat="43.71402" lon="6.74616">
        <ele>948</ele>
        <time>2015-05-08T09:20:33Z</time>
      </trkpt>
      <trkpt lat="43.71408" lon="6.74619">
        <ele>948</ele>
        <time>2015-05-08T09:20:38Z</time>
      </trkpt>
      <trkpt lat="43.71415" lon="6.74622">
        <ele>949</ele>
        <time>2015-05-08T09:20:43Z</time>
      </trkpt>
      <trkpt lat="43.71422" lon="6.74625">
        <ele>956</ele>
        <time>2015-05-08T09:20:49Z</time>
      </trkpt>
      <trkpt lat="43.71429" lon="6.74628">
        <ele>956</ele>
        <time>2015-05-08T09:20:55Z</time>
      </trkpt>
      <trkpt lat="43.71436" lon="6.74632">
        <ele>957</ele>
        <time>2015-05-08T09:21:01Z</time>
      </trkpt>
      <trkpt lat="43.71442" lon="6.74636">
        <ele>957</ele>
        <time>2015-05-08T09:21:07Z</time>
      </trkpt>
      <trkpt lat="43.71447" lon="6.7464">
        <ele>957</ele>
        <time>2015-05-08T09:21:13Z</time>
      </trkpt>
      <trkpt lat="43.71452" lon="6.74645">
        <ele>958</ele>
        <time>2015-05-08T09:21:19Z</time>
      </trkpt>
      <trkpt lat="43.71457" lon="6.74649">
        <ele>958</ele>
        <time>2015-05-08T09:21:25Z</time>
      </trkpt>
      <trkpt lat="43.71463" lon="6.74654">
        <ele>959</ele>
        <time>2015-05-08T09:21:31Z</time>
      </trkpt>
      <trkpt lat="43.71468" lon="6.74661">
        <ele>960</ele>
        <time>2015-05-08T09:21:37Z</time>
      </trkpt>
      <trkpt lat="43.71473" lon="6.74668">
        <ele>962</ele>
        <time>2015-05-08T09:21:43Z</time>
      </trkpt>
      <trkpt lat="43.7148" lon="6.74673">
        <ele>963</ele>
        <time>2015-05-08T09:21:49Z</time>
      </trkpt>
      <trkpt lat="43.71486" lon="6.74677">
        <ele>964</ele>
        <time>2015-05-08T09:21:55Z</time>
      </trkpt>
      <trkpt lat="43.71492" lon="6.74682">
        <ele>964</ele>
        <time>2015-05-08T09:22:01Z</time>
      </trkpt>
      <trkpt lat="43.71499" lon="6.74684">
        <ele>964</ele>
        <time>2015-05-08T09:22:07Z</time>
      </trkpt>
      <trkpt lat="43.71506" lon="6.74688">
        <ele>970</ele>
        <time>2015-05-08T09:22:13Z</time>
      </trkpt>
      <trkpt lat="43.71513" lon="6.74694">
        <ele>970</ele>
        <time>2015-05-08T09:22:19Z</time>
      </trkpt>
      <trkpt lat="43.71522" lon="6.74697">
        <ele>971</ele>
        <time>2015-05-08T09:22:26Z</time>
      </trkpt>
      <trkpt lat="43.71528" lon="6.74699">
        <ele>971</ele>
        <time>2015-05-08T09:22:31Z</time>
      </trkpt>
      <trkpt lat="43.71535" lon="6.74702">
        <ele>971</ele>
        <time>2015-05-08T09:22:36Z</time>
      </trkpt>
      <trkpt lat="43.71542" lon="6.74703">
        <ele>972</ele>
        <time>2015-05-08T09:22:41Z</time>
      </trkpt>
      <trkpt lat="43.71551" lon="6.74706">
        <ele>972</ele>
        <time>2015-05-08T09:22:47Z</time>
      </trkpt>
      <trkpt lat="43.7156" lon="6.7471">
        <ele>973</ele>
        <time>2015-05-08T09:22:53Z</time>
      </trkpt>
      <trkpt lat="43.71568" lon="6.74715">
        <ele>973</ele>
        <time>2015-05-08T09:22:59Z</time>
      </trkpt>
      <trkpt lat="43.71575" lon="6.74722">
        <ele>973</ele>
        <time>2015-05-08T09:23:05Z</time>
      </trkpt>
      <trkpt lat="43.71584" lon="6.7473">
        <ele>978</ele>
        <time>2015-05-08T09:23:11Z</time>
      </trkpt>
      <trkpt lat="43.71592" lon="6.74737">
        <ele>977</ele>
        <time>2015-05-08T09:23:17Z</time>
      </trkpt>
      <trkpt lat="43.716" lon="6.74743">
        <ele>978</ele>
        <time>2015-05-08T09:23:23Z</time>
      </trkpt>
      <trkpt lat="43.71609" lon="6.74746">
        <ele>978</ele>
        <time>2015-05-08T09:23:30Z</time>
      </trkpt>
      <trkpt lat="43.71618" lon="6.74748">
        <ele>978</ele>
        <time>2015-05-08T09:23:36Z</time>
      </trkpt>
      <trkpt lat="43.71627" lon="6.7475">
        <ele>979</ele>
        <time>2015-05-08T09:23:42Z</time>
      </trkpt>
      <trkpt lat="43.71636" lon="6.74753">
        <ele>977</ele>
        <time>2015-05-08T09:23:48Z</time>
      </trkpt>
      <trkpt lat="43.71646" lon="6.74755">
        <ele>977</ele>
        <time>2015-05-08T09:23:54Z</time>
      </trkpt>
      <trkpt lat="43.71653" lon="6.74755">
        <ele>978</ele>
        <time>2015-05-08T09:23:59Z</time>
      </trkpt>
      <trkpt lat="43.71659" lon="6.74757">
        <ele>978</ele>
        <time>2015-05-08T09:24:07Z</time>
      </trkpt>
      <trkpt lat="43.71661" lon="6.7476">
        <ele>978</ele>
        <time>2015-05-08T09:26:33Z</time>
      </trkpt>
      <trkpt lat="43.71659" lon="6.74764">
        <ele>978</ele>
        <time>2015-05-08T09:26:36Z</time>
      </trkpt>
      <trkpt lat="43.71653" lon="6.74777">
        <ele>976</ele>
        <time>2015-05-08T09:26:41Z</time>
      </trkpt>
      <trkpt lat="43.71645" lon="6.74792">
        <ele>975</ele>
        <time>2015-05-08T09:26:46Z</time>
      </trkpt>
      <trkpt lat="43.71632" lon="6.74809">
        <ele>974</ele>
        <time>2015-05-08T09:26:51Z</time>
      </trkpt>
      <trkpt lat="43.71619" lon="6.74827">
        <ele>974</ele>
        <time>2015-05-08T09:26:56Z</time>
      </trkpt>
      <trkpt lat="43.71608" lon="6.74847">
        <ele>971</ele>
        <time>2015-05-08T09:27:01Z</time>
      </trkpt>
      <trkpt lat="43.71596" lon="6.74864">
        <ele>970</ele>
        <time>2015-05-08T09:27:06Z</time>
      </trkpt>
      <trkpt lat="43.71584" lon="6.74881">
        <ele>970</ele>
        <time>2015-05-08T09:27:11Z</time>
      </trkpt>
      <trkpt lat="43.71573" lon="6.74897">
        <ele>971</ele>
        <time>2015-05-08T09:27:16Z</time>
      </trkpt>
      <trkpt lat="43.71558" lon="6.74914">
        <ele>971</ele>
        <time>2015-05-08T09:27:21Z</time>
      </trkpt>
      <trkpt lat="43.71544" lon="6.7492">
        <ele>972</ele>
        <time>2015-05-08T09:27:27Z</time>
      </trkpt>
      <trkpt lat="43.71531" lon="6.74925">
        <ele>973</ele>
        <time>2015-05-08T09:27:32Z</time>
      </trkpt>
      <trkpt lat="43.71519" lon="6.74934">
        <ele>973</ele>
        <time>2015-05-08T09:27:37Z</time>
      </trkpt>
      <trkpt lat="43.71509" lon="6.74946">
        <ele>973</ele>
        <time>2015-05-08T09:27:42Z</time>
      </trkpt>
      <trkpt lat="43.71499" lon="6.74958">
        <ele>975</ele>
        <time>2015-05-08T09:27:47Z</time>
      </trkpt>
      <trkpt lat="43.71485" lon="6.74962">
        <ele>975</ele>
        <time>2015-05-08T09:27:53Z</time>
      </trkpt>
      <trkpt lat="43.71482" lon="6.74959">
        <ele>975</ele>
        <time>2015-05-08T09:27:55Z</time>
      </trkpt>
      <trkpt lat="43.71468" lon="6.74961">
        <ele>975</ele>
        <time>2015-05-08T09:28:01Z</time>
      </trkpt>
      <trkpt lat="43.71457" lon="6.74971">
        <ele>975</ele>
        <time>2015-05-08T09:28:07Z</time>
      </trkpt>
      <trkpt lat="43.71449" lon="6.74976">
        <ele>975</ele>
        <time>2015-05-08T09:28:11Z</time>
      </trkpt>
      <trkpt lat="43.71445" lon="6.74979">
        <ele>976</ele>
        <time>2015-05-08T09:28:14Z</time>
      </trkpt>
      <trkpt lat="43.71437" lon="6.74993">
        <ele>976</ele>
        <time>2015-05-08T09:28:20Z</time>
      </trkpt>
      <trkpt lat="43.71429" lon="6.75007">
        <ele>979</ele>
        <time>2015-05-08T09:28:26Z</time>
      </trkpt>
      <trkpt lat="43.71422" lon="6.7502">
        <ele>980</ele>
        <time>2015-05-08T09:28:32Z</time>
      </trkpt>
      <trkpt lat="43.71415" lon="6.75031">
        <ele>980</ele>
        <time>2015-05-08T09:28:38Z</time>
      </trkpt>
      <trkpt lat="43.71409" lon="6.75044">
        <ele>981</ele>
        <time>2015-05-08T09:28:44Z</time>
      </trkpt>
      <trkpt lat="43.71405" lon="6.75059">
        <ele>982</ele>
        <time>2015-05-08T09:28:50Z</time>
      </trkpt>
      <trkpt lat="43.71402" lon="6.75069">
        <ele>982</ele>
        <time>2015-05-08T09:28:55Z</time>
      </trkpt>
      <trkpt lat="43.71396" lon="6.75079">
        <ele>982</ele>
        <time>2015-05-08T09:29:01Z</time>
      </trkpt>
      <trkpt lat="43.71386" lon="6.75088">
        <ele>986</ele>
        <time>2015-05-08T09:29:07Z</time>
      </trkpt>
      <trkpt lat="43.71379" lon="6.751">
        <ele>987</ele>
        <time>2015-05-08T09:29:13Z</time>
      </trkpt>
      <trkpt lat="43.71374" lon="6.7511">
        <ele>987</ele>
        <time>2015-05-08T09:29:19Z</time>
      </trkpt>
      <trkpt lat="43.71365" lon="6.75121">
        <ele>988</ele>
        <time>2015-05-08T09:29:25Z</time>
      </trkpt>
      <trkpt lat="43.71357" lon="6.75129">
        <ele>988</ele>
        <time>2015-05-08T09:29:32Z</time>
      </trkpt>
      <trkpt lat="43.71349" lon="6.75133">
        <ele>989</ele>
        <time>2015-05-08T09:29:38Z</time>
      </trkpt>
      <trkpt lat="43.71341" lon="6.7514">
        <ele>989</ele>
        <time>2015-05-08T09:29:44Z</time>
      </trkpt>
      <trkpt lat="43.71337" lon="6.75147">
        <ele>990</ele>
        <time>2015-05-08T09:29:49Z</time>
      </trkpt>
      <trkpt lat="43.71333" lon="6.75155">
        <ele>991</ele>
        <time>2015-05-08T09:29:54Z</time>
      </trkpt>
      <trkpt lat="43.71328" lon="6.75161">
        <ele>992</ele>
        <time>2015-05-08T09:29:59Z</time>
      </trkpt>
      <trkpt lat="43.71323" lon="6.75167">
        <ele>994</ele>
        <time>2015-05-08T09:30:04Z</time>
      </trkpt>
      <trkpt lat="43.71317" lon="6.7517">
        <ele>995</ele>
        <time>2015-05-08T09:30:09Z</time>
      </trkpt>
      <trkpt lat="43.71312" lon="6.75176">
        <ele>996</ele>
        <time>2015-05-08T09:30:15Z</time>
      </trkpt>
      <trkpt lat="43.71306" lon="6.75182">
        <ele>996</ele>
        <time>2015-05-08T09:30:20Z</time>
      </trkpt>
      <trkpt lat="43.71301" lon="6.75186">
        <ele>997</ele>
        <time>2015-05-08T09:30:25Z</time>
      </trkpt>
      <trkpt lat="43.71296" lon="6.75191">
        <ele>997</ele>
        <time>2015-05-08T09:30:31Z</time>
      </trkpt>
      <trkpt lat="43.71289" lon="6.75202">
        <ele>997</ele>
        <time>2015-05-08T09:30:38Z</time>
      </trkpt>
      <trkpt lat="43.71285" lon="6.75213">
        <ele>998</ele>
        <time>2015-05-08T09:30:45Z</time>
      </trkpt>
      <trkpt lat="43.71281" lon="6.75221">
        <ele>999</ele>
        <time>2015-05-08T09:30:51Z</time>
      </trkpt>
      <trkpt lat="43.71274" lon="6.75225">
        <ele>999</ele>
        <time>2015-05-08T09:30:57Z</time>
      </trkpt>
      <trkpt lat="43.71267" lon="6.75227">
        <ele>1000</ele>
        <time>2015-05-08T09:31:02Z</time>
      </trkpt>
      <trkpt lat="43.71261" lon="6.75233">
        <ele>1000</ele>
        <time>2015-05-08T09:31:07Z</time>
      </trkpt>
      <trkpt lat="43.71255" lon="6.75243">
        <ele>1002</ele>
        <time>2015-05-08T09:31:13Z</time>
      </trkpt>
      <trkpt lat="43.7125" lon="6.7525">
        <ele>1004</ele>
        <time>2015-05-08T09:31:18Z</time>
      </trkpt>
      <trkpt lat="43.71243" lon="6.75258">
        <ele>1006</ele>
        <time>2015-05-08T09:31:24Z</time>
      </trkpt>
      <trkpt lat="43.71237" lon="6.75266">
        <ele>1007</ele>
        <time>2015-05-08T09:31:30Z</time>
      </trkpt>
      <trkpt lat="43.71232" lon="6.75273">
        <ele>1007</ele>
        <time>2015-05-08T09:31:35Z</time>
      </trkpt>
      <trkpt lat="43.71225" lon="6.75282">
        <ele>1008</ele>
        <time>2015-05-08T09:31:41Z</time>
      </trkpt>
      <trkpt lat="43.71219" lon="6.75285">
        <ele>1008</ele>
        <time>2015-05-08T09:31:46Z</time>
      </trkpt>
      <trkpt lat="43.71213" lon="6.75288">
        <ele>1009</ele>
        <time>2015-05-08T09:31:51Z</time>
      </trkpt>
      <trkpt lat="43.71205" lon="6.75292">
        <ele>1009</ele>
        <time>2015-05-08T09:31:57Z</time>
      </trkpt>
      <trkpt lat="43.71199" lon="6.75297">
        <ele>1009</ele>
        <time>2015-05-08T09:32:03Z</time>
      </trkpt>
      <trkpt lat="43.71193" lon="6.75301">
        <ele>1010</ele>
        <time>2015-05-08T09:32:09Z</time>
      </trkpt>
      <trkpt lat="43.71192" lon="6.75305">
        <ele>1010</ele>
        <time>2015-05-08T09:32:11Z</time>
      </trkpt>
      <trkpt lat="43.71192" lon="6.7531">
        <ele>1010</ele>
        <time>2015-05-08T09:32:13Z</time>
      </trkpt>
      <trkpt lat="43.71188" lon="6.75316">
        <ele>1011</ele>
        <time>2015-05-08T09:32:18Z</time>
      </trkpt>
      <trkpt lat="43.7118" lon="6.75322">
        <ele>1012</ele>
        <time>2015-05-08T09:32:25Z</time>
      </trkpt>
      <trkpt lat="43.71174" lon="6.75326">
        <ele>1013</ele>
        <time>2015-05-08T09:32:30Z</time>
      </trkpt>
      <trkpt lat="43.71168" lon="6.75331">
        <ele>1014</ele>
        <time>2015-05-08T09:32:35Z</time>
      </trkpt>
      <trkpt lat="43.71162" lon="6.75334">
        <ele>1016</ele>
        <time>2015-05-08T09:32:40Z</time>
      </trkpt>
      <trkpt lat="43.71158" lon="6.75339">
        <ele>1018</ele>
        <time>2015-05-08T09:32:45Z</time>
      </trkpt>
      <trkpt lat="43.71154" lon="6.75346">
        <ele>1020</ele>
        <time>2015-05-08T09:32:50Z</time>
      </trkpt>
      <trkpt lat="43.71148" lon="6.75349">
        <ele>1021</ele>
        <time>2015-05-08T09:32:56Z</time>
      </trkpt>
      <trkpt lat="43.71141" lon="6.75352">
        <ele>1022</ele>
        <time>2015-05-08T09:33:03Z</time>
      </trkpt>
      <trkpt lat="43.71138" lon="6.75357">
        <ele>1022</ele>
        <time>2015-05-08T09:33:19Z</time>
      </trkpt>
      <trkpt lat="43.71134" lon="6.75363">
        <ele>1023</ele>
        <time>2015-05-08T09:33:25Z</time>
      </trkpt>
      <trkpt lat="43.71128" lon="6.75368">
        <ele>1024</ele>
        <time>2015-05-08T09:33:31Z</time>
      </trkpt>
      <trkpt lat="43.71125" lon="6.75369">
        <ele>1024</ele>
        <time>2015-05-08T09:33:34Z</time>
      </trkpt>
      <trkpt lat="43.71122" lon="6.75371">
        <ele>1024</ele>
        <time>2015-05-08T09:33:39Z</time>
      </trkpt>
      <trkpt lat="43.71117" lon="6.75377">
        <ele>1025</ele>
        <time>2015-05-08T09:33:44Z</time>
      </trkpt>
      <trkpt lat="43.71113" lon="6.75383">
        <ele>1025</ele>
        <time>2015-05-08T09:33:50Z</time>
      </trkpt>
      <trkpt lat="43.71107" lon="6.75386">
        <ele>1026</ele>
        <time>2015-05-08T09:33:55Z</time>
      </trkpt>
      <trkpt lat="43.71102" lon="6.75385">
        <ele>1026</ele>
        <time>2015-05-08T09:34:00Z</time>
      </trkpt>
      <trkpt lat="43.71096" lon="6.75386">
        <ele>1026</ele>
        <time>2015-05-08T09:34:07Z</time>
      </trkpt>
      <trkpt lat="43.71093" lon="6.7539">
        <ele>1027</ele>
        <time>2015-05-08T09:34:10Z</time>
      </trkpt>
      <trkpt lat="43.71088" lon="6.75397">
        <ele>1028</ele>
        <time>2015-05-08T09:34:17Z</time>
      </trkpt>
      <trkpt lat="43.71084" lon="6.75403">
        <ele>1029</ele>
        <time>2015-05-08T09:34:22Z</time>
      </trkpt>
      <trkpt lat="43.7108" lon="6.75411">
        <ele>1033</ele>
        <time>2015-05-08T09:34:28Z</time>
      </trkpt>
      <trkpt lat="43.71075" lon="6.75419">
        <ele>1035</ele>
        <time>2015-05-08T09:34:34Z</time>
      </trkpt>
      <trkpt lat="43.71071" lon="6.75425">
        <ele>1036</ele>
        <time>2015-05-08T09:34:41Z</time>
      </trkpt>
      <trkpt lat="43.71066" lon="6.75431">
        <ele>1037</ele>
        <time>2015-05-08T09:34:47Z</time>
      </trkpt>
      <trkpt lat="43.71062" lon="6.75437">
        <ele>1038</ele>
        <time>2015-05-08T09:34:54Z</time>
      </trkpt>
      <trkpt lat="43.71058" lon="6.75445">
        <ele>1039</ele>
        <time>2015-05-08T09:35:00Z</time>
      </trkpt>
      <trkpt lat="43.71054" lon="6.75451">
        <ele>1040</ele>
        <time>2015-05-08T09:35:21Z</time>
      </trkpt>
      <trkpt lat="43.71049" lon="6.75459">
        <ele>1040</ele>
        <time>2015-05-08T09:35:27Z</time>
      </trkpt>
      <trkpt lat="43.71042" lon="6.75461">
        <ele>1041</ele>
        <time>2015-05-08T09:35:33Z</time>
      </trkpt>
      <trkpt lat="43.71035" lon="6.75463">
        <ele>1042</ele>
        <time>2015-05-08T09:35:40Z</time>
      </trkpt>
      <trkpt lat="43.7103" lon="6.75461">
        <ele>1042</ele>
        <time>2015-05-08T09:35:46Z</time>
      </trkpt>
      <trkpt lat="43.71024" lon="6.75464">
        <ele>1043</ele>
        <time>2015-05-08T09:35:53Z</time>
      </trkpt>
      <trkpt lat="43.71018" lon="6.75462">
        <ele>1043</ele>
        <time>2015-05-08T09:35:59Z</time>
      </trkpt>
      <trkpt lat="43.71012" lon="6.75461">
        <ele>1043</ele>
        <time>2015-05-08T09:36:04Z</time>
      </trkpt>
      <trkpt lat="43.71007" lon="6.75458">
        <ele>1043</ele>
        <time>2015-05-08T09:36:11Z</time>
      </trkpt>
      <trkpt lat="43.71" lon="6.75457">
        <ele>1044</ele>
        <time>2015-05-08T09:36:17Z</time>
      </trkpt>
      <trkpt lat="43.70997" lon="6.75456">
        <ele>1053</ele>
        <time>2015-05-08T09:36:21Z</time>
      </trkpt>
      <trkpt lat="43.70991" lon="6.75451">
        <ele>1053</ele>
        <time>2015-05-08T09:36:29Z</time>
      </trkpt>
      <trkpt lat="43.70988" lon="6.75449">
        <ele>1053</ele>
        <time>2015-05-08T09:36:33Z</time>
      </trkpt>
      <trkpt lat="43.70981" lon="6.75449">
        <ele>1053</ele>
        <time>2015-05-08T09:36:40Z</time>
      </trkpt>
      <trkpt lat="43.70975" lon="6.7545">
        <ele>1054</ele>
        <time>2015-05-08T09:36:46Z</time>
      </trkpt>
      <trkpt lat="43.70969" lon="6.7545">
        <ele>1055</ele>
        <time>2015-05-08T09:37:19Z</time>
      </trkpt>
      <trkpt lat="43.70964" lon="6.75456">
        <ele>1055</ele>
        <time>2015-05-08T09:37:24Z</time>
      </trkpt>
      <trkpt lat="43.70959" lon="6.75459">
        <ele>1056</ele>
        <time>2015-05-08T09:37:29Z</time>
      </trkpt>
      <trkpt lat="43.70954" lon="6.75454">
        <ele>1056</ele>
        <time>2015-05-08T09:37:35Z</time>
      </trkpt>
      <trkpt lat="43.70946" lon="6.75456">
        <ele>1057</ele>
        <time>2015-05-08T09:37:41Z</time>
      </trkpt>
      <trkpt lat="43.70942" lon="6.75458">
        <ele>1057</ele>
        <time>2015-05-08T09:37:44Z</time>
      </trkpt>
      <trkpt lat="43.70936" lon="6.75459">
        <ele>1058</ele>
        <time>2015-05-08T09:37:50Z</time>
      </trkpt>
      <trkpt lat="43.70931" lon="6.75464">
        <ele>1058</ele>
        <time>2015-05-08T09:37:55Z</time>
      </trkpt>
      <trkpt lat="43.70928" lon="6.75472">
        <ele>1059</ele>
        <time>2015-05-08T09:38:01Z</time>
      </trkpt>
      <trkpt lat="43.70923" lon="6.75477">
        <ele>1060</ele>
        <time>2015-05-08T09:38:08Z</time>
      </trkpt>
      <trkpt lat="43.70917" lon="6.75477">
        <ele>1060</ele>
        <time>2015-05-08T09:38:14Z</time>
      </trkpt>
      <trkpt lat="43.70911" lon="6.75477">
        <ele>1067</ele>
        <time>2015-05-08T09:38:21Z</time>
      </trkpt>
      <trkpt lat="43.70903" lon="6.75477">
        <ele>1067</ele>
        <time>2015-05-08T09:38:28Z</time>
      </trkpt>
      <trkpt lat="43.70896" lon="6.75479">
        <ele>1067</ele>
        <time>2015-05-08T09:38:34Z</time>
      </trkpt>
      <trkpt lat="43.70894" lon="6.7548">
        <ele>1067</ele>
        <time>2015-05-08T09:38:41Z</time>
      </trkpt>
      <trkpt lat="43.70888" lon="6.75485">
        <ele>1068</ele>
        <time>2015-05-08T09:38:49Z</time>
      </trkpt>
      <trkpt lat="43.70883" lon="6.75484">
        <ele>1068</ele>
        <time>2015-05-08T09:38:54Z</time>
      </trkpt>
      <trkpt lat="43.70877" lon="6.75487">
        <ele>1069</ele>
        <time>2015-05-08T09:38:59Z</time>
      </trkpt>
      <trkpt lat="43.70873" lon="6.75487">
        <ele>1069</ele>
        <time>2015-05-08T09:39:04Z</time>
      </trkpt>
      <trkpt lat="43.70867" lon="6.75487">
        <ele>1069</ele>
        <time>2015-05-08T09:39:12Z</time>
      </trkpt>
      <trkpt lat="43.7086" lon="6.75488">
        <ele>1070</ele>
        <time>2015-05-08T09:39:18Z</time>
      </trkpt>
      <trkpt lat="43.70852" lon="6.75493">
        <ele>1071</ele>
        <time>2015-05-08T09:39:25Z</time>
      </trkpt>
      <trkpt lat="43.70847" lon="6.75492">
        <ele>1072</ele>
        <time>2015-05-08T09:39:31Z</time>
      </trkpt>
      <trkpt lat="43.70841" lon="6.75496">
        <ele>1074</ele>
        <time>2015-05-08T09:39:36Z</time>
      </trkpt>
      <trkpt lat="43.70836" lon="6.75496">
        <ele>1074</ele>
        <time>2015-05-08T09:39:41Z</time>
      </trkpt>
      <trkpt lat="43.70834" lon="6.75492">
        <ele>1074</ele>
        <time>2015-05-08T09:39:48Z</time>
      </trkpt>
      <trkpt lat="43.70828" lon="6.75494">
        <ele>1075</ele>
        <time>2015-05-08T09:39:53Z</time>
      </trkpt>
      <trkpt lat="43.70822" lon="6.75498">
        <ele>1075</ele>
        <time>2015-05-08T09:39:59Z</time>
      </trkpt>
      <trkpt lat="43.70816" lon="6.755">
        <ele>1075</ele>
        <time>2015-05-08T09:40:05Z</time>
      </trkpt>
      <trkpt lat="43.70808" lon="6.75503">
        <ele>1079</ele>
        <time>2015-05-08T09:40:11Z</time>
      </trkpt>
      <trkpt lat="43.70802" lon="6.75508">
        <ele>1079</ele>
        <time>2015-05-08T09:40:16Z</time>
      </trkpt>
      <trkpt lat="43.70796" lon="6.75511">
        <ele>1080</ele>
        <time>2015-05-08T09:40:22Z</time>
      </trkpt>
      <trkpt lat="43.7079" lon="6.75515">
        <ele>1080</ele>
        <time>2015-05-08T09:40:27Z</time>
      </trkpt>
      <trkpt lat="43.70784" lon="6.7552">
        <ele>1080</ele>
        <time>2015-05-08T09:40:33Z</time>
      </trkpt>
      <trkpt lat="43.70779" lon="6.75524">
        <ele>1081</ele>
        <time>2015-05-08T09:40:39Z</time>
      </trkpt>
      <trkpt lat="43.70774" lon="6.75528">
        <ele>1081</ele>
        <time>2015-05-08T09:40:45Z</time>
      </trkpt>
      <trkpt lat="43.70768" lon="6.75532">
        <ele>1081</ele>
        <time>2015-05-08T09:40:51Z</time>
      </trkpt>
      <trkpt lat="43.70763" lon="6.75539">
        <ele>1082</ele>
        <time>2015-05-08T09:40:57Z</time>
      </trkpt>
      <trkpt lat="43.70758" lon="6.75545">
        <ele>1082</ele>
        <time>2015-05-08T09:41:03Z</time>
      </trkpt>
      <trkpt lat="43.70754" lon="6.75552">
        <ele>1083</ele>
        <time>2015-05-08T09:41:08Z</time>
      </trkpt>
      <trkpt lat="43.70751" lon="6.75559">
        <ele>1083</ele>
        <time>2015-05-08T09:41:13Z</time>
      </trkpt>
      <trkpt lat="43.70748" lon="6.75568">
        <ele>1086</ele>
        <time>2015-05-08T09:41:18Z</time>
      </trkpt>
      <trkpt lat="43.70744" lon="6.75581">
        <ele>1087</ele>
        <time>2015-05-08T09:41:24Z</time>
      </trkpt>
      <trkpt lat="43.7074" lon="6.75592">
        <ele>1087</ele>
        <time>2015-05-08T09:41:31Z</time>
      </trkpt>
      <trkpt lat="43.70731" lon="6.75597">
        <ele>1087</ele>
        <time>2015-05-08T09:41:37Z</time>
      </trkpt>
      <trkpt lat="43.70725" lon="6.75598">
        <ele>1087</ele>
        <time>2015-05-08T09:41:42Z</time>
      </trkpt>
      <trkpt lat="43.70713" lon="6.75604">
        <ele>1086</ele>
        <time>2015-05-08T09:41:48Z</time>
      </trkpt>
      <trkpt lat="43.7069" lon="6.75607">
        <ele>1086</ele>
        <time>2015-05-08T09:41:53Z</time>
      </trkpt>
      <trkpt lat="43.70662" lon="6.75596">
        <ele>1086</ele>
        <time>2015-05-08T09:41:58Z</time>
      </trkpt>
      <trkpt lat="43.7063" lon="6.756">
        <ele>1085</ele>
        <time>2015-05-08T09:42:03Z</time>
      </trkpt>
      <trkpt lat="43.70616" lon="6.75599">
        <ele>1085</ele>
        <time>2015-05-08T09:42:06Z</time>
      </trkpt>
      <trkpt lat="43.70604" lon="6.75594">
        <ele>1086</ele>
        <time>2015-05-08T09:42:12Z</time>
      </trkpt>
      <trkpt lat="43.70601" lon="6.75591">
        <ele>1086</ele>
        <time>2015-05-08T09:42:15Z</time>
      </trkpt>
      <trkpt lat="43.70598" lon="6.75589">
        <ele>1086</ele>
        <time>2015-05-08T09:42:17Z</time>
      </trkpt>
      <trkpt lat="43.70591" lon="6.75585">
        <ele>1086</ele>
        <time>2015-05-08T09:42:23Z</time>
      </trkpt>
      <trkpt lat="43.70585" lon="6.75582">
        <ele>1087</ele>
        <time>2015-05-08T09:42:28Z</time>
      </trkpt>
      <trkpt lat="43.70576" lon="6.75577">
        <ele>1089</ele>
        <time>2015-05-08T09:42:34Z</time>
      </trkpt>
      <trkpt lat="43.7057" lon="6.75573">
        <ele>1091</ele>
        <time>2015-05-08T09:42:39Z</time>
      </trkpt>
      <trkpt lat="43.70567" lon="6.75564">
        <ele>1092</ele>
        <time>2015-05-08T09:42:45Z</time>
      </trkpt>
      <trkpt lat="43.70566" lon="6.75555">
        <ele>1093</ele>
        <time>2015-05-08T09:42:51Z</time>
      </trkpt>
      <trkpt lat="43.70565" lon="6.75546">
        <ele>1094</ele>
        <time>2015-05-08T09:42:57Z</time>
      </trkpt>
      <trkpt lat="43.70563" lon="6.75538">
        <ele>1094</ele>
        <time>2015-05-08T09:43:03Z</time>
      </trkpt>
      <trkpt lat="43.70562" lon="6.75529">
        <ele>1094</ele>
        <time>2015-05-08T09:43:08Z</time>
      </trkpt>
      <trkpt lat="43.7056" lon="6.75521">
        <ele>1094</ele>
        <time>2015-05-08T09:43:13Z</time>
      </trkpt>
      <trkpt lat="43.70559" lon="6.75513">
        <ele>1095</ele>
        <time>2015-05-08T09:43:19Z</time>
      </trkpt>
      <trkpt lat="43.70556" lon="6.75504">
        <ele>1095</ele>
        <time>2015-05-08T09:43:26Z</time>
      </trkpt>
      <trkpt lat="43.70553" lon="6.75498">
        <ele>1098</ele>
        <time>2015-05-08T09:43:31Z</time>
      </trkpt>
      <trkpt lat="43.70548" lon="6.75492">
        <ele>1099</ele>
        <time>2015-05-08T09:43:38Z</time>
      </trkpt>
      <trkpt lat="43.70544" lon="6.75485">
        <ele>1099</ele>
        <time>2015-05-08T09:43:46Z</time>
      </trkpt>
      <trkpt lat="43.70542" lon="6.75476">
        <ele>1099</ele>
        <time>2015-05-08T09:43:52Z</time>
      </trkpt>
      <trkpt lat="43.70539" lon="6.75469">
        <ele>1100</ele>
        <time>2015-05-08T09:44:03Z</time>
      </trkpt>
      <trkpt lat="43.70536" lon="6.75469">
        <ele>1100</ele>
        <time>2015-05-08T09:44:23Z</time>
      </trkpt>
      <trkpt lat="43.7053" lon="6.75468">
        <ele>1101</ele>
        <time>2015-05-08T09:44:28Z</time>
      </trkpt>
      <trkpt lat="43.70524" lon="6.75466">
        <ele>1101</ele>
        <time>2015-05-08T09:44:34Z</time>
      </trkpt>
      <trkpt lat="43.70518" lon="6.7546">
        <ele>1102</ele>
        <time>2015-05-08T09:44:39Z</time>
      </trkpt>
      <trkpt lat="43.70513" lon="6.75453">
        <ele>1103</ele>
        <time>2015-05-08T09:44:45Z</time>
      </trkpt>
      <trkpt lat="43.7051" lon="6.75445">
        <ele>1103</ele>
        <time>2015-05-08T09:44:50Z</time>
      </trkpt>
      <trkpt lat="43.7051" lon="6.75437">
        <ele>1104</ele>
        <time>2015-05-08T09:44:57Z</time>
      </trkpt>
      <trkpt lat="43.70512" lon="6.75428">
        <ele>1105</ele>
        <time>2015-05-08T09:45:02Z</time>
      </trkpt>
      <trkpt lat="43.70505" lon="6.75421">
        <ele>1108</ele>
        <time>2015-05-08T09:45:09Z</time>
      </trkpt>
      <trkpt lat="43.705" lon="6.75416">
        <ele>1111</ele>
        <time>2015-05-08T09:45:16Z</time>
      </trkpt>
      <trkpt lat="43.70493" lon="6.75414">
        <ele>1112</ele>
        <time>2015-05-08T09:45:23Z</time>
      </trkpt>
      <trkpt lat="43.70487" lon="6.75411">
        <ele>1113</ele>
        <time>2015-05-08T09:45:29Z</time>
      </trkpt>
      <trkpt lat="43.7048" lon="6.75409">
        <ele>1114</ele>
        <time>2015-05-08T09:45:36Z</time>
      </trkpt>
      <trkpt lat="43.70474" lon="6.75408">
        <ele>1114</ele>
        <time>2015-05-08T09:45:43Z</time>
      </trkpt>
      <trkpt lat="43.70468" lon="6.75408">
        <ele>1115</ele>
        <time>2015-05-08T09:45:51Z</time>
      </trkpt>
      <trkpt lat="43.70463" lon="6.75405">
        <ele>1115</ele>
        <time>2015-05-08T09:45:58Z</time>
      </trkpt>
      <trkpt lat="43.70457" lon="6.75405">
        <ele>1116</ele>
        <time>2015-05-08T09:46:05Z</time>
      </trkpt>
      <trkpt lat="43.70451" lon="6.75402">
        <ele>1116</ele>
        <time>2015-05-08T09:46:13Z</time>
      </trkpt>
      <trkpt lat="43.70445" lon="6.75401">
        <ele>1117</ele>
        <time>2015-05-08T09:46:19Z</time>
      </trkpt>
      <trkpt lat="43.70438" lon="6.75399">
        <ele>1117</ele>
        <time>2015-05-08T09:46:27Z</time>
      </trkpt>
      <trkpt lat="43.70435" lon="6.75399">
        <ele>1117</ele>
        <time>2015-05-08T09:46:30Z</time>
      </trkpt>
      <trkpt lat="43.70429" lon="6.75397">
        <ele>1117</ele>
        <time>2015-05-08T09:46:36Z</time>
      </trkpt>
      <trkpt lat="43.70424" lon="6.75393">
        <ele>1118</ele>
        <time>2015-05-08T09:46:44Z</time>
      </trkpt>
      <trkpt lat="43.70421" lon="6.75386">
        <ele>1117</ele>
        <time>2015-05-08T09:46:49Z</time>
      </trkpt>
      <trkpt lat="43.70416" lon="6.75379">
        <ele>1123</ele>
        <time>2015-05-08T09:46:55Z</time>
      </trkpt>
      <trkpt lat="43.70413" lon="6.75379">
        <ele>1123</ele>
        <time>2015-05-08T09:46:57Z</time>
      </trkpt>
      <trkpt lat="43.7041" lon="6.75378">
        <ele>1123</ele>
        <time>2015-05-08T09:46:59Z</time>
      </trkpt>
      <trkpt lat="43.70402" lon="6.75377">
        <ele>1123</ele>
        <time>2015-05-08T09:47:04Z</time>
      </trkpt>
      <trkpt lat="43.70398" lon="6.75376">
        <ele>1124</ele>
        <time>2015-05-08T09:47:07Z</time>
      </trkpt>
      <trkpt lat="43.70392" lon="6.75372">
        <ele>1124</ele>
        <time>2015-05-08T09:47:13Z</time>
      </trkpt>
      <trkpt lat="43.70383" lon="6.75371">
        <ele>1124</ele>
        <time>2015-05-08T09:47:19Z</time>
      </trkpt>
      <trkpt lat="43.70376" lon="6.75367">
        <ele>1125</ele>
        <time>2015-05-08T09:47:25Z</time>
      </trkpt>
      <trkpt lat="43.70368" lon="6.75367">
        <ele>1125</ele>
        <time>2015-05-08T09:47:30Z</time>
      </trkpt>
      <trkpt lat="43.70362" lon="6.75363">
        <ele>1125</ele>
        <time>2015-05-08T09:47:35Z</time>
      </trkpt>
      <trkpt lat="43.70358" lon="6.75362">
        <ele>1126</ele>
        <time>2015-05-08T09:47:38Z</time>
      </trkpt>
      <trkpt lat="43.70349" lon="6.75356">
        <ele>1126</ele>
        <time>2015-05-08T09:47:45Z</time>
      </trkpt>
      <trkpt lat="43.70343" lon="6.75352">
        <ele>1127</ele>
        <time>2015-05-08T09:47:50Z</time>
      </trkpt>
      <trkpt lat="43.70335" lon="6.75346">
        <ele>1128</ele>
        <time>2015-05-08T09:47:56Z</time>
      </trkpt>
      <trkpt lat="43.70328" lon="6.75343">
        <ele>1130</ele>
        <time>2015-05-08T09:48:01Z</time>
      </trkpt>
      <trkpt lat="43.70323" lon="6.75335">
        <ele>1130</ele>
        <time>2015-05-08T09:48:06Z</time>
      </trkpt>
      <trkpt lat="43.70315" lon="6.75331">
        <ele>1129</ele>
        <time>2015-05-08T09:48:12Z</time>
      </trkpt>
      <trkpt lat="43.70309" lon="6.75332">
        <ele>1129</ele>
        <time>2015-05-08T09:48:17Z</time>
      </trkpt>
      <trkpt lat="43.70302" lon="6.75324">
        <ele>1129</ele>
        <time>2015-05-08T09:48:23Z</time>
      </trkpt>
      <trkpt lat="43.70293" lon="6.75326">
        <ele>1129</ele>
        <time>2015-05-08T09:48:29Z</time>
      </trkpt>
      <trkpt lat="43.70282" lon="6.75323">
        <ele>1130</ele>
        <time>2015-05-08T09:48:37Z</time>
      </trkpt>
      <trkpt lat="43.70272" lon="6.75325">
        <ele>1130</ele>
        <time>2015-05-08T09:48:43Z</time>
      </trkpt>
      <trkpt lat="43.70263" lon="6.75322">
        <ele>1131</ele>
        <time>2015-05-08T09:48:49Z</time>
      </trkpt>
      <trkpt lat="43.70254" lon="6.75319">
        <ele>1131</ele>
        <time>2015-05-08T09:48:55Z</time>
      </trkpt>
      <trkpt lat="43.70244" lon="6.75316">
        <ele>1128</ele>
        <time>2015-05-08T09:49:00Z</time>
      </trkpt>
      <trkpt lat="43.70238" lon="6.75312">
        <ele>1127</ele>
        <time>2015-05-08T09:49:05Z</time>
      </trkpt>
      <trkpt lat="43.70238" lon="6.75316">
        <ele>1128</ele>
        <time>2015-05-08T09:50:17Z</time>
      </trkpt>
      <trkpt lat="43.7024" lon="6.75312">
        <ele>1128</ele>
        <time>2015-05-08T09:51:20Z</time>
      </trkpt>
      <trkpt lat="43.70239" lon="6.75309">
        <ele>1127</ele>
        <time>2015-05-08T09:51:30Z</time>
      </trkpt>
      <trkpt lat="43.70237" lon="6.75312">
        <ele>1127</ele>
        <time>2015-05-08T09:51:35Z</time>
      </trkpt>
      <trkpt lat="43.70234" lon="6.75313">
        <ele>1127</ele>
        <time>2015-05-08T09:58:26Z</time>
      </trkpt>
      <trkpt lat="43.70236" lon="6.75311">
        <ele>1127</ele>
        <time>2015-05-08T10:08:55Z</time>
      </trkpt>
      <trkpt lat="43.70239" lon="6.7531">
        <ele>1127</ele>
        <time>2015-05-08T10:14:09Z</time>
      </trkpt>
      <trkpt lat="43.70239" lon="6.75314">
        <ele>1128</ele>
        <time>2015-05-08T10:14:20Z</time>
      </trkpt>
      <trkpt lat="43.70236" lon="6.75314">
        <ele>1127</ele>
        <time>2015-05-08T10:14:32Z</time>
      </trkpt>
      <trkpt lat="43.70239" lon="6.75314">
        <ele>1128</ele>
        <time>2015-05-08T10:14:47Z</time>
      </trkpt>
      <trkpt lat="43.70242" lon="6.75315">
        <ele>1128</ele>
        <time>2015-05-08T10:15:10Z</time>
      </trkpt>
      <trkpt lat="43.70242" lon="6.75312">
        <ele>1128</ele>
        <time>2015-05-08T10:15:15Z</time>
      </trkpt>
      <trkpt lat="43.70241" lon="6.75309">
        <ele>1127</ele>
        <time>2015-05-08T10:15:25Z</time>
      </trkpt>
      <trkpt lat="43.70241" lon="6.75304">
        <ele>1127</ele>
        <time>2015-05-08T10:15:30Z</time>
      </trkpt>
      <trkpt lat="43.70238" lon="6.75313">
        <ele>1127</ele>
        <time>2015-05-08T10:15:31Z</time>
      </trkpt>
      <trkpt lat="43.70242" lon="6.75313">
        <ele>1128</ele>
        <time>2015-05-08T10:15:36Z</time>
      </trkpt>
      <trkpt lat="43.70241" lon="6.75316">
        <ele>1128</ele>
        <time>2015-05-08T10:17:40Z</time>
      </trkpt>
      <trkpt lat="43.70238" lon="6.75315">
        <ele>1128</ele>
        <time>2015-05-08T10:18:21Z</time>
      </trkpt>
      <trkpt lat="43.70232" lon="6.75314">
        <ele>1127</ele>
        <time>2015-05-08T10:18:26Z</time>
      </trkpt>
      <trkpt lat="43.70227" lon="6.75314">
        <ele>1126</ele>
        <time>2015-05-08T10:18:33Z</time>
      </trkpt>
      <trkpt lat="43.70226" lon="6.7531">
        <ele>1126</ele>
        <time>2015-05-08T10:18:41Z</time>
      </trkpt>
      <trkpt lat="43.70223" lon="6.75308">
        <ele>1126</ele>
        <time>2015-05-08T10:19:02Z</time>
      </trkpt>
      <trkpt lat="43.70214" lon="6.753">
        <ele>1125</ele>
        <time>2015-05-08T10:19:08Z</time>
      </trkpt>
      <trkpt lat="43.70206" lon="6.75292">
        <ele>1124</ele>
        <time>2015-05-08T10:19:14Z</time>
      </trkpt>
      <trkpt lat="43.70197" lon="6.75284">
        <ele>1123</ele>
        <time>2015-05-08T10:19:20Z</time>
      </trkpt>
      <trkpt lat="43.70192" lon="6.75279">
        <ele>1122</ele>
        <time>2015-05-08T10:19:27Z</time>
      </trkpt>
      <trkpt lat="43.70181" lon="6.75274">
        <ele>1121</ele>
        <time>2015-05-08T10:19:33Z</time>
      </trkpt>
      <trkpt lat="43.70171" lon="6.75275">
        <ele>1120</ele>
        <time>2015-05-08T10:19:39Z</time>
      </trkpt>
      <trkpt lat="43.70159" lon="6.75275">
        <ele>1112</ele>
        <time>2015-05-08T10:19:44Z</time>
      </trkpt>
      <trkpt lat="43.70146" lon="6.7527">
        <ele>1111</ele>
        <time>2015-05-08T10:19:49Z</time>
      </trkpt>
      <trkpt lat="43.70135" lon="6.75264">
        <ele>1110</ele>
        <time>2015-05-08T10:19:54Z</time>
      </trkpt>
      <trkpt lat="43.70121" lon="6.75253">
        <ele>1108</ele>
        <time>2015-05-08T10:19:59Z</time>
      </trkpt>
      <trkpt lat="43.70107" lon="6.75256">
        <ele>1106</ele>
        <time>2015-05-08T10:20:05Z</time>
      </trkpt>
      <trkpt lat="43.70099" lon="6.75248">
        <ele>1101</ele>
        <time>2015-05-08T10:20:10Z</time>
      </trkpt>
      <trkpt lat="43.70089" lon="6.75251">
        <ele>1101</ele>
        <time>2015-05-08T10:20:17Z</time>
      </trkpt>
      <trkpt lat="43.70078" lon="6.75246">
        <ele>1097</ele>
        <time>2015-05-08T10:20:22Z</time>
      </trkpt>
      <trkpt lat="43.70078" lon="6.75237">
        <ele>1096</ele>
        <time>2015-05-08T10:20:42Z</time>
      </trkpt>
      <trkpt lat="43.70081" lon="6.75235">
        <ele>1096</ele>
        <time>2015-05-08T10:21:15Z</time>
      </trkpt>
      <trkpt lat="43.7008" lon="6.7523">
        <ele>1095</ele>
        <time>2015-05-08T10:21:27Z</time>
      </trkpt>
      <trkpt lat="43.70076" lon="6.75206">
        <ele>1093</ele>
        <time>2015-05-08T10:21:32Z</time>
      </trkpt>
      <trkpt lat="43.70075" lon="6.75176">
        <ele>1093</ele>
        <time>2015-05-08T10:21:37Z</time>
      </trkpt>
      <trkpt lat="43.70079" lon="6.75156">
        <ele>1091</ele>
        <time>2015-05-08T10:21:42Z</time>
      </trkpt>
      <trkpt lat="43.70074" lon="6.7513">
        <ele>1088</ele>
        <time>2015-05-08T10:21:47Z</time>
      </trkpt>
      <trkpt lat="43.70069" lon="6.75119">
        <ele>1087</ele>
        <time>2015-05-08T10:21:53Z</time>
      </trkpt>
      <trkpt lat="43.70061" lon="6.75104">
        <ele>1087</ele>
        <time>2015-05-08T10:21:58Z</time>
      </trkpt>
      <trkpt lat="43.70051" lon="6.75081">
        <ele>1078</ele>
        <time>2015-05-08T10:22:03Z</time>
      </trkpt>
      <trkpt lat="43.70035" lon="6.75072">
        <ele>1077</ele>
        <time>2015-05-08T10:22:08Z</time>
      </trkpt>
      <trkpt lat="43.70024" lon="6.75078">
        <ele>1078</ele>
        <time>2015-05-08T10:22:13Z</time>
      </trkpt>
      <trkpt lat="43.70008" lon="6.75077">
        <ele>1080</ele>
        <time>2015-05-08T10:22:18Z</time>
      </trkpt>
      <trkpt lat="43.69994" lon="6.75073">
        <ele>1076</ele>
        <time>2015-05-08T10:22:23Z</time>
      </trkpt>
      <trkpt lat="43.6998" lon="6.75075">
        <ele>1073</ele>
        <time>2015-05-08T10:22:28Z</time>
      </trkpt>
      <trkpt lat="43.69975" lon="6.75094">
        <ele>1080</ele>
        <time>2015-05-08T10:22:34Z</time>
      </trkpt>
      <trkpt lat="43.69971" lon="6.75116">
        <ele>1079</ele>
        <time>2015-05-08T10:22:39Z</time>
      </trkpt>
      <trkpt lat="43.69958" lon="6.75135">
        <ele>1079</ele>
        <time>2015-05-08T10:22:44Z</time>
      </trkpt>
      <trkpt lat="43.69952" lon="6.75151">
        <ele>1078</ele>
        <time>2015-05-08T10:22:49Z</time>
      </trkpt>
      <trkpt lat="43.69939" lon="6.75168">
        <ele>1077</ele>
        <time>2015-05-08T10:22:54Z</time>
      </trkpt>
      <trkpt lat="43.69928" lon="6.75161">
        <ele>1075</ele>
        <time>2015-05-08T10:22:59Z</time>
      </trkpt>
      <trkpt lat="43.69918" lon="6.75153">
        <ele>1075</ele>
        <time>2015-05-08T10:23:04Z</time>
      </trkpt>
      <trkpt lat="43.69905" lon="6.75137">
        <ele>1065</ele>
        <time>2015-05-08T10:23:09Z</time>
      </trkpt>
      <trkpt lat="43.69897" lon="6.75123">
        <ele>1063</ele>
        <time>2015-05-08T10:23:14Z</time>
      </trkpt>
      <trkpt lat="43.6988" lon="6.75112">
        <ele>1061</ele>
        <time>2015-05-08T10:23:19Z</time>
      </trkpt>
      <trkpt lat="43.69859" lon="6.75105">
        <ele>1058</ele>
        <time>2015-05-08T10:23:24Z</time>
      </trkpt>
      <trkpt lat="43.69842" lon="6.75104">
        <ele>1056</ele>
        <time>2015-05-08T10:23:30Z</time>
      </trkpt>
      <trkpt lat="43.6983" lon="6.75106">
        <ele>1042</ele>
        <time>2015-05-08T10:23:36Z</time>
      </trkpt>
      <trkpt lat="43.69816" lon="6.7511">
        <ele>1039</ele>
        <time>2015-05-08T10:23:41Z</time>
      </trkpt>
      <trkpt lat="43.69806" lon="6.751">
        <ele>1038</ele>
        <time>2015-05-08T10:23:48Z</time>
      </trkpt>
      <trkpt lat="43.69793" lon="6.75096">
        <ele>1035</ele>
        <time>2015-05-08T10:23:53Z</time>
      </trkpt>
      <trkpt lat="43.69784" lon="6.75081">
        <ele>1029</ele>
        <time>2015-05-08T10:23:58Z</time>
      </trkpt>
      <trkpt lat="43.69777" lon="6.75061">
        <ele>1027</ele>
        <time>2015-05-08T10:24:02Z</time>
      </trkpt>
      <trkpt lat="43.69771" lon="6.75041">
        <ele>1026</ele>
        <time>2015-05-08T10:24:08Z</time>
      </trkpt>
      <trkpt lat="43.6976" lon="6.75027">
        <ele>1023</ele>
        <time>2015-05-08T10:24:13Z</time>
      </trkpt>
      <trkpt lat="43.69757" lon="6.7501">
        <ele>1019</ele>
        <time>2015-05-08T10:24:18Z</time>
      </trkpt>
      <trkpt lat="43.6976" lon="6.74985">
        <ele>1014</ele>
        <time>2015-05-08T10:24:22Z</time>
      </trkpt>
      <trkpt lat="43.69765" lon="6.74972">
        <ele>1013</ele>
        <time>2015-05-08T10:24:28Z</time>
      </trkpt>
      <trkpt lat="43.69769" lon="6.74969">
        <ele>1013</ele>
        <time>2015-05-08T10:24:32Z</time>
      </trkpt>
      <trkpt lat="43.69775" lon="6.74963">
        <ele>1012</ele>
        <time>2015-05-08T10:24:37Z</time>
      </trkpt>
      <trkpt lat="43.69786" lon="6.74961">
        <ele>1013</ele>
        <time>2015-05-08T10:24:42Z</time>
      </trkpt>
      <trkpt lat="43.69798" lon="6.74959">
        <ele>1014</ele>
        <time>2015-05-08T10:24:47Z</time>
      </trkpt>
      <trkpt lat="43.69811" lon="6.74935">
        <ele>1012</ele>
        <time>2015-05-08T10:24:52Z</time>
      </trkpt>
      <trkpt lat="43.69823" lon="6.74929">
        <ele>1011</ele>
        <time>2015-05-08T10:24:57Z</time>
      </trkpt>
      <trkpt lat="43.69832" lon="6.74915">
        <ele>1007</ele>
        <time>2015-05-08T10:25:02Z</time>
      </trkpt>
      <trkpt lat="43.69842" lon="6.74914">
        <ele>1004</ele>
        <time>2015-05-08T10:25:05Z</time>
      </trkpt>
      <trkpt lat="43.69858" lon="6.74911">
        <ele>1000</ele>
        <time>2015-05-08T10:25:10Z</time>
      </trkpt>
      <trkpt lat="43.69876" lon="6.749">
        <ele>997</ele>
        <time>2015-05-08T10:25:16Z</time>
      </trkpt>
      <trkpt lat="43.69897" lon="6.74895">
        <ele>997</ele>
        <time>2015-05-08T10:25:21Z</time>
      </trkpt>
      <trkpt lat="43.69918" lon="6.74886">
        <ele>1001</ele>
        <time>2015-05-08T10:25:27Z</time>
      </trkpt>
      <trkpt lat="43.69931" lon="6.74882">
        <ele>1001</ele>
        <time>2015-05-08T10:25:32Z</time>
      </trkpt>
      <trkpt lat="43.6994" lon="6.74872">
        <ele>999</ele>
        <time>2015-05-08T10:25:37Z</time>
      </trkpt>
      <trkpt lat="43.69947" lon="6.74858">
        <ele>997</ele>
        <time>2015-05-08T10:25:42Z</time>
      </trkpt>
      <trkpt lat="43.69959" lon="6.74839">
        <ele>996</ele>
        <time>2015-05-08T10:25:47Z</time>
      </trkpt>
      <trkpt lat="43.69962" lon="6.74836">
        <ele>996</ele>
        <time>2015-05-08T10:25:48Z</time>
      </trkpt>
      <trkpt lat="43.69971" lon="6.74814">
        <ele>977</ele>
        <time>2015-05-08T10:25:54Z</time>
      </trkpt>
      <trkpt lat="43.69967" lon="6.74809">
        <ele>976</ele>
        <time>2015-05-08T10:25:56Z</time>
      </trkpt>
      <trkpt lat="43.69966" lon="6.74794">
        <ele>973</ele>
        <time>2015-05-08T10:26:02Z</time>
      </trkpt>
      <trkpt lat="43.69961" lon="6.74781">
        <ele>970</ele>
        <time>2015-05-08T10:26:07Z</time>
      </trkpt>
      <trkpt lat="43.69957" lon="6.74765">
        <ele>967</ele>
        <time>2015-05-08T10:26:12Z</time>
      </trkpt>
      <trkpt lat="43.69959" lon="6.7476">
        <ele>967</ele>
        <time>2015-05-08T10:26:14Z</time>
      </trkpt>
      <trkpt lat="43.69961" lon="6.74748">
        <ele>952</ele>
        <time>2015-05-08T10:26:19Z</time>
      </trkpt>
      <trkpt lat="43.69964" lon="6.74745">
        <ele>952</ele>
        <time>2015-05-08T10:26:29Z</time>
      </trkpt>
      <trkpt lat="43.69967" lon="6.74742">
        <ele>952</ele>
        <time>2015-05-08T10:26:35Z</time>
      </trkpt>
      <trkpt lat="43.69968" lon="6.74731">
        <ele>951</ele>
        <time>2015-05-08T10:26:41Z</time>
      </trkpt>
      <trkpt lat="43.69965" lon="6.74727">
        <ele>950</ele>
        <time>2015-05-08T10:26:46Z</time>
      </trkpt>
      <trkpt lat="43.69968" lon="6.74724">
        <ele>950</ele>
        <time>2015-05-08T10:28:16Z</time>
      </trkpt>
      <trkpt lat="43.6997" lon="6.7472">
        <ele>950</ele>
        <time>2015-05-08T10:28:18Z</time>
      </trkpt>
      <trkpt lat="43.69972" lon="6.74711">
        <ele>949</ele>
        <time>2015-05-08T10:28:23Z</time>
      </trkpt>
      <trkpt lat="43.69983" lon="6.74695">
        <ele>947</ele>
        <time>2015-05-08T10:28:29Z</time>
      </trkpt>
      <trkpt lat="43.69983" lon="6.74689">
        <ele>946</ele>
        <time>2015-05-08T10:28:34Z</time>
      </trkpt>
      <trkpt lat="43.69985" lon="6.74671">
        <ele>944</ele>
        <time>2015-05-08T10:28:39Z</time>
      </trkpt>
      <trkpt lat="43.69971" lon="6.74661">
        <ele>931</ele>
        <time>2015-05-08T10:28:44Z</time>
      </trkpt>
      <trkpt lat="43.69953" lon="6.74646">
        <ele>928</ele>
        <time>2015-05-08T10:28:49Z</time>
      </trkpt>
      <trkpt lat="43.69952" lon="6.74623">
        <ele>925</ele>
        <time>2015-05-08T10:28:54Z</time>
      </trkpt>
      <trkpt lat="43.69949" lon="6.74606">
        <ele>923</ele>
        <time>2015-05-08T10:29:00Z</time>
      </trkpt>
      <trkpt lat="43.69947" lon="6.74586">
        <ele>921</ele>
        <time>2015-05-08T10:29:05Z</time>
      </trkpt>
      <trkpt lat="43.69946" lon="6.74581">
        <ele>908</ele>
        <time>2015-05-08T10:29:06Z</time>
      </trkpt>
      <trkpt lat="43.69933" lon="6.74569">
        <ele>908</ele>
        <time>2015-05-08T10:29:12Z</time>
      </trkpt>
      <trkpt lat="43.69925" lon="6.74562">
        <ele>907</ele>
        <time>2015-05-08T10:29:17Z</time>
      </trkpt>
      <trkpt lat="43.69921" lon="6.74561">
        <ele>907</ele>
        <time>2015-05-08T10:29:24Z</time>
      </trkpt>
      <trkpt lat="43.69918" lon="6.74558">
        <ele>906</ele>
        <time>2015-05-08T10:29:25Z</time>
      </trkpt>
      <trkpt lat="43.69914" lon="6.7455">
        <ele>899</ele>
        <time>2015-05-08T10:29:31Z</time>
      </trkpt>
      <trkpt lat="43.69913" lon="6.74545">
        <ele>897</ele>
        <time>2015-05-08T10:29:34Z</time>
      </trkpt>
      <trkpt lat="43.69909" lon="6.74534">
        <ele>895</ele>
        <time>2015-05-08T10:29:39Z</time>
      </trkpt>
      <trkpt lat="43.69899" lon="6.74514">
        <ele>892</ele>
        <time>2015-05-08T10:29:44Z</time>
      </trkpt>
      <trkpt lat="43.69898" lon="6.74507">
        <ele>892</ele>
        <time>2015-05-08T10:29:45Z</time>
      </trkpt>
      <trkpt lat="43.69888" lon="6.74484">
        <ele>879</ele>
        <time>2015-05-08T10:29:50Z</time>
      </trkpt>
      <trkpt lat="43.6987" lon="6.74471">
        <ele>876</ele>
        <time>2015-05-08T10:29:55Z</time>
      </trkpt>
      <trkpt lat="43.69865" lon="6.74466">
        <ele>875</ele>
        <time>2015-05-08T10:29:56Z</time>
      </trkpt>
      <trkpt lat="43.69848" lon="6.74455">
        <ele>873</ele>
        <time>2015-05-08T10:30:00Z</time>
      </trkpt>
      <trkpt lat="43.69824" lon="6.74438">
        <ele>868</ele>
        <time>2015-05-08T10:30:05Z</time>
      </trkpt>
      <trkpt lat="43.69803" lon="6.74439">
        <ele>868</ele>
        <time>2015-05-08T10:30:10Z</time>
      </trkpt>
      <trkpt lat="43.69788" lon="6.74424">
        <ele>867</ele>
        <time>2015-05-08T10:30:15Z</time>
      </trkpt>
      <trkpt lat="43.69782" lon="6.74422">
        <ele>866</ele>
        <time>2015-05-08T10:30:21Z</time>
      </trkpt>
      <trkpt lat="43.69785" lon="6.74425">
        <ele>867</ele>
        <time>2015-05-08T10:30:29Z</time>
      </trkpt>
      <trkpt lat="43.69786" lon="6.74422">
        <ele>867</ele>
        <time>2015-05-08T10:31:03Z</time>
      </trkpt>
      <trkpt lat="43.69788" lon="6.74424">
        <ele>867</ele>
        <time>2015-05-08T10:31:51Z</time>
      </trkpt>
      <trkpt lat="43.69785" lon="6.74423">
        <ele>867</ele>
        <time>2015-05-08T10:32:18Z</time>
      </trkpt>
      <trkpt lat="43.69786" lon="6.74418">
        <ele>866</ele>
        <time>2015-05-08T10:32:28Z</time>
      </trkpt>
      <trkpt lat="43.69798" lon="6.74413">
        <ele>857</ele>
        <time>2015-05-08T10:32:34Z</time>
      </trkpt>
      <trkpt lat="43.69812" lon="6.74408">
        <ele>858</ele>
        <time>2015-05-08T10:32:39Z</time>
      </trkpt>
      <trkpt lat="43.6983" lon="6.74404">
        <ele>860</ele>
        <time>2015-05-08T10:32:44Z</time>
      </trkpt>
      <trkpt lat="43.69851" lon="6.74402">
        <ele>859</ele>
        <time>2015-05-08T10:32:49Z</time>
      </trkpt>
      <trkpt lat="43.69868" lon="6.74412">
        <ele>859</ele>
        <time>2015-05-08T10:32:54Z</time>
      </trkpt>
      <trkpt lat="43.6989" lon="6.74408">
        <ele>859</ele>
        <time>2015-05-08T10:32:59Z</time>
      </trkpt>
      <trkpt lat="43.69915" lon="6.74399">
        <ele>860</ele>
        <time>2015-05-08T10:33:04Z</time>
      </trkpt>
      <trkpt lat="43.69929" lon="6.74388">
        <ele>862</ele>
        <time>2015-05-08T10:33:07Z</time>
      </trkpt>
      <trkpt lat="43.69956" lon="6.74378">
        <ele>862</ele>
        <time>2015-05-08T10:33:12Z</time>
      </trkpt>
      <trkpt lat="43.69972" lon="6.74373">
        <ele>863</ele>
        <time>2015-05-08T10:33:15Z</time>
      </trkpt>
      <trkpt lat="43.69995" lon="6.74356">
        <ele>862</ele>
        <time>2015-05-08T10:33:20Z</time>
      </trkpt>
      <trkpt lat="43.70008" lon="6.74325">
        <ele>862</ele>
        <time>2015-05-08T10:33:25Z</time>
      </trkpt>
      <trkpt lat="43.70021" lon="6.74293">
        <ele>861</ele>
        <time>2015-05-08T10:33:30Z</time>
      </trkpt>
      <trkpt lat="43.70024" lon="6.74288">
        <ele>860</ele>
        <time>2015-05-08T10:33:31Z</time>
      </trkpt>
      <trkpt lat="43.70028" lon="6.74277">
        <ele>860</ele>
        <time>2015-05-08T10:33:33Z</time>
      </trkpt>
      <trkpt lat="43.70045" lon="6.74257">
        <ele>860</ele>
        <time>2015-05-08T10:33:38Z</time>
      </trkpt>
      <trkpt lat="43.70061" lon="6.74238">
        <ele>853</ele>
        <time>2015-05-08T10:33:43Z</time>
      </trkpt>
      <trkpt lat="43.70085" lon="6.74214">
        <ele>853</ele>
        <time>2015-05-08T10:33:48Z</time>
      </trkpt>
      <trkpt lat="43.70118" lon="6.74196">
        <ele>849</ele>
        <time>2015-05-08T10:33:53Z</time>
      </trkpt>
      <trkpt lat="43.70125" lon="6.74199">
        <ele>850</ele>
        <time>2015-05-08T10:33:54Z</time>
      </trkpt>
      <trkpt lat="43.70163" lon="6.74208">
        <ele>850</ele>
        <time>2015-05-08T10:33:59Z</time>
      </trkpt>
      <trkpt lat="43.70193" lon="6.74225">
        <ele>850</ele>
        <time>2015-05-08T10:34:04Z</time>
      </trkpt>
      <trkpt lat="43.70208" lon="6.74232">
        <ele>850</ele>
        <time>2015-05-08T10:34:06Z</time>
      </trkpt>
      <trkpt lat="43.70229" lon="6.74236">
        <ele>851</ele>
        <time>2015-05-08T10:34:09Z</time>
      </trkpt>
      <trkpt lat="43.70265" lon="6.7423">
        <ele>850</ele>
        <time>2015-05-08T10:34:14Z</time>
      </trkpt>
      <trkpt lat="43.70271" lon="6.74224">
        <ele>850</ele>
        <time>2015-05-08T10:34:15Z</time>
      </trkpt>
      <trkpt lat="43.70296" lon="6.74204">
        <ele>848</ele>
        <time>2015-05-08T10:34:20Z</time>
      </trkpt>
      <trkpt lat="43.70327" lon="6.74196">
        <ele>847</ele>
        <time>2015-05-08T10:34:25Z</time>
      </trkpt>
      <trkpt lat="43.70336" lon="6.74196">
        <ele>846</ele>
        <time>2015-05-08T10:34:26Z</time>
      </trkpt>
      <trkpt lat="43.70387" lon="6.74203">
        <ele>847</ele>
        <time>2015-05-08T10:34:31Z</time>
      </trkpt>
      <trkpt lat="43.70435" lon="6.74202">
        <ele>846</ele>
        <time>2015-05-08T10:34:36Z</time>
      </trkpt>
      <trkpt lat="43.70485" lon="6.7421">
        <ele>846</ele>
        <time>2015-05-08T10:34:41Z</time>
      </trkpt>
      <trkpt lat="43.70528" lon="6.74207">
        <ele>844</ele>
        <time>2015-05-08T10:34:46Z</time>
      </trkpt>
      <trkpt lat="43.70536" lon="6.74207">
        <ele>844</ele>
        <time>2015-05-08T10:34:47Z</time>
      </trkpt>
      <trkpt lat="43.70566" lon="6.74206">
        <ele>844</ele>
        <time>2015-05-08T10:34:52Z</time>
      </trkpt>
      <trkpt lat="43.70571" lon="6.74207">
        <ele>844</ele>
        <time>2015-05-08T10:34:53Z</time>
      </trkpt>
      <trkpt lat="43.70583" lon="6.74207">
        <ele>844</ele>
        <time>2015-05-08T10:34:55Z</time>
      </trkpt>
      <trkpt lat="43.70611" lon="6.74208">
        <ele>844</ele>
        <time>2015-05-08T10:35:01Z</time>
      </trkpt>
      <trkpt lat="43.70614" lon="6.74207">
        <ele>844</ele>
        <time>2015-05-08T10:35:02Z</time>
      </trkpt>
      <trkpt lat="43.70637" lon="6.74207">
        <ele>844</ele>
        <time>2015-05-08T10:35:07Z</time>
      </trkpt>
      <trkpt lat="43.7066" lon="6.74206">
        <ele>844</ele>
        <time>2015-05-08T10:35:12Z</time>
      </trkpt>
      <trkpt lat="43.70665" lon="6.74207">
        <ele>844</ele>
        <time>2015-05-08T10:35:13Z</time>
      </trkpt>
      <trkpt lat="43.70693" lon="6.74211">
        <ele>845</ele>
        <time>2015-05-08T10:35:18Z</time>
      </trkpt>
      <trkpt lat="43.70697" lon="6.7421">
        <ele>845</ele>
        <time>2015-05-08T10:35:19Z</time>
      </trkpt>
      <trkpt lat="43.7072" lon="6.74215">
        <ele>846</ele>
        <time>2015-05-08T10:35:24Z</time>
      </trkpt>
      <trkpt lat="43.70743" lon="6.74214">
        <ele>846</ele>
        <time>2015-05-08T10:35:29Z</time>
      </trkpt>
      <trkpt lat="43.70748" lon="6.74214">
        <ele>846</ele>
        <time>2015-05-08T10:35:30Z</time>
      </trkpt>
      <trkpt lat="43.70766" lon="6.74214">
        <ele>848</ele>
        <time>2015-05-08T10:35:35Z</time>
      </trkpt>
      <trkpt lat="43.70771" lon="6.74215">
        <ele>848</ele>
        <time>2015-05-08T10:35:36Z</time>
      </trkpt>
      <trkpt lat="43.70781" lon="6.74208">
        <ele>848</ele>
        <time>2015-05-08T10:35:43Z</time>
      </trkpt>
      <trkpt lat="43.70786" lon="6.74203">
        <ele>848</ele>
        <time>2015-05-08T10:35:50Z</time>
      </trkpt>
      <trkpt lat="43.70791" lon="6.74203">
        <ele>849</ele>
        <time>2015-05-08T10:35:53Z</time>
      </trkpt>
      <trkpt lat="43.70803" lon="6.74203">
        <ele>849</ele>
        <time>2015-05-08T10:35:59Z</time>
      </trkpt>
      <trkpt lat="43.70807" lon="6.74203">
        <ele>849</ele>
        <time>2015-05-08T10:36:01Z</time>
      </trkpt>
      <trkpt lat="43.70817" lon="6.74201">
        <ele>849</ele>
        <time>2015-05-08T10:36:08Z</time>
      </trkpt>
      <trkpt lat="43.70824" lon="6.74205">
        <ele>850</ele>
        <time>2015-05-08T10:36:13Z</time>
      </trkpt>
      <trkpt lat="43.70828" lon="6.74206">
        <ele>850</ele>
        <time>2015-05-08T10:36:15Z</time>
      </trkpt>
      <trkpt lat="43.70843" lon="6.74207">
        <ele>853</ele>
        <time>2015-05-08T10:36:20Z</time>
      </trkpt>
      <trkpt lat="43.70848" lon="6.74206">
        <ele>853</ele>
        <time>2015-05-08T10:36:22Z</time>
      </trkpt>
      <trkpt lat="43.70852" lon="6.7421">
        <ele>854</ele>
        <time>2015-05-08T10:36:24Z</time>
      </trkpt>
      <trkpt lat="43.70856" lon="6.74212">
        <ele>854</ele>
        <time>2015-05-08T10:36:26Z</time>
      </trkpt>
      <trkpt lat="43.70863" lon="6.74217">
        <ele>854</ele>
        <time>2015-05-08T10:36:30Z</time>
      </trkpt>
      <trkpt lat="43.70869" lon="6.74221">
        <ele>854</ele>
        <time>2015-05-08T10:36:36Z</time>
      </trkpt>
      <trkpt lat="43.70881" lon="6.74226">
        <ele>855</ele>
        <time>2015-05-08T10:36:42Z</time>
      </trkpt>
      <trkpt lat="43.70889" lon="6.74234">
        <ele>856</ele>
        <time>2015-05-08T10:36:46Z</time>
      </trkpt>
      <trkpt lat="43.70899" lon="6.74245">
        <ele>857</ele>
        <time>2015-05-08T10:36:51Z</time>
      </trkpt>
      <trkpt lat="43.70907" lon="6.74252">
        <ele>860</ele>
        <time>2015-05-08T10:36:56Z</time>
      </trkpt>
      <trkpt lat="43.70913" lon="6.74258">
        <ele>860</ele>
        <time>2015-05-08T10:37:02Z</time>
      </trkpt>
      <trkpt lat="43.70917" lon="6.74265">
        <ele>861</ele>
        <time>2015-05-08T10:37:07Z</time>
      </trkpt>
      <trkpt lat="43.70921" lon="6.74271">
        <ele>863</ele>
        <time>2015-05-08T10:37:14Z</time>
      </trkpt>
      <trkpt lat="43.70927" lon="6.74281">
        <ele>864</ele>
        <time>2015-05-08T10:37:22Z</time>
      </trkpt>
      <trkpt lat="43.70931" lon="6.74283">
        <ele>865</ele>
        <time>2015-05-08T10:37:27Z</time>
      </trkpt>
      <trkpt lat="43.70936" lon="6.74289">
        <ele>865</ele>
        <time>2015-05-08T10:37:30Z</time>
      </trkpt>
      <trkpt lat="43.70946" lon="6.743">
        <ele>866</ele>
        <time>2015-05-08T10:37:36Z</time>
      </trkpt>
      <trkpt lat="43.70952" lon="6.74302">
        <ele>866</ele>
        <time>2015-05-08T10:37:41Z</time>
      </trkpt>
      <trkpt lat="43.70961" lon="6.74307">
        <ele>867</ele>
        <time>2015-05-08T10:37:47Z</time>
      </trkpt>
      <trkpt lat="43.70967" lon="6.74314">
        <ele>867</ele>
        <time>2015-05-08T10:37:53Z</time>
      </trkpt>
      <trkpt lat="43.70973" lon="6.74313">
        <ele>868</ele>
        <time>2015-05-08T10:37:58Z</time>
      </trkpt>
      <trkpt lat="43.70981" lon="6.7432">
        <ele>868</ele>
        <time>2015-05-08T10:38:04Z</time>
      </trkpt>
      <trkpt lat="43.70991" lon="6.74331">
        <ele>870</ele>
        <time>2015-05-08T10:38:10Z</time>
      </trkpt>
      <trkpt lat="43.70988" lon="6.74339">
        <ele>873</ele>
        <time>2015-05-08T10:38:14Z</time>
      </trkpt>
      <trkpt lat="43.70976" lon="6.74348">
        <ele>874</ele>
        <time>2015-05-08T10:38:20Z</time>
      </trkpt>
      <trkpt lat="43.70973" lon="6.74348">
        <ele>874</ele>
        <time>2015-05-08T10:38:21Z</time>
      </trkpt>
      <trkpt lat="43.70957" lon="6.74349">
        <ele>874</ele>
        <time>2015-05-08T10:38:28Z</time>
      </trkpt>
      <trkpt lat="43.70945" lon="6.74348">
        <ele>873</ele>
        <time>2015-05-08T10:38:34Z</time>
      </trkpt>
      <trkpt lat="43.70942" lon="6.74347">
        <ele>873</ele>
        <time>2015-05-08T10:38:35Z</time>
      </trkpt>
      <trkpt lat="43.70931" lon="6.74345">
        <ele>871</ele>
        <time>2015-05-08T10:38:41Z</time>
      </trkpt>
      <trkpt lat="43.70917" lon="6.74343">
        <ele>870</ele>
        <time>2015-05-08T10:38:46Z</time>
      </trkpt>
      <trkpt lat="43.70904" lon="6.74342">
        <ele>872</ele>
        <time>2015-05-08T10:38:52Z</time>
      </trkpt>
      <trkpt lat="43.70892" lon="6.74344">
        <ele>874</ele>
        <time>2015-05-08T10:38:57Z</time>
      </trkpt>
      <trkpt lat="43.70879" lon="6.74344">
        <ele>875</ele>
        <time>2015-05-08T10:39:02Z</time>
      </trkpt>
      <trkpt lat="43.70875" lon="6.74343">
        <ele>875</ele>
        <time>2015-05-08T10:39:04Z</time>
      </trkpt>
      <trkpt lat="43.70863" lon="6.74341">
        <ele>875</ele>
        <time>2015-05-08T10:39:09Z</time>
      </trkpt>
      <trkpt lat="43.70853" lon="6.74343">
        <ele>875</ele>
        <time>2015-05-08T10:39:14Z</time>
      </trkpt>
      <trkpt lat="43.7085" lon="6.74342">
        <ele>874</ele>
        <time>2015-05-08T10:39:15Z</time>
      </trkpt>
      <trkpt lat="43.70845" lon="6.74337">
        <ele>874</ele>
        <time>2015-05-08T10:39:20Z</time>
      </trkpt>
      <trkpt lat="43.70836" lon="6.74336">
        <ele>872</ele>
        <time>2015-05-08T10:39:26Z</time>
      </trkpt>
      <trkpt lat="43.70823" lon="6.74332">
        <ele>868</ele>
        <time>2015-05-08T10:39:31Z</time>
      </trkpt>
      <trkpt lat="43.70814" lon="6.74327">
        <ele>866</ele>
        <time>2015-05-08T10:39:36Z</time>
      </trkpt>
      <trkpt lat="43.708" lon="6.74329">
        <ele>865</ele>
        <time>2015-05-08T10:39:42Z</time>
      </trkpt>
      <trkpt lat="43.70788" lon="6.74333">
        <ele>865</ele>
        <time>2015-05-08T10:39:48Z</time>
      </trkpt>
      <trkpt lat="43.70779" lon="6.74338">
        <ele>876</ele>
        <time>2015-05-08T10:39:53Z</time>
      </trkpt>
      <trkpt lat="43.70769" lon="6.74349">
        <ele>876</ele>
        <time>2015-05-08T10:39:59Z</time>
      </trkpt>
      <trkpt lat="43.7077" lon="6.74357">
        <ele>878</ele>
        <time>2015-05-08T10:40:04Z</time>
      </trkpt>
      <trkpt lat="43.70776" lon="6.74362">
        <ele>878</ele>
        <time>2015-05-08T10:40:11Z</time>
      </trkpt>
      <trkpt lat="43.70782" lon="6.74365">
        <ele>879</ele>
        <time>2015-05-08T10:40:18Z</time>
      </trkpt>
      <trkpt lat="43.70788" lon="6.7437">
        <ele>880</ele>
        <time>2015-05-08T10:40:24Z</time>
      </trkpt>
      <trkpt lat="43.70793" lon="6.74378">
        <ele>881</ele>
        <time>2015-05-08T10:40:30Z</time>
      </trkpt>
      <trkpt lat="43.70795" lon="6.74381">
        <ele>881</ele>
        <time>2015-05-08T10:40:33Z</time>
      </trkpt>
      <trkpt lat="43.70799" lon="6.74385">
        <ele>882</ele>
        <time>2015-05-08T10:40:40Z</time>
      </trkpt>
      <trkpt lat="43.70802" lon="6.74385">
        <ele>882</ele>
        <time>2015-05-08T10:40:45Z</time>
      </trkpt>
      <trkpt lat="43.70809" lon="6.7439">
        <ele>882</ele>
        <time>2015-05-08T10:40:51Z</time>
      </trkpt>
      <trkpt lat="43.70814" lon="6.74399">
        <ele>884</ele>
        <time>2015-05-08T10:40:58Z</time>
      </trkpt>
      <trkpt lat="43.70818" lon="6.74405">
        <ele>885</ele>
        <time>2015-05-08T10:41:04Z</time>
      </trkpt>
      <trkpt lat="43.70824" lon="6.74409">
        <ele>887</ele>
        <time>2015-05-08T10:41:10Z</time>
      </trkpt>
      <trkpt lat="43.70826" lon="6.74412">
        <ele>888</ele>
        <time>2015-05-08T10:41:16Z</time>
      </trkpt>
      <trkpt lat="43.70829" lon="6.74413">
        <ele>889</ele>
        <time>2015-05-08T10:41:20Z</time>
      </trkpt>
      <trkpt lat="43.70831" lon="6.74423">
        <ele>893</ele>
        <time>2015-05-08T10:41:23Z</time>
      </trkpt>
      <trkpt lat="43.70836" lon="6.7443">
        <ele>893</ele>
        <time>2015-05-08T10:41:29Z</time>
      </trkpt>
      <trkpt lat="43.7084" lon="6.74437">
        <ele>894</ele>
        <time>2015-05-08T10:41:35Z</time>
      </trkpt>
      <trkpt lat="43.70842" lon="6.74439">
        <ele>894</ele>
        <time>2015-05-08T10:41:40Z</time>
      </trkpt>
      <trkpt lat="43.70848" lon="6.74442">
        <ele>895</ele>
        <time>2015-05-08T10:41:49Z</time>
      </trkpt>
      <trkpt lat="43.70849" lon="6.74438">
        <ele>894</ele>
        <time>2015-05-08T10:42:19Z</time>
      </trkpt>
      <trkpt lat="43.7085" lon="6.74442">
        <ele>894</ele>
        <time>2015-05-08T10:43:09Z</time>
      </trkpt>
      <trkpt lat="43.70853" lon="6.74443">
        <ele>895</ele>
        <time>2015-05-08T10:45:22Z</time>
      </trkpt>
      <trkpt lat="43.70859" lon="6.74448">
        <ele>895</ele>
        <time>2015-05-08T10:45:27Z</time>
      </trkpt>
      <trkpt lat="43.70868" lon="6.74454">
        <ele>895</ele>
        <time>2015-05-08T10:45:33Z</time>
      </trkpt>
      <trkpt lat="43.70878" lon="6.74459">
        <ele>896</ele>
        <time>2015-05-08T10:45:39Z</time>
      </trkpt>
      <trkpt lat="43.70885" lon="6.74467">
        <ele>896</ele>
        <time>2015-05-08T10:45:45Z</time>
      </trkpt>
      <trkpt lat="43.70891" lon="6.74473">
        <ele>897</ele>
        <time>2015-05-08T10:45:50Z</time>
      </trkpt>
      <trkpt lat="43.70897" lon="6.7448">
        <ele>897</ele>
        <time>2015-05-08T10:45:54Z</time>
      </trkpt>
      <trkpt lat="43.70902" lon="6.74484">
        <ele>898</ele>
        <time>2015-05-08T10:46:00Z</time>
      </trkpt>
      <trkpt lat="43.70906" lon="6.74486">
        <ele>899</ele>
        <time>2015-05-08T10:46:04Z</time>
      </trkpt>
      <trkpt lat="43.7091" lon="6.74492">
        <ele>900</ele>
        <time>2015-05-08T10:46:07Z</time>
      </trkpt>
      <trkpt lat="43.70916" lon="6.745">
        <ele>902</ele>
        <time>2015-05-08T10:46:12Z</time>
      </trkpt>
      <trkpt lat="43.70924" lon="6.74509">
        <ele>904</ele>
        <time>2015-05-08T10:46:18Z</time>
      </trkpt>
      <trkpt lat="43.70931" lon="6.74519">
        <ele>906</ele>
        <time>2015-05-08T10:46:25Z</time>
      </trkpt>
      <trkpt lat="43.70936" lon="6.74527">
        <ele>907</ele>
        <time>2015-05-08T10:46:30Z</time>
      </trkpt>
      <trkpt lat="43.7094" lon="6.74536">
        <ele>908</ele>
        <time>2015-05-08T10:46:35Z</time>
      </trkpt>
      <trkpt lat="43.70944" lon="6.74544">
        <ele>909</ele>
        <time>2015-05-08T10:46:40Z</time>
      </trkpt>
      <trkpt lat="43.7095" lon="6.74549">
        <ele>909</ele>
        <time>2015-05-08T10:46:46Z</time>
      </trkpt>
      <trkpt lat="43.70956" lon="6.74554">
        <ele>909</ele>
        <time>2015-05-08T10:46:51Z</time>
      </trkpt>
      <trkpt lat="43.70959" lon="6.74555">
        <ele>910</ele>
        <time>2015-05-08T10:46:52Z</time>
      </trkpt>
      <trkpt lat="43.70968" lon="6.74562">
        <ele>910</ele>
        <time>2015-05-08T10:46:58Z</time>
      </trkpt>
      <trkpt lat="43.70975" lon="6.74566">
        <ele>910</ele>
        <time>2015-05-08T10:47:04Z</time>
      </trkpt>
      <trkpt lat="43.70982" lon="6.74571">
        <ele>911</ele>
        <time>2015-05-08T10:47:10Z</time>
      </trkpt>
      <trkpt lat="43.70989" lon="6.74576">
        <ele>912</ele>
        <time>2015-05-08T10:47:15Z</time>
      </trkpt>
      <trkpt lat="43.70995" lon="6.74579">
        <ele>913</ele>
        <time>2015-05-08T10:47:20Z</time>
      </trkpt>
      <trkpt lat="43.71001" lon="6.74582">
        <ele>914</ele>
        <time>2015-05-08T10:47:25Z</time>
      </trkpt>
      <trkpt lat="43.7101" lon="6.74586">
        <ele>917</ele>
        <time>2015-05-08T10:47:31Z</time>
      </trkpt>
      <trkpt lat="43.71021" lon="6.74592">
        <ele>919</ele>
        <time>2015-05-08T10:47:37Z</time>
      </trkpt>
      <trkpt lat="43.7103" lon="6.746">
        <ele>920</ele>
        <time>2015-05-08T10:47:43Z</time>
      </trkpt>
      <trkpt lat="43.71039" lon="6.74605">
        <ele>921</ele>
        <time>2015-05-08T10:47:48Z</time>
      </trkpt>
      <trkpt lat="43.7105" lon="6.7461">
        <ele>922</ele>
        <time>2015-05-08T10:47:54Z</time>
      </trkpt>
      <trkpt lat="43.71062" lon="6.74616">
        <ele>922</ele>
        <time>2015-05-08T10:48:00Z</time>
      </trkpt>
      <trkpt lat="43.71068" lon="6.74611">
        <ele>921</ele>
        <time>2015-05-08T10:48:05Z</time>
      </trkpt>
      <trkpt lat="43.71083" lon="6.74611">
        <ele>921</ele>
        <time>2015-05-08T10:48:10Z</time>
      </trkpt>
      <trkpt lat="43.711" lon="6.74611">
        <ele>923</ele>
        <time>2015-05-08T10:48:16Z</time>
      </trkpt>
      <trkpt lat="43.71115" lon="6.74611">
        <ele>924</ele>
        <time>2015-05-08T10:48:22Z</time>
      </trkpt>
      <trkpt lat="43.71126" lon="6.74613">
        <ele>924</ele>
        <time>2015-05-08T10:48:27Z</time>
      </trkpt>
      <trkpt lat="43.71138" lon="6.74612">
        <ele>924</ele>
        <time>2015-05-08T10:48:32Z</time>
      </trkpt>
      <trkpt lat="43.71151" lon="6.74613">
        <ele>924</ele>
        <time>2015-05-08T10:48:37Z</time>
      </trkpt>
      <trkpt lat="43.71164" lon="6.74616">
        <ele>924</ele>
        <time>2015-05-08T10:48:43Z</time>
      </trkpt>
      <trkpt lat="43.7118" lon="6.74618">
        <ele>927</ele>
        <time>2015-05-08T10:48:49Z</time>
      </trkpt>
      <trkpt lat="43.71191" lon="6.7463">
        <ele>928</ele>
        <time>2015-05-08T10:48:54Z</time>
      </trkpt>
      <trkpt lat="43.71199" lon="6.74642">
        <ele>929</ele>
        <time>2015-05-08T10:48:59Z</time>
      </trkpt>
      <trkpt lat="43.71213" lon="6.74652">
        <ele>929</ele>
        <time>2015-05-08T10:49:05Z</time>
      </trkpt>
      <trkpt lat="43.71226" lon="6.74661">
        <ele>930</ele>
        <time>2015-05-08T10:49:11Z</time>
      </trkpt>
      <trkpt lat="43.7124" lon="6.74666">
        <ele>931</ele>
        <time>2015-05-08T10:49:17Z</time>
      </trkpt>
      <trkpt lat="43.71252" lon="6.74672">
        <ele>934</ele>
        <time>2015-05-08T10:49:22Z</time>
      </trkpt>
      <trkpt lat="43.71265" lon="6.74673">
        <ele>936</ele>
        <time>2015-05-08T10:49:28Z</time>
      </trkpt>
      <trkpt lat="43.71279" lon="6.74674">
        <ele>938</ele>
        <time>2015-05-08T10:49:34Z</time>
      </trkpt>
      <trkpt lat="43.71292" lon="6.74675">
        <ele>939</ele>
        <time>2015-05-08T10:49:39Z</time>
      </trkpt>
      <trkpt lat="43.71304" lon="6.7468">
        <ele>940</ele>
        <time>2015-05-08T10:49:44Z</time>
      </trkpt>
      <trkpt lat="43.71317" lon="6.74678">
        <ele>940</ele>
        <time>2015-05-08T10:49:50Z</time>
      </trkpt>
      <trkpt lat="43.71328" lon="6.74666">
        <ele>939</ele>
        <time>2015-05-08T10:49:55Z</time>
      </trkpt>
      <trkpt lat="43.71328" lon="6.74648">
        <ele>937</ele>
        <time>2015-05-08T10:50:00Z</time>
      </trkpt>
      <trkpt lat="43.71328" lon="6.74629">
        <ele>937</ele>
        <time>2015-05-08T10:50:05Z</time>
      </trkpt>
      <trkpt lat="43.71334" lon="6.74611">
        <ele>944</ele>
        <time>2015-05-08T10:50:10Z</time>
      </trkpt>
      <trkpt lat="43.7134" lon="6.74597">
        <ele>943</ele>
        <time>2015-05-08T10:50:15Z</time>
      </trkpt>
      <trkpt lat="43.71343" lon="6.74582">
        <ele>942</ele>
        <time>2015-05-08T10:50:21Z</time>
      </trkpt>
      <trkpt lat="43.71346" lon="6.74569">
        <ele>944</ele>
        <time>2015-05-08T10:50:28Z</time>
      </trkpt>
      <trkpt lat="43.71345" lon="6.7456">
        <ele>944</ele>
        <time>2015-05-08T10:50:33Z</time>
      </trkpt>
      <trkpt lat="43.71345" lon="6.74554">
        <ele>945</ele>
        <time>2015-05-08T10:50:35Z</time>
      </trkpt>
      <trkpt lat="43.71345" lon="6.74539">
        <ele>945</ele>
        <time>2015-05-08T10:50:40Z</time>
      </trkpt>
      <trkpt lat="43.7134" lon="6.74531">
        <ele>945</ele>
        <time>2015-05-08T10:50:45Z</time>
      </trkpt>
      <trkpt lat="43.71337" lon="6.74528">
        <ele>945</ele>
        <time>2015-05-08T10:50:50Z</time>
      </trkpt>
      <trkpt lat="43.71333" lon="6.74526">
        <ele>938</ele>
        <time>2015-05-08T10:50:52Z</time>
      </trkpt>
      <trkpt lat="43.71323" lon="6.74518">
        <ele>938</ele>
        <time>2015-05-08T10:50:58Z</time>
      </trkpt>
      <trkpt lat="43.71313" lon="6.74511">
        <ele>937</ele>
        <time>2015-05-08T10:51:04Z</time>
      </trkpt>
      <trkpt lat="43.71309" lon="6.74507">
        <ele>937</ele>
        <time>2015-05-08T10:51:11Z</time>
      </trkpt>
      <trkpt lat="43.71308" lon="6.74502">
        <ele>937</ele>
        <time>2015-05-08T10:51:12Z</time>
      </trkpt>
      <trkpt lat="43.71301" lon="6.74495">
        <ele>937</ele>
        <time>2015-05-08T10:51:18Z</time>
      </trkpt>
      <trkpt lat="43.71295" lon="6.74487">
        <ele>936</ele>
        <time>2015-05-08T10:51:22Z</time>
      </trkpt>
      <trkpt lat="43.71292" lon="6.74484">
        <ele>936</ele>
        <time>2015-05-08T10:51:31Z</time>
      </trkpt>
      <trkpt lat="43.7129" lon="6.7448">
        <ele>935</ele>
        <time>2015-05-08T10:51:37Z</time>
      </trkpt>
      <trkpt lat="43.71288" lon="6.74477">
        <ele>935</ele>
        <time>2015-05-08T10:51:42Z</time>
      </trkpt>
      <trkpt lat="43.71285" lon="6.7447">
        <ele>935</ele>
        <time>2015-05-08T10:51:49Z</time>
      </trkpt>
      <trkpt lat="43.71284" lon="6.74465">
        <ele>935</ele>
        <time>2015-05-08T10:51:56Z</time>
      </trkpt>
      <trkpt lat="43.71281" lon="6.74448">
        <ele>935</ele>
        <time>2015-05-08T10:52:02Z</time>
      </trkpt>
      <trkpt lat="43.71281" lon="6.74438">
        <ele>935</ele>
        <time>2015-05-08T10:52:07Z</time>
      </trkpt>
      <trkpt lat="43.71273" lon="6.74427">
        <ele>934</ele>
        <time>2015-05-08T10:52:13Z</time>
      </trkpt>
      <trkpt lat="43.71268" lon="6.74416">
        <ele>934</ele>
        <time>2015-05-08T10:52:17Z</time>
      </trkpt>
      <trkpt lat="43.7126" lon="6.74401">
        <ele>934</ele>
        <time>2015-05-08T10:52:23Z</time>
      </trkpt>
      <trkpt lat="43.71257" lon="6.7438">
        <ele>937</ele>
        <time>2015-05-08T10:52:29Z</time>
      </trkpt>
      <trkpt lat="43.71258" lon="6.74362">
        <ele>937</ele>
        <time>2015-05-08T10:52:35Z</time>
      </trkpt>
      <trkpt lat="43.71255" lon="6.74361">
        <ele>937</ele>
        <time>2015-05-08T10:52:41Z</time>
      </trkpt>
      <trkpt lat="43.71253" lon="6.74356">
        <ele>937</ele>
        <time>2015-05-08T10:53:16Z</time>
      </trkpt>
      <trkpt lat="43.71244" lon="6.74346">
        <ele>927</ele>
        <time>2015-05-08T10:53:22Z</time>
      </trkpt>
      <trkpt lat="43.71231" lon="6.74331">
        <ele>926</ele>
        <time>2015-05-08T10:53:27Z</time>
      </trkpt>
      <trkpt lat="43.7123" lon="6.74327">
        <ele>926</ele>
        <time>2015-05-08T10:53:28Z</time>
      </trkpt>
      <trkpt lat="43.71228" lon="6.74304">
        <ele>924</ele>
        <time>2015-05-08T10:53:34Z</time>
      </trkpt>
      <trkpt lat="43.71235" lon="6.74275">
        <ele>925</ele>
        <time>2015-05-08T10:53:39Z</time>
      </trkpt>
      <trkpt lat="43.71242" lon="6.74247">
        <ele>929</ele>
        <time>2015-05-08T10:53:45Z</time>
      </trkpt>
      <trkpt lat="43.71248" lon="6.74228">
        <ele>925</ele>
        <time>2015-05-08T10:53:50Z</time>
      </trkpt>
      <trkpt lat="43.71263" lon="6.74218">
        <ele>935</ele>
        <time>2015-05-08T10:53:55Z</time>
      </trkpt>
      <trkpt lat="43.71279" lon="6.74206">
        <ele>936</ele>
        <time>2015-05-08T10:54:01Z</time>
      </trkpt>
      <trkpt lat="43.71282" lon="6.74205">
        <ele>936</ele>
        <time>2015-05-08T10:54:02Z</time>
      </trkpt>
      <trkpt lat="43.71297" lon="6.74192">
        <ele>937</ele>
        <time>2015-05-08T10:54:07Z</time>
      </trkpt>
      <trkpt lat="43.71296" lon="6.7418">
        <ele>937</ele>
        <time>2015-05-08T10:54:11Z</time>
      </trkpt>
      <trkpt lat="43.71285" lon="6.74175">
        <ele>935</ele>
        <time>2015-05-08T10:54:15Z</time>
      </trkpt>
      <trkpt lat="43.71273" lon="6.74171">
        <ele>933</ele>
        <time>2015-05-08T10:54:21Z</time>
      </trkpt>
      <trkpt lat="43.71262" lon="6.74166">
        <ele>931</ele>
        <time>2015-05-08T10:54:26Z</time>
      </trkpt>
      <trkpt lat="43.71253" lon="6.74154">
        <ele>931</ele>
        <time>2015-05-08T10:54:31Z</time>
      </trkpt>
      <trkpt lat="43.71246" lon="6.74135">
        <ele>920</ele>
        <time>2015-05-08T10:54:36Z</time>
      </trkpt>
      <trkpt lat="43.71242" lon="6.74135">
        <ele>920</ele>
        <time>2015-05-08T10:54:38Z</time>
      </trkpt>
      <trkpt lat="43.71227" lon="6.74119">
        <ele>919</ele>
        <time>2015-05-08T10:54:43Z</time>
      </trkpt>
      <trkpt lat="43.71225" lon="6.74108">
        <ele>919</ele>
        <time>2015-05-08T10:54:44Z</time>
      </trkpt>
      <trkpt lat="43.71209" lon="6.74082">
        <ele>920</ele>
        <time>2015-05-08T10:54:50Z</time>
      </trkpt>
      <trkpt lat="43.71199" lon="6.74054">
        <ele>919</ele>
        <time>2015-05-08T10:54:55Z</time>
      </trkpt>
      <trkpt lat="43.71192" lon="6.74038">
        <ele>919</ele>
        <time>2015-05-08T10:54:59Z</time>
      </trkpt>
      <trkpt lat="43.71186" lon="6.74026">
        <ele>918</ele>
        <time>2015-05-08T10:55:05Z</time>
      </trkpt>
      <trkpt lat="43.71184" lon="6.74024">
        <ele>918</ele>
        <time>2015-05-08T10:55:06Z</time>
      </trkpt>
      <trkpt lat="43.7118" lon="6.74011">
        <ele>917</ele>
        <time>2015-05-08T10:55:12Z</time>
      </trkpt>
      <trkpt lat="43.7118" lon="6.74007">
        <ele>916</ele>
        <time>2015-05-08T10:55:14Z</time>
      </trkpt>
      <trkpt lat="43.71186" lon="6.73989">
        <ele>925</ele>
        <time>2015-05-08T10:55:19Z</time>
      </trkpt>
      <trkpt lat="43.71182" lon="6.73972">
        <ele>928</ele>
        <time>2015-05-08T10:55:25Z</time>
      </trkpt>
      <trkpt lat="43.71179" lon="6.73956">
        <ele>930</ele>
        <time>2015-05-08T10:55:31Z</time>
      </trkpt>
      <trkpt lat="43.71174" lon="6.7394">
        <ele>931</ele>
        <time>2015-05-08T10:55:37Z</time>
      </trkpt>
      <trkpt lat="43.71171" lon="6.73936">
        <ele>930</ele>
        <time>2015-05-08T10:55:39Z</time>
      </trkpt>
      <trkpt lat="43.71161" lon="6.7392">
        <ele>923</ele>
        <time>2015-05-08T10:55:45Z</time>
      </trkpt>
      <trkpt lat="43.71154" lon="6.73931">
        <ele>919</ele>
        <time>2015-05-08T10:55:51Z</time>
      </trkpt>
      <trkpt lat="43.71147" lon="6.73931">
        <ele>917</ele>
        <time>2015-05-08T10:55:57Z</time>
      </trkpt>
      <trkpt lat="43.71143" lon="6.73935">
        <ele>916</ele>
        <time>2015-05-08T10:55:58Z</time>
      </trkpt>
      <trkpt lat="43.71131" lon="6.73938">
        <ele>914</ele>
        <time>2015-05-08T10:56:01Z</time>
      </trkpt>
      <trkpt lat="43.71127" lon="6.7394">
        <ele>913</ele>
        <time>2015-05-08T10:56:02Z</time>
      </trkpt>
      <trkpt lat="43.71118" lon="6.73938">
        <ele>912</ele>
        <time>2015-05-08T10:56:04Z</time>
      </trkpt>
      <trkpt lat="43.71097" lon="6.73934">
        <ele>910</ele>
        <time>2015-05-08T10:56:09Z</time>
      </trkpt>
      <trkpt lat="43.71088" lon="6.73934">
        <ele>910</ele>
        <time>2015-05-08T10:56:12Z</time>
      </trkpt>
      <trkpt lat="43.71093" lon="6.73949">
        <ele>909</ele>
        <time>2015-05-08T10:56:17Z</time>
      </trkpt>
      <trkpt lat="43.711" lon="6.73958">
        <ele>909</ele>
        <time>2015-05-08T10:56:22Z</time>
      </trkpt>
      <trkpt lat="43.71092" lon="6.73968">
        <ele>907</ele>
        <time>2015-05-08T10:56:27Z</time>
      </trkpt>
      <trkpt lat="43.71091" lon="6.73983">
        <ele>904</ele>
        <time>2015-05-08T10:56:32Z</time>
      </trkpt>
      <trkpt lat="43.71086" lon="6.74002">
        <ele>896</ele>
        <time>2015-05-08T10:56:37Z</time>
      </trkpt>
      <trkpt lat="43.71075" lon="6.74018">
        <ele>888</ele>
        <time>2015-05-08T10:56:42Z</time>
      </trkpt>
      <trkpt lat="43.71059" lon="6.74027">
        <ele>885</ele>
        <time>2015-05-08T10:56:47Z</time>
      </trkpt>
      <trkpt lat="43.7104" lon="6.74018">
        <ele>884</ele>
        <time>2015-05-08T10:56:52Z</time>
      </trkpt>
      <trkpt lat="43.71025" lon="6.74013">
        <ele>883</ele>
        <time>2015-05-08T10:56:58Z</time>
      </trkpt>
      <trkpt lat="43.71021" lon="6.74012">
        <ele>883</ele>
        <time>2015-05-08T10:57:09Z</time>
      </trkpt>
      <trkpt lat="43.71013" lon="6.73999">
        <ele>887</ele>
        <time>2015-05-08T10:57:14Z</time>
      </trkpt>
      <trkpt lat="43.71001" lon="6.73984">
        <ele>888</ele>
        <time>2015-05-08T10:57:19Z</time>
      </trkpt>
      <trkpt lat="43.70986" lon="6.73976">
        <ele>883</ele>
        <time>2015-05-08T10:57:24Z</time>
      </trkpt>
      <trkpt lat="43.70974" lon="6.73959">
        <ele>884</ele>
        <time>2015-05-08T10:57:29Z</time>
      </trkpt>
      <trkpt lat="43.70957" lon="6.7396">
        <ele>883</ele>
        <time>2015-05-08T10:57:34Z</time>
      </trkpt>
      <trkpt lat="43.70954" lon="6.73958">
        <ele>883</ele>
        <time>2015-05-08T10:57:37Z</time>
      </trkpt>
      <trkpt lat="43.7095" lon="6.73959">
        <ele>883</ele>
        <time>2015-05-08T10:57:43Z</time>
      </trkpt>
      <trkpt lat="43.70947" lon="6.73959">
        <ele>883</ele>
        <time>2015-05-08T10:57:46Z</time>
      </trkpt>
      <trkpt lat="43.70943" lon="6.7396">
        <ele>882</ele>
        <time>2015-05-08T10:57:53Z</time>
      </trkpt>
      <trkpt lat="43.70933" lon="6.73958">
        <ele>882</ele>
        <time>2015-05-08T10:57:59Z</time>
      </trkpt>
      <trkpt lat="43.70923" lon="6.73959">
        <ele>882</ele>
        <time>2015-05-08T10:58:05Z</time>
      </trkpt>
      <trkpt lat="43.70914" lon="6.73953">
        <ele>877</ele>
        <time>2015-05-08T10:58:11Z</time>
      </trkpt>
      <trkpt lat="43.70904" lon="6.73951">
        <ele>877</ele>
        <time>2015-05-08T10:58:17Z</time>
      </trkpt>
      <trkpt lat="43.70896" lon="6.7394">
        <ele>877</ele>
        <time>2015-05-08T10:58:23Z</time>
      </trkpt>
      <trkpt lat="43.70895" lon="6.73936">
        <ele>878</ele>
        <time>2015-05-08T10:58:25Z</time>
      </trkpt>
      <trkpt lat="43.70892" lon="6.73935">
        <ele>878</ele>
        <time>2015-05-08T10:58:37Z</time>
      </trkpt>
      <trkpt lat="43.70894" lon="6.73926">
        <ele>878</ele>
        <time>2015-05-08T10:58:45Z</time>
      </trkpt>
      <trkpt lat="43.70895" lon="6.73921">
        <ele>879</ele>
        <time>2015-05-08T10:59:13Z</time>
      </trkpt>
      <trkpt lat="43.70897" lon="6.7391">
        <ele>885</ele>
        <time>2015-05-08T10:59:19Z</time>
      </trkpt>
      <trkpt lat="43.70895" lon="6.73896">
        <ele>886</ele>
        <time>2015-05-08T10:59:25Z</time>
      </trkpt>
      <trkpt lat="43.70892" lon="6.73898">
        <ele>886</ele>
        <time>2015-05-08T10:59:26Z</time>
      </trkpt>
      <trkpt lat="43.70888" lon="6.73898">
        <ele>885</ele>
        <time>2015-05-08T10:59:28Z</time>
      </trkpt>
      <trkpt lat="43.70875" lon="6.739">
        <ele>884</ele>
        <time>2015-05-08T10:59:34Z</time>
      </trkpt>
      <trkpt lat="43.70859" lon="6.73896">
        <ele>883</ele>
        <time>2015-05-08T10:59:39Z</time>
      </trkpt>
      <trkpt lat="43.70844" lon="6.73882">
        <ele>884</ele>
        <time>2015-05-08T10:59:45Z</time>
      </trkpt>
      <trkpt lat="43.70829" lon="6.73872">
        <ele>880</ele>
        <time>2015-05-08T10:59:50Z</time>
      </trkpt>
      <trkpt lat="43.70816" lon="6.73864">
        <ele>880</ele>
        <time>2015-05-08T10:59:56Z</time>
      </trkpt>
      <trkpt lat="43.70809" lon="6.73863">
        <ele>880</ele>
        <time>2015-05-08T11:00:01Z</time>
      </trkpt>
      <trkpt lat="43.70803" lon="6.73861">
        <ele>880</ele>
        <time>2015-05-08T11:00:04Z</time>
      </trkpt>
      <trkpt lat="43.7079" lon="6.73859">
        <ele>880</ele>
        <time>2015-05-08T11:00:10Z</time>
      </trkpt>
      <trkpt lat="43.7078" lon="6.73858">
        <ele>879</ele>
        <time>2015-05-08T11:00:16Z</time>
      </trkpt>
      <trkpt lat="43.7077" lon="6.73847">
        <ele>880</ele>
        <time>2015-05-08T11:00:23Z</time>
      </trkpt>
      <trkpt lat="43.7076" lon="6.73841">
        <ele>881</ele>
        <time>2015-05-08T11:00:29Z</time>
      </trkpt>
      <trkpt lat="43.70751" lon="6.73835">
        <ele>883</ele>
        <time>2015-05-08T11:00:35Z</time>
      </trkpt>
      <trkpt lat="43.70745" lon="6.7383">
        <ele>883</ele>
        <time>2015-05-08T11:00:39Z</time>
      </trkpt>
      <trkpt lat="43.7074" lon="6.73821">
        <ele>883</ele>
        <time>2015-05-08T11:00:44Z</time>
      </trkpt>
      <trkpt lat="43.70735" lon="6.73811">
        <ele>883</ele>
        <time>2015-05-08T11:00:50Z</time>
      </trkpt>
      <trkpt lat="43.70731" lon="6.73801">
        <ele>883</ele>
        <time>2015-05-08T11:00:55Z</time>
      </trkpt>
      <trkpt lat="43.70726" lon="6.73787">
        <ele>884</ele>
        <time>2015-05-08T11:01:02Z</time>
      </trkpt>
      <trkpt lat="43.70723" lon="6.73778">
        <ele>885</ele>
        <time>2015-05-08T11:01:07Z</time>
      </trkpt>
      <trkpt lat="43.7072" lon="6.73769">
        <ele>886</ele>
        <time>2015-05-08T11:01:12Z</time>
      </trkpt>
      <trkpt lat="43.70716" lon="6.73762">
        <ele>885</ele>
        <time>2015-05-08T11:01:17Z</time>
      </trkpt>
      <trkpt lat="43.70713" lon="6.73753">
        <ele>885</ele>
        <time>2015-05-08T11:01:23Z</time>
      </trkpt>
      <trkpt lat="43.70709" lon="6.73739">
        <ele>893</ele>
        <time>2015-05-08T11:01:29Z</time>
      </trkpt>
      <trkpt lat="43.70702" lon="6.73726">
        <ele>892</ele>
        <time>2015-05-08T11:01:35Z</time>
      </trkpt>
      <trkpt lat="43.70692" lon="6.73709">
        <ele>892</ele>
        <time>2015-05-08T11:01:40Z</time>
      </trkpt>
      <trkpt lat="43.70685" lon="6.7369">
        <ele>892</ele>
        <time>2015-05-08T11:01:45Z</time>
      </trkpt>
      <trkpt lat="43.70681" lon="6.73672">
        <ele>891</ele>
        <time>2015-05-08T11:01:50Z</time>
      </trkpt>
      <trkpt lat="43.70675" lon="6.73659">
        <ele>895</ele>
        <time>2015-05-08T11:01:56Z</time>
      </trkpt>
      <trkpt lat="43.70672" lon="6.73642">
        <ele>901</ele>
        <time>2015-05-08T11:02:01Z</time>
      </trkpt>
      <trkpt lat="43.70666" lon="6.73621">
        <ele>887</ele>
        <time>2015-05-08T11:02:06Z</time>
      </trkpt>
      <trkpt lat="43.70658" lon="6.73599">
        <ele>892</ele>
        <time>2015-05-08T11:02:11Z</time>
      </trkpt>
      <trkpt lat="43.70651" lon="6.7358">
        <ele>898</ele>
        <time>2015-05-08T11:02:16Z</time>
      </trkpt>
      <trkpt lat="43.70643" lon="6.73565">
        <ele>897</ele>
        <time>2015-05-08T11:02:21Z</time>
      </trkpt>
      <trkpt lat="43.70637" lon="6.73551">
        <ele>897</ele>
        <time>2015-05-08T11:02:26Z</time>
      </trkpt>
      <trkpt lat="43.70627" lon="6.73538">
        <ele>897</ele>
        <time>2015-05-08T11:02:32Z</time>
      </trkpt>
      <trkpt lat="43.70621" lon="6.73526">
        <ele>897</ele>
        <time>2015-05-08T11:02:37Z</time>
      </trkpt>
      <trkpt lat="43.70611" lon="6.73512">
        <ele>896</ele>
        <time>2015-05-08T11:02:43Z</time>
      </trkpt>
      <trkpt lat="43.70599" lon="6.73506">
        <ele>895</ele>
        <time>2015-05-08T11:02:49Z</time>
      </trkpt>
      <trkpt lat="43.70585" lon="6.73501">
        <ele>892</ele>
        <time>2015-05-08T11:02:55Z</time>
      </trkpt>
      <trkpt lat="43.70571" lon="6.73499">
        <ele>896</ele>
        <time>2015-05-08T11:03:01Z</time>
      </trkpt>
      <trkpt lat="43.7056" lon="6.73495">
        <ele>897</ele>
        <time>2015-05-08T11:03:07Z</time>
      </trkpt>
      <trkpt lat="43.7055" lon="6.73492">
        <ele>898</ele>
        <time>2015-05-08T11:03:12Z</time>
      </trkpt>
      <trkpt lat="43.7054" lon="6.73481">
        <ele>899</ele>
        <time>2015-05-08T11:03:19Z</time>
      </trkpt>
      <trkpt lat="43.70537" lon="6.73481">
        <ele>899</ele>
        <time>2015-05-08T11:03:32Z</time>
      </trkpt>
      <trkpt lat="43.70535" lon="6.73478">
        <ele>899</ele>
        <time>2015-05-08T11:03:42Z</time>
      </trkpt>
      <trkpt lat="43.70529" lon="6.73473">
        <ele>900</ele>
        <time>2015-05-08T11:03:50Z</time>
      </trkpt>
      <trkpt lat="43.70524" lon="6.7347">
        <ele>900</ele>
        <time>2015-05-08T11:03:57Z</time>
      </trkpt>
      <trkpt lat="43.70518" lon="6.73468">
        <ele>900</ele>
        <time>2015-05-08T11:04:03Z</time>
      </trkpt>
      <trkpt lat="43.70514" lon="6.73461">
        <ele>901</ele>
        <time>2015-05-08T11:04:08Z</time>
      </trkpt>
      <trkpt lat="43.70511" lon="6.73459">
        <ele>902</ele>
        <time>2015-05-08T11:04:13Z</time>
      </trkpt>
      <trkpt lat="43.70504" lon="6.73456">
        <ele>902</ele>
        <time>2015-05-08T11:04:20Z</time>
      </trkpt>
      <trkpt lat="43.70499" lon="6.73454">
        <ele>903</ele>
        <time>2015-05-08T11:04:26Z</time>
      </trkpt>
      <trkpt lat="43.70492" lon="6.7345">
        <ele>904</ele>
        <time>2015-05-08T11:04:34Z</time>
      </trkpt>
      <trkpt lat="43.70486" lon="6.73451">
        <ele>904</ele>
        <time>2015-05-08T11:04:41Z</time>
      </trkpt>
      <trkpt lat="43.70479" lon="6.73449">
        <ele>904</ele>
        <time>2015-05-08T11:04:50Z</time>
      </trkpt>
      <trkpt lat="43.70473" lon="6.73446">
        <ele>905</ele>
        <time>2015-05-08T11:04:55Z</time>
      </trkpt>
      <trkpt lat="43.70467" lon="6.73443">
        <ele>905</ele>
        <time>2015-05-08T11:05:01Z</time>
      </trkpt>
      <trkpt lat="43.70457" lon="6.7344">
        <ele>905</ele>
        <time>2015-05-08T11:05:07Z</time>
      </trkpt>
      <trkpt lat="43.70447" lon="6.73433">
        <ele>906</ele>
        <time>2015-05-08T11:05:13Z</time>
      </trkpt>
      <trkpt lat="43.70435" lon="6.73435">
        <ele>907</ele>
        <time>2015-05-08T11:05:20Z</time>
      </trkpt>
      <trkpt lat="43.70428" lon="6.73433">
        <ele>907</ele>
        <time>2015-05-08T11:05:25Z</time>
      </trkpt>
      <trkpt lat="43.7042" lon="6.73429">
        <ele>909</ele>
        <time>2015-05-08T11:05:31Z</time>
      </trkpt>
      <trkpt lat="43.7041" lon="6.73426">
        <ele>909</ele>
        <time>2015-05-08T11:05:37Z</time>
      </trkpt>
      <trkpt lat="43.70403" lon="6.73427">
        <ele>908</ele>
        <time>2015-05-08T11:05:42Z</time>
      </trkpt>
      <trkpt lat="43.70392" lon="6.73429">
        <ele>907</ele>
        <time>2015-05-08T11:05:48Z</time>
      </trkpt>
      <trkpt lat="43.7038" lon="6.73426">
        <ele>907</ele>
        <time>2015-05-08T11:05:53Z</time>
      </trkpt>
      <trkpt lat="43.70371" lon="6.7342">
        <ele>907</ele>
        <time>2015-05-08T11:06:00Z</time>
      </trkpt>
      <trkpt lat="43.70366" lon="6.73414">
        <ele>913</ele>
        <time>2015-05-08T11:06:05Z</time>
      </trkpt>
      <trkpt lat="43.7036" lon="6.73407">
        <ele>913</ele>
        <time>2015-05-08T11:06:10Z</time>
      </trkpt>
      <trkpt lat="43.70357" lon="6.73404">
        <ele>913</ele>
        <time>2015-05-08T11:06:12Z</time>
      </trkpt>
      <trkpt lat="43.70353" lon="6.73396">
        <ele>913</ele>
        <time>2015-05-08T11:06:17Z</time>
      </trkpt>
      <trkpt lat="43.7035" lon="6.73393">
        <ele>913</ele>
        <time>2015-05-08T11:06:20Z</time>
      </trkpt>
      <trkpt lat="43.70344" lon="6.73384">
        <ele>914</ele>
        <time>2015-05-08T11:06:26Z</time>
      </trkpt>
      <trkpt lat="43.70336" lon="6.73373">
        <ele>914</ele>
        <time>2015-05-08T11:06:32Z</time>
      </trkpt>
      <trkpt lat="43.70328" lon="6.7336">
        <ele>909</ele>
        <time>2015-05-08T11:06:38Z</time>
      </trkpt>
      <trkpt lat="43.70325" lon="6.7335">
        <ele>911</ele>
        <time>2015-05-08T11:06:43Z</time>
      </trkpt>
      <trkpt lat="43.70314" lon="6.73336">
        <ele>910</ele>
        <time>2015-05-08T11:06:50Z</time>
      </trkpt>
      <trkpt lat="43.70309" lon="6.73325">
        <ele>913</ele>
        <time>2015-05-08T11:06:55Z</time>
      </trkpt>
      <trkpt lat="43.70299" lon="6.73309">
        <ele>912</ele>
        <time>2015-05-08T11:07:00Z</time>
      </trkpt>
      <trkpt lat="43.70293" lon="6.73286">
        <ele>912</ele>
        <time>2015-05-08T11:07:06Z</time>
      </trkpt>
      <trkpt lat="43.70287" lon="6.73272">
        <ele>912</ele>
        <time>2015-05-08T11:07:11Z</time>
      </trkpt>
      <trkpt lat="43.70279" lon="6.73258">
        <ele>911</ele>
        <time>2015-05-08T11:07:16Z</time>
      </trkpt>
      <trkpt lat="43.70276" lon="6.73255">
        <ele>911</ele>
        <time>2015-05-08T11:07:17Z</time>
      </trkpt>
      <trkpt lat="43.70272" lon="6.73242">
        <ele>913</ele>
        <time>2015-05-08T11:07:22Z</time>
      </trkpt>
      <trkpt lat="43.70268" lon="6.73236">
        <ele>913</ele>
        <time>2015-05-08T11:07:24Z</time>
      </trkpt>
      <trkpt lat="43.7026" lon="6.7322">
        <ele>914</ele>
        <time>2015-05-08T11:07:29Z</time>
      </trkpt>
      <trkpt lat="43.70256" lon="6.73206">
        <ele>914</ele>
        <time>2015-05-08T11:07:34Z</time>
      </trkpt>
      <trkpt lat="43.70251" lon="6.732">
        <ele>914</ele>
        <time>2015-05-08T11:07:36Z</time>
      </trkpt>
      <trkpt lat="43.70246" lon="6.73179">
        <ele>906</ele>
        <time>2015-05-08T11:07:41Z</time>
      </trkpt>
      <trkpt lat="43.70242" lon="6.73158">
        <ele>908</ele>
        <time>2015-05-08T11:07:46Z</time>
      </trkpt>
      <trkpt lat="43.7024" lon="6.73155">
        <ele>907</ele>
        <time>2015-05-08T11:07:47Z</time>
      </trkpt>
      <trkpt lat="43.70233" lon="6.7315">
        <ele>906</ele>
        <time>2015-05-08T11:07:52Z</time>
      </trkpt>
      <trkpt lat="43.70226" lon="6.73146">
        <ele>905</ele>
        <time>2015-05-08T11:07:55Z</time>
      </trkpt>
      <trkpt lat="43.70223" lon="6.73146">
        <ele>905</ele>
        <time>2015-05-08T11:07:57Z</time>
      </trkpt>
      <trkpt lat="43.70212" lon="6.73138">
        <ele>903</ele>
        <time>2015-05-08T11:08:02Z</time>
      </trkpt>
      <trkpt lat="43.702" lon="6.7313">
        <ele>902</ele>
        <time>2015-05-08T11:08:08Z</time>
      </trkpt>
      <trkpt lat="43.70192" lon="6.73125">
        <ele>901</ele>
        <time>2015-05-08T11:08:12Z</time>
      </trkpt>
      <trkpt lat="43.70186" lon="6.73122">
        <ele>901</ele>
        <time>2015-05-08T11:08:18Z</time>
      </trkpt>
      <trkpt lat="43.70182" lon="6.7312">
        <ele>900</ele>
        <time>2015-05-08T11:08:19Z</time>
      </trkpt>
      <trkpt lat="43.70175" lon="6.73117">
        <ele>900</ele>
        <time>2015-05-08T11:08:21Z</time>
      </trkpt>
      <trkpt lat="43.70172" lon="6.73115">
        <ele>900</ele>
        <time>2015-05-08T11:08:22Z</time>
      </trkpt>
      <trkpt lat="43.70165" lon="6.73109">
        <ele>887</ele>
        <time>2015-05-08T11:08:24Z</time>
      </trkpt>
      <trkpt lat="43.70148" lon="6.73097">
        <ele>887</ele>
        <time>2015-05-08T11:08:30Z</time>
      </trkpt>
      <trkpt lat="43.70135" lon="6.73081">
        <ele>886</ele>
        <time>2015-05-08T11:08:35Z</time>
      </trkpt>
      <trkpt lat="43.7012" lon="6.73062">
        <ele>884</ele>
        <time>2015-05-08T11:08:40Z</time>
      </trkpt>
      <trkpt lat="43.70107" lon="6.73041">
        <ele>883</ele>
        <time>2015-05-08T11:08:45Z</time>
      </trkpt>
      <trkpt lat="43.70095" lon="6.73011">
        <ele>880</ele>
        <time>2015-05-08T11:08:50Z</time>
      </trkpt>
      <trkpt lat="43.70094" lon="6.73005">
        <ele>879</ele>
        <time>2015-05-08T11:08:51Z</time>
      </trkpt>
      <trkpt lat="43.70079" lon="6.72979">
        <ele>871</ele>
        <time>2015-05-08T11:08:56Z</time>
      </trkpt>
      <trkpt lat="43.70062" lon="6.72948">
        <ele>869</ele>
        <time>2015-05-08T11:09:01Z</time>
      </trkpt>
      <trkpt lat="43.70052" lon="6.72927">
        <ele>868</ele>
        <time>2015-05-08T11:09:05Z</time>
      </trkpt>
      <trkpt lat="43.70038" lon="6.72906">
        <ele>869</ele>
        <time>2015-05-08T11:09:10Z</time>
      </trkpt>
      <trkpt lat="43.70023" lon="6.7289">
        <ele>868</ele>
        <time>2015-05-08T11:09:15Z</time>
      </trkpt>
      <trkpt lat="43.70011" lon="6.72864">
        <ele>869</ele>
        <time>2015-05-08T11:09:20Z</time>
      </trkpt>
      <trkpt lat="43.69998" lon="6.72849">
        <ele>863</ele>
        <time>2015-05-08T11:09:25Z</time>
      </trkpt>
      <trkpt lat="43.69981" lon="6.72838">
        <ele>863</ele>
        <time>2015-05-08T11:09:30Z</time>
      </trkpt>
      <trkpt lat="43.69961" lon="6.72834">
        <ele>860</ele>
        <time>2015-05-08T11:09:34Z</time>
      </trkpt>
      <trkpt lat="43.69944" lon="6.72827">
        <ele>864</ele>
        <time>2015-05-08T11:09:39Z</time>
      </trkpt>
      <trkpt lat="43.69926" lon="6.72821">
        <ele>863</ele>
        <time>2015-05-08T11:09:44Z</time>
      </trkpt>
      <trkpt lat="43.69922" lon="6.72817">
        <ele>863</ele>
        <time>2015-05-08T11:09:45Z</time>
      </trkpt>
      <trkpt lat="43.6991" lon="6.72817">
        <ele>859</ele>
        <time>2015-05-08T11:09:50Z</time>
      </trkpt>
      <trkpt lat="43.69894" lon="6.72815">
        <ele>858</ele>
        <time>2015-05-08T11:09:55Z</time>
      </trkpt>
      <trkpt lat="43.69885" lon="6.72813">
        <ele>858</ele>
        <time>2015-05-08T11:09:56Z</time>
      </trkpt>
      <trkpt lat="43.69882" lon="6.72813">
        <ele>857</ele>
        <time>2015-05-08T11:09:57Z</time>
      </trkpt>
      <trkpt lat="43.69865" lon="6.72813">
        <ele>856</ele>
        <time>2015-05-08T11:10:03Z</time>
      </trkpt>
      <trkpt lat="43.69857" lon="6.72811">
        <ele>856</ele>
        <time>2015-05-08T11:10:08Z</time>
      </trkpt>
      <trkpt lat="43.69852" lon="6.72811">
        <ele>855</ele>
        <time>2015-05-08T11:10:10Z</time>
      </trkpt>
      <trkpt lat="43.69844" lon="6.72821">
        <ele>853</ele>
        <time>2015-05-08T11:10:16Z</time>
      </trkpt>
      <trkpt lat="43.69841" lon="6.7282">
        <ele>853</ele>
        <time>2015-05-08T11:10:17Z</time>
      </trkpt>
      <trkpt lat="43.69834" lon="6.72821">
        <ele>852</ele>
        <time>2015-05-08T11:10:22Z</time>
      </trkpt>
      <trkpt lat="43.69822" lon="6.72814">
        <ele>848</ele>
        <time>2015-05-08T11:10:27Z</time>
      </trkpt>
      <trkpt lat="43.69811" lon="6.72807">
        <ele>848</ele>
        <time>2015-05-08T11:10:32Z</time>
      </trkpt>
      <trkpt lat="43.69799" lon="6.72793">
        <ele>848</ele>
        <time>2015-05-08T11:10:37Z</time>
      </trkpt>
      <trkpt lat="43.69782" lon="6.72773">
        <ele>848</ele>
        <time>2015-05-08T11:10:42Z</time>
      </trkpt>
      <trkpt lat="43.69768" lon="6.72759">
        <ele>848</ele>
        <time>2015-05-08T11:10:47Z</time>
      </trkpt>
      <trkpt lat="43.69765" lon="6.72756">
        <ele>848</ele>
        <time>2015-05-08T11:10:48Z</time>
      </trkpt>
      <trkpt lat="43.69757" lon="6.72744">
        <ele>850</ele>
        <time>2015-05-08T11:10:52Z</time>
      </trkpt>
      <trkpt lat="43.69743" lon="6.72723">
        <ele>845</ele>
        <time>2015-05-08T11:10:57Z</time>
      </trkpt>
      <trkpt lat="43.69739" lon="6.72694">
        <ele>846</ele>
        <time>2015-05-08T11:11:02Z</time>
      </trkpt>
      <trkpt lat="43.69732" lon="6.72672">
        <ele>847</ele>
        <time>2015-05-08T11:11:07Z</time>
      </trkpt>
      <trkpt lat="43.69726" lon="6.72649">
        <ele>848</ele>
        <time>2015-05-08T11:11:12Z</time>
      </trkpt>
      <trkpt lat="43.69713" lon="6.72627">
        <ele>847</ele>
        <time>2015-05-08T11:11:17Z</time>
      </trkpt>
      <trkpt lat="43.69712" lon="6.7262">
        <ele>847</ele>
        <time>2015-05-08T11:11:18Z</time>
      </trkpt>
      <trkpt lat="43.69712" lon="6.72605">
        <ele>848</ele>
        <time>2015-05-08T11:11:21Z</time>
      </trkpt>
      <trkpt lat="43.69709" lon="6.72592">
        <ele>848</ele>
        <time>2015-05-08T11:11:28Z</time>
      </trkpt>
      <trkpt lat="43.69709" lon="6.72588">
        <ele>848</ele>
        <time>2015-05-08T11:11:32Z</time>
      </trkpt>
      <trkpt lat="43.69709" lon="6.72593">
        <ele>848</ele>
        <time>2015-05-08T11:12:06Z</time>
      </trkpt>
      <trkpt lat="43.69711" lon="6.72589">
        <ele>848</ele>
        <time>2015-05-08T11:12:14Z</time>
      </trkpt>
      <trkpt lat="43.69706" lon="6.72581">
        <ele>848</ele>
        <time>2015-05-08T11:12:27Z</time>
      </trkpt>
      <trkpt lat="43.69701" lon="6.72569">
        <ele>847</ele>
        <time>2015-05-08T11:12:33Z</time>
      </trkpt>
      <trkpt lat="43.69697" lon="6.72553">
        <ele>847</ele>
        <time>2015-05-08T11:12:38Z</time>
      </trkpt>
      <trkpt lat="43.69696" lon="6.72531">
        <ele>847</ele>
        <time>2015-05-08T11:12:43Z</time>
      </trkpt>
      <trkpt lat="43.69695" lon="6.72508">
        <ele>847</ele>
        <time>2015-05-08T11:12:48Z</time>
      </trkpt>
      <trkpt lat="43.69698" lon="6.72485">
        <ele>849</ele>
        <time>2015-05-08T11:12:53Z</time>
      </trkpt>
      <trkpt lat="43.69686" lon="6.72468">
        <ele>849</ele>
        <time>2015-05-08T11:12:58Z</time>
      </trkpt>
      <trkpt lat="43.69668" lon="6.72458">
        <ele>849</ele>
        <time>2015-05-08T11:13:03Z</time>
      </trkpt>
      <trkpt lat="43.69652" lon="6.72455">
        <ele>844</ele>
        <time>2015-05-08T11:13:08Z</time>
      </trkpt>
      <trkpt lat="43.6965" lon="6.72463">
        <ele>843</ele>
        <time>2015-05-08T11:13:09Z</time>
      </trkpt>
      <trkpt lat="43.69641" lon="6.72472">
        <ele>843</ele>
        <time>2015-05-08T11:13:14Z</time>
      </trkpt>
      <trkpt lat="43.69637" lon="6.72485">
        <ele>842</ele>
        <time>2015-05-08T11:13:18Z</time>
      </trkpt>
      <trkpt lat="43.6962" lon="6.72504">
        <ele>837</ele>
        <time>2015-05-08T11:13:23Z</time>
      </trkpt>
      <trkpt lat="43.69614" lon="6.72519">
        <ele>837</ele>
        <time>2015-05-08T11:13:27Z</time>
      </trkpt>
      <trkpt lat="43.69597" lon="6.72543">
        <ele>836</ele>
        <time>2015-05-08T11:13:32Z</time>
      </trkpt>
      <trkpt lat="43.69574" lon="6.72567">
        <ele>830</ele>
        <time>2015-05-08T11:13:38Z</time>
      </trkpt>
      <trkpt lat="43.69552" lon="6.72585">
        <ele>828</ele>
        <time>2015-05-08T11:13:43Z</time>
      </trkpt>
      <trkpt lat="43.69544" lon="6.72606">
        <ele>827</ele>
        <time>2015-05-08T11:13:49Z</time>
      </trkpt>
      <trkpt lat="43.69551" lon="6.72621">
        <ele>827</ele>
        <time>2015-05-08T11:13:54Z</time>
      </trkpt>
      <trkpt lat="43.69552" lon="6.72642">
        <ele>827</ele>
        <time>2015-05-08T11:14:00Z</time>
      </trkpt>
      <trkpt lat="43.69553" lon="6.72663">
        <ele>827</ele>
        <time>2015-05-08T11:14:06Z</time>
      </trkpt>
      <trkpt lat="43.6955" lon="6.72682">
        <ele>826</ele>
        <time>2015-05-08T11:14:12Z</time>
      </trkpt>
      <trkpt lat="43.69536" lon="6.72698">
        <ele>826</ele>
        <time>2015-05-08T11:14:18Z</time>
      </trkpt>
      <trkpt lat="43.69521" lon="6.72712">
        <ele>825</ele>
        <time>2015-05-08T11:14:23Z</time>
      </trkpt>
      <trkpt lat="43.69506" lon="6.72727">
        <ele>824</ele>
        <time>2015-05-08T11:14:28Z</time>
      </trkpt>
      <trkpt lat="43.69496" lon="6.72734">
        <ele>822</ele>
        <time>2015-05-08T11:14:41Z</time>
      </trkpt>
      <trkpt lat="43.69498" lon="6.72732">
        <ele>822</ele>
        <time>2015-05-08T11:14:49Z</time>
      </trkpt>
      <trkpt lat="43.69502" lon="6.72725">
        <ele>824</ele>
        <time>2015-05-08T11:14:55Z</time>
      </trkpt>
      <trkpt lat="43.69506" lon="6.7272">
        <ele>825</ele>
        <time>2015-05-08T11:15:01Z</time>
      </trkpt>
      <trkpt lat="43.69517" lon="6.72712">
        <ele>825</ele>
        <time>2015-05-08T11:15:06Z</time>
      </trkpt>
      <trkpt lat="43.69532" lon="6.72699">
        <ele>826</ele>
        <time>2015-05-08T11:15:11Z</time>
      </trkpt>
      <trkpt lat="43.6955" lon="6.72681">
        <ele>826</ele>
        <time>2015-05-08T11:15:16Z</time>
      </trkpt>
      <trkpt lat="43.69553" lon="6.72653">
        <ele>827</ele>
        <time>2015-05-08T11:15:21Z</time>
      </trkpt>
      <trkpt lat="43.69561" lon="6.72638">
        <ele>827</ele>
        <time>2015-05-08T11:15:26Z</time>
      </trkpt>
      <trkpt lat="43.69571" lon="6.72648">
        <ele>828</ele>
        <time>2015-05-08T11:15:31Z</time>
      </trkpt>
      <trkpt lat="43.69582" lon="6.72662">
        <ele>828</ele>
        <time>2015-05-08T11:15:37Z</time>
      </trkpt>
      <trkpt lat="43.69591" lon="6.72676">
        <ele>830</ele>
        <time>2015-05-08T11:15:42Z</time>
      </trkpt>
      <trkpt lat="43.69601" lon="6.72694">
        <ele>831</ele>
        <time>2015-05-08T11:15:48Z</time>
      </trkpt>
      <trkpt lat="43.69611" lon="6.72711">
        <ele>832</ele>
        <time>2015-05-08T11:15:53Z</time>
      </trkpt>
      <trkpt lat="43.69621" lon="6.72729">
        <ele>832</ele>
        <time>2015-05-08T11:15:59Z</time>
      </trkpt>
      <trkpt lat="43.69628" lon="6.72746">
        <ele>833</ele>
        <time>2015-05-08T11:16:04Z</time>
      </trkpt>
      <trkpt lat="43.69634" lon="6.72763">
        <ele>831</ele>
        <time>2015-05-08T11:16:09Z</time>
      </trkpt>
      <trkpt lat="43.69642" lon="6.72782">
        <ele>831</ele>
        <time>2015-05-08T11:16:15Z</time>
      </trkpt>
      <trkpt lat="43.69654" lon="6.72794">
        <ele>831</ele>
        <time>2015-05-08T11:16:20Z</time>
      </trkpt>
      <trkpt lat="43.69659" lon="6.72805">
        <ele>831</ele>
        <time>2015-05-08T11:16:23Z</time>
      </trkpt>
      <trkpt lat="43.69668" lon="6.72823">
        <ele>833</ele>
        <time>2015-05-08T11:16:29Z</time>
      </trkpt>
      <trkpt lat="43.69671" lon="6.72828">
        <ele>833</ele>
        <time>2015-05-08T11:16:31Z</time>
      </trkpt>
      <trkpt lat="43.69679" lon="6.72838">
        <ele>831</ele>
        <time>2015-05-08T11:16:37Z</time>
      </trkpt>
      <trkpt lat="43.69693" lon="6.72858">
        <ele>831</ele>
        <time>2015-05-08T11:16:42Z</time>
      </trkpt>
      <trkpt lat="43.69694" lon="6.72862">
        <ele>831</ele>
        <time>2015-05-08T11:16:43Z</time>
      </trkpt>
      <trkpt lat="43.69698" lon="6.72887">
        <ele>830</ele>
        <time>2015-05-08T11:16:48Z</time>
      </trkpt>
      <trkpt lat="43.69685" lon="6.72921">
        <ele>824</ele>
        <time>2015-05-08T11:16:53Z</time>
      </trkpt>
      <trkpt lat="43.69667" lon="6.72953">
        <ele>822</ele>
        <time>2015-05-08T11:16:57Z</time>
      </trkpt>
      <trkpt lat="43.69636" lon="6.72969">
        <ele>821</ele>
        <time>2015-05-08T11:17:02Z</time>
      </trkpt>
      <trkpt lat="43.69628" lon="6.72972">
        <ele>821</ele>
        <time>2015-05-08T11:17:03Z</time>
      </trkpt>
      <trkpt lat="43.69592" lon="6.72983">
        <ele>820</ele>
        <time>2015-05-08T11:17:08Z</time>
      </trkpt>
      <trkpt lat="43.6958" lon="6.72988">
        <ele>819</ele>
        <time>2015-05-08T11:17:10Z</time>
      </trkpt>
      <trkpt lat="43.69568" lon="6.72993">
        <ele>820</ele>
        <time>2015-05-08T11:17:12Z</time>
      </trkpt>
      <trkpt lat="43.69561" lon="6.73001">
        <ele>817</ele>
        <time>2015-05-08T11:17:14Z</time>
      </trkpt>
      <trkpt lat="43.69547" lon="6.73019">
        <ele>817</ele>
        <time>2015-05-08T11:17:19Z</time>
      </trkpt>
      <trkpt lat="43.69543" lon="6.73022">
        <ele>817</ele>
        <time>2015-05-08T11:17:20Z</time>
      </trkpt>
      <trkpt lat="43.69527" lon="6.7304">
        <ele>817</ele>
        <time>2015-05-08T11:17:25Z</time>
      </trkpt>
      <trkpt lat="43.69519" lon="6.73047">
        <ele>817</ele>
        <time>2015-05-08T11:17:27Z</time>
      </trkpt>
      <trkpt lat="43.69499" lon="6.73068">
        <ele>817</ele>
        <time>2015-05-08T11:17:32Z</time>
      </trkpt>
      <trkpt lat="43.69495" lon="6.73073">
        <ele>817</ele>
        <time>2015-05-08T11:17:33Z</time>
      </trkpt>
      <trkpt lat="43.69472" lon="6.73099">
        <ele>813</ele>
        <time>2015-05-08T11:17:38Z</time>
      </trkpt>
      <trkpt lat="43.69445" lon="6.73127">
        <ele>812</ele>
        <time>2015-05-08T11:17:43Z</time>
      </trkpt>
      <trkpt lat="43.6942" lon="6.73153">
        <ele>810</ele>
        <time>2015-05-08T11:17:48Z</time>
      </trkpt>
      <trkpt lat="43.69411" lon="6.73162">
        <ele>809</ele>
        <time>2015-05-08T11:17:54Z</time>
      </trkpt>
      <trkpt lat="43.69391" lon="6.73164">
        <ele>810</ele>
        <time>2015-05-08T11:17:59Z</time>
      </trkpt>
      <trkpt lat="43.6936" lon="6.73168">
        <ele>804</ele>
        <time>2015-05-08T11:18:04Z</time>
      </trkpt>
      <trkpt lat="43.69337" lon="6.73208">
        <ele>801</ele>
        <time>2015-05-08T11:18:09Z</time>
      </trkpt>
      <trkpt lat="43.69316" lon="6.73252">
        <ele>791</ele>
        <time>2015-05-08T11:18:14Z</time>
      </trkpt>
      <trkpt lat="43.69289" lon="6.73295">
        <ele>789</ele>
        <time>2015-05-08T11:18:19Z</time>
      </trkpt>
      <trkpt lat="43.69285" lon="6.73302">
        <ele>788</ele>
        <time>2015-05-08T11:18:20Z</time>
      </trkpt>
      <trkpt lat="43.69259" lon="6.73339">
        <ele>783</ele>
        <time>2015-05-08T11:18:25Z</time>
      </trkpt>
      <trkpt lat="43.69255" lon="6.73346">
        <ele>782</ele>
        <time>2015-05-08T11:18:26Z</time>
      </trkpt>
      <trkpt lat="43.69229" lon="6.7338">
        <ele>779</ele>
        <time>2015-05-08T11:18:31Z</time>
      </trkpt>
      <trkpt lat="43.69213" lon="6.7339">
        <ele>778</ele>
        <time>2015-05-08T11:18:36Z</time>
      </trkpt>
      <trkpt lat="43.69209" lon="6.7339">
        <ele>778</ele>
        <time>2015-05-08T11:18:38Z</time>
      </trkpt>
      <trkpt lat="43.69194" lon="6.73388">
        <ele>778</ele>
        <time>2015-05-08T11:18:43Z</time>
      </trkpt>
      <trkpt lat="43.6918" lon="6.73385">
        <ele>778</ele>
        <time>2015-05-08T11:18:48Z</time>
      </trkpt>
      <trkpt lat="43.69174" lon="6.73379">
        <ele>778</ele>
        <time>2015-05-08T11:18:50Z</time>
      </trkpt>
      <trkpt lat="43.6916" lon="6.73368">
        <ele>777</ele>
        <time>2015-05-08T11:18:55Z</time>
      </trkpt>
      <trkpt lat="43.69157" lon="6.73366">
        <ele>777</ele>
        <time>2015-05-08T11:18:56Z</time>
      </trkpt>
      <trkpt lat="43.6914" lon="6.73341">
        <ele>778</ele>
        <time>2015-05-08T11:19:02Z</time>
      </trkpt>
      <trkpt lat="43.69135" lon="6.73314">
        <ele>781</ele>
        <time>2015-05-08T11:19:07Z</time>
      </trkpt>
      <trkpt lat="43.69136" lon="6.73292">
        <ele>782</ele>
        <time>2015-05-08T11:19:12Z</time>
      </trkpt>
      <trkpt lat="43.69135" lon="6.73268">
        <ele>782</ele>
        <time>2015-05-08T11:19:18Z</time>
      </trkpt>
      <trkpt lat="43.69134" lon="6.73249">
        <ele>785</ele>
        <time>2015-05-08T11:19:23Z</time>
      </trkpt>
      <trkpt lat="43.6913" lon="6.73231">
        <ele>785</ele>
        <time>2015-05-08T11:19:28Z</time>
      </trkpt>
      <trkpt lat="43.69127" lon="6.73214">
        <ele>785</ele>
        <time>2015-05-08T11:19:33Z</time>
      </trkpt>
      <trkpt lat="43.69121" lon="6.73201">
        <ele>785</ele>
        <time>2015-05-08T11:19:39Z</time>
      </trkpt>
      <trkpt lat="43.6911" lon="6.73213">
        <ele>784</ele>
        <time>2015-05-08T11:19:44Z</time>
      </trkpt>
      <trkpt lat="43.69104" lon="6.73243">
        <ele>783</ele>
        <time>2015-05-08T11:19:49Z</time>
      </trkpt>
      <trkpt lat="43.69099" lon="6.73282">
        <ele>780</ele>
        <time>2015-05-08T11:19:54Z</time>
      </trkpt>
      <trkpt lat="43.69107" lon="6.73322">
        <ele>779</ele>
        <time>2015-05-08T11:19:59Z</time>
      </trkpt>
      <trkpt lat="43.69093" lon="6.73361">
        <ele>775</ele>
        <time>2015-05-08T11:20:03Z</time>
      </trkpt>
      <trkpt lat="43.69085" lon="6.73407">
        <ele>772</ele>
        <time>2015-05-08T11:20:08Z</time>
      </trkpt>
      <trkpt lat="43.69079" lon="6.73409">
        <ele>771</ele>
        <time>2015-05-08T11:20:09Z</time>
      </trkpt>
      <trkpt lat="43.69075" lon="6.7341">
        <ele>771</ele>
        <time>2015-05-08T11:20:10Z</time>
      </trkpt>
      <trkpt lat="43.69061" lon="6.73419">
        <ele>769</ele>
        <time>2015-05-08T11:20:16Z</time>
      </trkpt>
      <trkpt lat="43.6906" lon="6.73428">
        <ele>769</ele>
        <time>2015-05-08T11:20:21Z</time>
      </trkpt>
      <trkpt lat="43.69058" lon="6.73429">
        <ele>768</ele>
        <time>2015-05-08T11:20:29Z</time>
      </trkpt>
      <trkpt lat="43.69055" lon="6.73428">
        <ele>768</ele>
        <time>2015-05-08T11:20:55Z</time>
      </trkpt>
      <trkpt lat="43.69058" lon="6.73431">
        <ele>768</ele>
        <time>2015-05-08T11:22:32Z</time>
      </trkpt>
      <trkpt lat="43.69069" lon="6.7344">
        <ele>769</ele>
        <time>2015-05-08T11:22:37Z</time>
      </trkpt>
      <trkpt lat="43.69082" lon="6.73459">
        <ele>768</ele>
        <time>2015-05-08T11:22:43Z</time>
      </trkpt>
      <trkpt lat="43.69084" lon="6.73475">
        <ele>770</ele>
        <time>2015-05-08T11:22:48Z</time>
      </trkpt>
      <trkpt lat="43.69082" lon="6.73499">
        <ele>768</ele>
        <time>2015-05-08T11:22:53Z</time>
      </trkpt>
      <trkpt lat="43.69076" lon="6.73525">
        <ele>766</ele>
        <time>2015-05-08T11:22:58Z</time>
      </trkpt>
      <trkpt lat="43.69074" lon="6.73552">
        <ele>765</ele>
        <time>2015-05-08T11:23:03Z</time>
      </trkpt>
      <trkpt lat="43.69074" lon="6.7358">
        <ele>766</ele>
        <time>2015-05-08T11:23:08Z</time>
      </trkpt>
      <trkpt lat="43.69077" lon="6.73586">
        <ele>766</ele>
        <time>2015-05-08T11:23:09Z</time>
      </trkpt>
      <trkpt lat="43.69076" lon="6.73612">
        <ele>763</ele>
        <time>2015-05-08T11:23:15Z</time>
      </trkpt>
      <trkpt lat="43.69078" lon="6.73625">
        <ele>763</ele>
        <time>2015-05-08T11:23:22Z</time>
      </trkpt>
      <trkpt lat="43.69078" lon="6.7363">
        <ele>762</ele>
        <time>2015-05-08T11:23:30Z</time>
      </trkpt>
      <trkpt lat="43.69075" lon="6.7364">
        <ele>762</ele>
        <time>2015-05-08T11:23:35Z</time>
      </trkpt>
      <trkpt lat="43.69066" lon="6.73663">
        <ele>762</ele>
        <time>2015-05-08T11:23:40Z</time>
      </trkpt>
      <trkpt lat="43.69062" lon="6.73685">
        <ele>757</ele>
        <time>2015-05-08T11:23:45Z</time>
      </trkpt>
      <trkpt lat="43.69062" lon="6.73714">
        <ele>755</ele>
        <time>2015-05-08T11:23:50Z</time>
      </trkpt>
      <trkpt lat="43.69061" lon="6.73745">
        <ele>753</ele>
        <time>2015-05-08T11:23:55Z</time>
      </trkpt>
      <trkpt lat="43.69055" lon="6.73763">
        <ele>747</ele>
        <time>2015-05-08T11:24:00Z</time>
      </trkpt>
      <trkpt lat="43.69051" lon="6.73766">
        <ele>747</ele>
        <time>2015-05-08T11:25:34Z</time>
      </trkpt>
      <trkpt lat="43.69039" lon="6.73761">
        <ele>747</ele>
        <time>2015-05-08T11:25:40Z</time>
      </trkpt>
      <trkpt lat="43.69028" lon="6.73757">
        <ele>748</ele>
        <time>2015-05-08T11:25:45Z</time>
      </trkpt>
      <trkpt lat="43.69015" lon="6.73749">
        <ele>753</ele>
        <time>2015-05-08T11:25:50Z</time>
      </trkpt>
      <trkpt lat="43.69001" lon="6.73738">
        <ele>753</ele>
        <time>2015-05-08T11:25:55Z</time>
      </trkpt>
      <trkpt lat="43.68982" lon="6.73722">
        <ele>750</ele>
        <time>2015-05-08T11:26:00Z</time>
      </trkpt>
      <trkpt lat="43.68965" lon="6.73705">
        <ele>749</ele>
        <time>2015-05-08T11:26:05Z</time>
      </trkpt>
      <trkpt lat="43.68956" lon="6.73708">
        <ele>748</ele>
        <time>2015-05-08T11:26:11Z</time>
      </trkpt>
      <trkpt lat="43.6894" lon="6.73721">
        <ele>747</ele>
        <time>2015-05-08T11:26:16Z</time>
      </trkpt>
      <trkpt lat="43.68925" lon="6.73746">
        <ele>743</ele>
        <time>2015-05-08T11:26:21Z</time>
      </trkpt>
      <trkpt lat="43.68921" lon="6.73748">
        <ele>742</ele>
        <time>2015-05-08T11:26:22Z</time>
      </trkpt>
      <trkpt lat="43.68903" lon="6.73735">
        <ele>738</ele>
        <time>2015-05-08T11:26:27Z</time>
      </trkpt>
      <trkpt lat="43.68887" lon="6.7374">
        <ele>736</ele>
        <time>2015-05-08T11:26:32Z</time>
      </trkpt>
      <trkpt lat="43.68878" lon="6.73746">
        <ele>735</ele>
        <time>2015-05-08T11:26:36Z</time>
      </trkpt>
      <trkpt lat="43.6887" lon="6.73761">
        <ele>730</ele>
        <time>2015-05-08T11:26:41Z</time>
      </trkpt>
      <trkpt lat="43.6887" lon="6.73786">
        <ele>729</ele>
        <time>2015-05-08T11:26:46Z</time>
      </trkpt>
      <trkpt lat="43.68872" lon="6.73792">
        <ele>729</ele>
        <time>2015-05-08T11:26:47Z</time>
      </trkpt>
      <trkpt lat="43.68865" lon="6.73803">
        <ele>728</ele>
        <time>2015-05-08T11:26:52Z</time>
      </trkpt>
      <trkpt lat="43.68862" lon="6.73812">
        <ele>727</ele>
        <time>2015-05-08T11:26:55Z</time>
      </trkpt>
      <trkpt lat="43.68859" lon="6.73833">
        <ele>726</ele>
        <time>2015-05-08T11:27:01Z</time>
      </trkpt>
      <trkpt lat="43.68855" lon="6.73841">
        <ele>719</ele>
        <time>2015-05-08T11:27:02Z</time>
      </trkpt>
      <trkpt lat="43.68854" lon="6.73846">
        <ele>719</ele>
        <time>2015-05-08T11:27:03Z</time>
      </trkpt>
      <trkpt lat="43.68845" lon="6.73848">
        <ele>719</ele>
        <time>2015-05-08T11:27:09Z</time>
      </trkpt>
      <trkpt lat="43.68842" lon="6.73846">
        <ele>718</ele>
        <time>2015-05-08T11:27:10Z</time>
      </trkpt>
      <trkpt lat="43.68835" lon="6.73862">
        <ele>718</ele>
        <time>2015-05-08T11:27:16Z</time>
      </trkpt>
      <trkpt lat="43.6883" lon="6.73883">
        <ele>706</ele>
        <time>2015-05-08T11:27:21Z</time>
      </trkpt>
      <trkpt lat="43.68829" lon="6.73887">
        <ele>706</ele>
        <time>2015-05-08T11:27:22Z</time>
      </trkpt>
      <trkpt lat="43.68819" lon="6.73905">
        <ele>705</ele>
        <time>2015-05-08T11:27:27Z</time>
      </trkpt>
      <trkpt lat="43.68808" lon="6.73928">
        <ele>696</ele>
        <time>2015-05-08T11:27:32Z</time>
      </trkpt>
      <trkpt lat="43.68803" lon="6.73943">
        <ele>694</ele>
        <time>2015-05-08T11:27:35Z</time>
      </trkpt>
      <trkpt lat="43.68803" lon="6.73948">
        <ele>693</ele>
        <time>2015-05-08T11:27:36Z</time>
      </trkpt>
      <trkpt lat="43.68788" lon="6.73956">
        <ele>691</ele>
        <time>2015-05-08T11:27:41Z</time>
      </trkpt>
      <trkpt lat="43.68783" lon="6.73953">
        <ele>691</ele>
        <time>2015-05-08T11:27:43Z</time>
      </trkpt>
      <trkpt lat="43.68769" lon="6.73937">
        <ele>691</ele>
        <time>2015-05-08T11:27:50Z</time>
      </trkpt>
      <trkpt lat="43.68759" lon="6.73962">
        <ele>689</ele>
        <time>2015-05-08T11:27:55Z</time>
      </trkpt>
      <trkpt lat="43.68753" lon="6.73992">
        <ele>684</ele>
        <time>2015-05-08T11:28:00Z</time>
      </trkpt>
      <trkpt lat="43.68742" lon="6.74002">
        <ele>678</ele>
        <time>2015-05-08T11:28:06Z</time>
      </trkpt>
      <trkpt lat="43.6874" lon="6.73996">
        <ele>680</ele>
        <time>2015-05-08T11:28:08Z</time>
      </trkpt>
      <trkpt lat="43.68727" lon="6.73987">
        <ele>678</ele>
        <time>2015-05-08T11:28:13Z</time>
      </trkpt>
      <trkpt lat="43.68721" lon="6.74006">
        <ele>672</ele>
        <time>2015-05-08T11:28:18Z</time>
      </trkpt>
      <trkpt lat="43.68708" lon="6.74027">
        <ele>669</ele>
        <time>2015-05-08T11:28:23Z</time>
      </trkpt>
      <trkpt lat="43.68695" lon="6.74054">
        <ele>667</ele>
        <time>2015-05-08T11:28:28Z</time>
      </trkpt>
      <trkpt lat="43.68683" lon="6.74065">
        <ele>665</ele>
        <time>2015-05-08T11:28:34Z</time>
      </trkpt>
      <trkpt lat="43.68679" lon="6.74062">
        <ele>665</ele>
        <time>2015-05-08T11:28:35Z</time>
      </trkpt>
      <trkpt lat="43.68669" lon="6.74044">
        <ele>666</ele>
        <time>2015-05-08T11:28:38Z</time>
      </trkpt>
      <trkpt lat="43.68655" lon="6.7404">
        <ele>654</ele>
        <time>2015-05-08T11:28:44Z</time>
      </trkpt>
      <trkpt lat="43.68647" lon="6.74053">
        <ele>653</ele>
        <time>2015-05-08T11:28:48Z</time>
      </trkpt>
      <trkpt lat="43.68648" lon="6.74062">
        <ele>654</ele>
        <time>2015-05-08T11:28:51Z</time>
      </trkpt>
      <trkpt lat="43.68647" lon="6.74066">
        <ele>654</ele>
        <time>2015-05-08T11:29:01Z</time>
      </trkpt>
      <trkpt lat="43.68645" lon="6.74068">
        <ele>653</ele>
        <time>2015-05-08T11:29:24Z</time>
      </trkpt>
      <trkpt lat="43.68642" lon="6.74065">
        <ele>653</ele>
        <time>2015-05-08T11:29:40Z</time>
      </trkpt>
      <trkpt lat="43.68639" lon="6.74068">
        <ele>652</ele>
        <time>2015-05-08T11:30:04Z</time>
      </trkpt>
      <trkpt lat="43.68638" lon="6.74071">
        <ele>652</ele>
        <time>2015-05-08T11:30:11Z</time>
      </trkpt>
      <trkpt lat="43.68641" lon="6.74073">
        <ele>653</ele>
        <time>2015-05-08T11:30:15Z</time>
      </trkpt>
      <trkpt lat="43.68638" lon="6.74074">
        <ele>652</ele>
        <time>2015-05-08T11:30:54Z</time>
      </trkpt>
      <trkpt lat="43.6863" lon="6.74073">
        <ele>650</ele>
        <time>2015-05-08T11:31:01Z</time>
      </trkpt>
      <trkpt lat="43.68628" lon="6.74075">
        <ele>650</ele>
        <time>2015-05-08T11:31:46Z</time>
      </trkpt>
      <trkpt lat="43.68625" lon="6.74074">
        <ele>649</ele>
        <time>2015-05-08T11:35:15Z</time>
      </trkpt>
      <trkpt lat="43.68627" lon="6.74076">
        <ele>650</ele>
        <time>2015-05-08T11:35:38Z</time>
      </trkpt>
      <trkpt lat="43.68625" lon="6.74077">
        <ele>649</ele>
        <time>2015-05-08T11:36:45Z</time>
      </trkpt>
      <trkpt lat="43.68624" lon="6.74082">
        <ele>649</ele>
        <time>2015-05-08T11:36:52Z</time>
      </trkpt>
      <trkpt lat="43.68616" lon="6.7408">
        <ele>647</ele>
        <time>2015-05-08T11:36:58Z</time>
      </trkpt>
      <trkpt lat="43.68615" lon="6.74097">
        <ele>641</ele>
        <time>2015-05-08T11:37:03Z</time>
      </trkpt>
      <trkpt lat="43.6862" lon="6.74122">
        <ele>641</ele>
        <time>2015-05-08T11:37:09Z</time>
      </trkpt>
      <trkpt lat="43.68636" lon="6.7415">
        <ele>642</ele>
        <time>2015-05-08T11:37:14Z</time>
      </trkpt>
      <trkpt lat="43.68638" lon="6.74155">
        <ele>642</ele>
        <time>2015-05-08T11:37:15Z</time>
      </trkpt>
      <trkpt lat="43.68653" lon="6.7418">
        <ele>639</ele>
        <time>2015-05-08T11:37:20Z</time>
      </trkpt>
      <trkpt lat="43.68655" lon="6.74191">
        <ele>637</ele>
        <time>2015-05-08T11:37:23Z</time>
      </trkpt>
      <trkpt lat="43.68661" lon="6.74219">
        <ele>634</ele>
        <time>2015-05-08T11:37:28Z</time>
      </trkpt>
      <trkpt lat="43.68675" lon="6.74247">
        <ele>634</ele>
        <time>2015-05-08T11:37:33Z</time>
      </trkpt>
      <trkpt lat="43.68682" lon="6.74263">
        <ele>625</ele>
        <time>2015-05-08T11:37:38Z</time>
      </trkpt>
      <trkpt lat="43.68673" lon="6.7428">
        <ele>622</ele>
        <time>2015-05-08T11:37:43Z</time>
      </trkpt>
      <trkpt lat="43.68667" lon="6.74295">
        <ele>620</ele>
        <time>2015-05-08T11:37:48Z</time>
      </trkpt>
      <trkpt lat="43.68652" lon="6.74292">
        <ele>624</ele>
        <time>2015-05-08T11:37:53Z</time>
      </trkpt>
      <trkpt lat="43.68649" lon="6.74309">
        <ele>623</ele>
        <time>2015-05-08T11:37:59Z</time>
      </trkpt>
      <trkpt lat="43.68638" lon="6.74306">
        <ele>623</ele>
        <time>2015-05-08T11:38:04Z</time>
      </trkpt>
      <trkpt lat="43.68622" lon="6.74318">
        <ele>621</ele>
        <time>2015-05-08T11:38:10Z</time>
      </trkpt>
      <trkpt lat="43.68616" lon="6.74317">
        <ele>621</ele>
        <time>2015-05-08T11:38:21Z</time>
      </trkpt>
      <trkpt lat="43.68609" lon="6.74312">
        <ele>621</ele>
        <time>2015-05-08T11:38:27Z</time>
      </trkpt>
      <trkpt lat="43.68601" lon="6.74302">
        <ele>621</ele>
        <time>2015-05-08T11:38:32Z</time>
      </trkpt>
      <trkpt lat="43.68585" lon="6.7429">
        <ele>621</ele>
        <time>2015-05-08T11:38:37Z</time>
      </trkpt>
      <trkpt lat="43.68568" lon="6.74286">
        <ele>611</ele>
        <time>2015-05-08T11:38:42Z</time>
      </trkpt>
      <trkpt lat="43.68557" lon="6.74281">
        <ele>611</ele>
        <time>2015-05-08T11:38:49Z</time>
      </trkpt>
      <trkpt lat="43.68553" lon="6.74277">
        <ele>610</ele>
        <time>2015-05-08T11:38:51Z</time>
      </trkpt>
      <trkpt lat="43.68533" lon="6.74276">
        <ele>608</ele>
        <time>2015-05-08T11:38:56Z</time>
      </trkpt>
      <trkpt lat="43.68516" lon="6.74271">
        <ele>607</ele>
        <time>2015-05-08T11:39:03Z</time>
      </trkpt>
      <trkpt lat="43.68514" lon="6.74272">
        <ele>607</ele>
        <time>2015-05-08T11:39:12Z</time>
      </trkpt>
      <trkpt lat="43.68511" lon="6.74271">
        <ele>606</ele>
        <time>2015-05-08T11:39:22Z</time>
      </trkpt>
      <trkpt lat="43.68507" lon="6.74273">
        <ele>606</ele>
        <time>2015-05-08T11:39:27Z</time>
      </trkpt>
      <trkpt lat="43.68498" lon="6.74278">
        <ele>595</ele>
        <time>2015-05-08T11:39:32Z</time>
      </trkpt>
      <trkpt lat="43.6848" lon="6.74278">
        <ele>593</ele>
        <time>2015-05-08T11:39:37Z</time>
      </trkpt>
      <trkpt lat="43.68463" lon="6.74259">
        <ele>591</ele>
        <time>2015-05-08T11:39:42Z</time>
      </trkpt>
      <trkpt lat="43.68448" lon="6.74258">
        <ele>588</ele>
        <time>2015-05-08T11:39:47Z</time>
      </trkpt>
      <trkpt lat="43.68445" lon="6.74262">
        <ele>587</ele>
        <time>2015-05-08T11:39:49Z</time>
      </trkpt>
      <trkpt lat="43.68447" lon="6.74271">
        <ele>588</ele>
        <time>2015-05-08T11:39:54Z</time>
      </trkpt>
      <trkpt lat="43.68453" lon="6.74275">
        <ele>589</ele>
        <time>2015-05-08T11:40:27Z</time>
      </trkpt>
      <trkpt lat="43.68451" lon="6.74271">
        <ele>588</ele>
        <time>2015-05-08T11:41:21Z</time>
      </trkpt>
      <trkpt lat="43.6845" lon="6.74275">
        <ele>588</ele>
        <time>2015-05-08T11:41:47Z</time>
      </trkpt>
      <trkpt lat="43.68452" lon="6.74277">
        <ele>589</ele>
        <time>2015-05-08T11:41:55Z</time>
      </trkpt>
      <trkpt lat="43.68462" lon="6.74288">
        <ele>590</ele>
        <time>2015-05-08T11:42:01Z</time>
      </trkpt>
      <trkpt lat="43.6847" lon="6.743">
        <ele>591</ele>
        <time>2015-05-08T11:42:06Z</time>
      </trkpt>
      <trkpt lat="43.6848" lon="6.74322">
        <ele>593</ele>
        <time>2015-05-08T11:42:11Z</time>
      </trkpt>
      <trkpt lat="43.6849" lon="6.74342">
        <ele>592</ele>
        <time>2015-05-08T11:42:16Z</time>
      </trkpt>
      <trkpt lat="43.68502" lon="6.74363">
        <ele>599</ele>
        <time>2015-05-08T11:42:22Z</time>
      </trkpt>
      <trkpt lat="43.6851" lon="6.7438">
        <ele>597</ele>
        <time>2015-05-08T11:42:27Z</time>
      </trkpt>
      <trkpt lat="43.68517" lon="6.74405">
        <ele>594</ele>
        <time>2015-05-08T11:42:32Z</time>
      </trkpt>
      <trkpt lat="43.68531" lon="6.74441">
        <ele>585</ele>
        <time>2015-05-08T11:42:37Z</time>
      </trkpt>
      <trkpt lat="43.68544" lon="6.74458">
        <ele>584</ele>
        <time>2015-05-08T11:42:42Z</time>
      </trkpt>
      <trkpt lat="43.68546" lon="6.74479">
        <ele>581</ele>
        <time>2015-05-08T11:42:47Z</time>
      </trkpt>
      <trkpt lat="43.68528" lon="6.74478">
        <ele>581</ele>
        <time>2015-05-08T11:42:52Z</time>
      </trkpt>
      <trkpt lat="43.68523" lon="6.7448">
        <ele>580</ele>
        <time>2015-05-08T11:42:53Z</time>
      </trkpt>
      <trkpt lat="43.68519" lon="6.74486">
        <ele>579</ele>
        <time>2015-05-08T11:42:58Z</time>
      </trkpt>
      <trkpt lat="43.68521" lon="6.74494">
        <ele>579</ele>
        <time>2015-05-08T11:43:02Z</time>
      </trkpt>
      <trkpt lat="43.68522" lon="6.74512">
        <ele>565</ele>
        <time>2015-05-08T11:43:08Z</time>
      </trkpt>
      <trkpt lat="43.68513" lon="6.74518">
        <ele>565</ele>
        <time>2015-05-08T11:43:10Z</time>
      </trkpt>
      <trkpt lat="43.68493" lon="6.74535">
        <ele>562</ele>
        <time>2015-05-08T11:43:15Z</time>
      </trkpt>
      <trkpt lat="43.68468" lon="6.74547">
        <ele>560</ele>
        <time>2015-05-08T11:43:20Z</time>
      </trkpt>
      <trkpt lat="43.68464" lon="6.74548">
        <ele>559</ele>
        <time>2015-05-08T11:43:21Z</time>
      </trkpt>
      <trkpt lat="43.68456" lon="6.74552">
        <ele>559</ele>
        <time>2015-05-08T11:43:24Z</time>
      </trkpt>
      <trkpt lat="43.68446" lon="6.74549">
        <ele>559</ele>
        <time>2015-05-08T11:43:29Z</time>
      </trkpt>
      <trkpt lat="43.68444" lon="6.74551">
        <ele>559</ele>
        <time>2015-05-08T11:43:30Z</time>
      </trkpt>
      <trkpt lat="43.68429" lon="6.74553">
        <ele>558</ele>
        <time>2015-05-08T11:43:35Z</time>
      </trkpt>
      <trkpt lat="43.68411" lon="6.74556">
        <ele>551</ele>
        <time>2015-05-08T11:43:40Z</time>
      </trkpt>
      <trkpt lat="43.68394" lon="6.74559">
        <ele>550</ele>
        <time>2015-05-08T11:43:46Z</time>
      </trkpt>
      <trkpt lat="43.68384" lon="6.74566">
        <ele>549</ele>
        <time>2015-05-08T11:43:53Z</time>
      </trkpt>
      <trkpt lat="43.68383" lon="6.7457">
        <ele>549</ele>
        <time>2015-05-08T11:43:57Z</time>
      </trkpt>
      <trkpt lat="43.6838" lon="6.74573">
        <ele>549</ele>
        <time>2015-05-08T11:44:00Z</time>
      </trkpt>
      <trkpt lat="43.68377" lon="6.74581">
        <ele>548</ele>
        <time>2015-05-08T11:44:05Z</time>
      </trkpt>
      <trkpt lat="43.68377" lon="6.74587">
        <ele>539</ele>
        <time>2015-05-08T11:44:07Z</time>
      </trkpt>
      <trkpt lat="43.68372" lon="6.74603">
        <ele>537</ele>
        <time>2015-05-08T11:44:12Z</time>
      </trkpt>
      <trkpt lat="43.68365" lon="6.74623">
        <ele>535</ele>
        <time>2015-05-08T11:44:17Z</time>
      </trkpt>
      <trkpt lat="43.68353" lon="6.74643">
        <ele>532</ele>
        <time>2015-05-08T11:44:22Z</time>
      </trkpt>
      <trkpt lat="43.68343" lon="6.74669">
        <ele>522</ele>
        <time>2015-05-08T11:44:27Z</time>
      </trkpt>
      <trkpt lat="43.68332" lon="6.74685">
        <ele>519</ele>
        <time>2015-05-08T11:44:32Z</time>
      </trkpt>
      <trkpt lat="43.68317" lon="6.74704">
        <ele>515</ele>
        <time>2015-05-08T11:44:37Z</time>
      </trkpt>
      <trkpt lat="43.68299" lon="6.7472">
        <ele>513</ele>
        <time>2015-05-08T11:44:42Z</time>
      </trkpt>
      <trkpt lat="43.68283" lon="6.74726">
        <ele>512</ele>
        <time>2015-05-08T11:44:47Z</time>
      </trkpt>
      <trkpt lat="43.68267" lon="6.74724">
        <ele>511</ele>
        <time>2015-05-08T11:44:53Z</time>
      </trkpt>
      <trkpt lat="43.68257" lon="6.74706">
        <ele>512</ele>
        <time>2015-05-08T11:44:58Z</time>
      </trkpt>
      <trkpt lat="43.68246" lon="6.74686">
        <ele>510</ele>
        <time>2015-05-08T11:45:03Z</time>
      </trkpt>
      <trkpt lat="43.68234" lon="6.74664">
        <ele>514</ele>
        <time>2015-05-08T11:45:09Z</time>
      </trkpt>
      <trkpt lat="43.68219" lon="6.7465">
        <ele>514</ele>
        <time>2015-05-08T11:45:14Z</time>
      </trkpt>
      <trkpt lat="43.68212" lon="6.74647">
        <ele>514</ele>
        <time>2015-05-08T11:45:17Z</time>
      </trkpt>
      <trkpt lat="43.68196" lon="6.74645">
        <ele>514</ele>
        <time>2015-05-08T11:45:22Z</time>
      </trkpt>
      <trkpt lat="43.68178" lon="6.74649">
        <ele>513</ele>
        <time>2015-05-08T11:45:27Z</time>
      </trkpt>
      <trkpt lat="43.68164" lon="6.74653">
        <ele>511</ele>
        <time>2015-05-08T11:45:32Z</time>
      </trkpt>
      <trkpt lat="43.68161" lon="6.74653">
        <ele>511</ele>
        <time>2015-05-08T11:45:33Z</time>
      </trkpt>
      <trkpt lat="43.68144" lon="6.74647">
        <ele>513</ele>
        <time>2015-05-08T11:45:39Z</time>
      </trkpt>
      <trkpt lat="43.68129" lon="6.7464">
        <ele>513</ele>
        <time>2015-05-08T11:45:45Z</time>
      </trkpt>
      <trkpt lat="43.68118" lon="6.7464">
        <ele>513</ele>
        <time>2015-05-08T11:45:51Z</time>
      </trkpt>
      <trkpt lat="43.68106" lon="6.74638">
        <ele>513</ele>
        <time>2015-05-08T11:45:56Z</time>
      </trkpt>
      <trkpt lat="43.68096" lon="6.74628">
        <ele>514</ele>
        <time>2015-05-08T11:46:01Z</time>
      </trkpt>
      <trkpt lat="43.68089" lon="6.74614">
        <ele>516</ele>
        <time>2015-05-08T11:46:06Z</time>
      </trkpt>
      <trkpt lat="43.68082" lon="6.74599">
        <ele>516</ele>
        <time>2015-05-08T11:46:12Z</time>
      </trkpt>
      <trkpt lat="43.68079" lon="6.74589">
        <ele>519</ele>
        <time>2015-05-08T11:46:17Z</time>
      </trkpt>
      <trkpt lat="43.68074" lon="6.74583">
        <ele>522</ele>
        <time>2015-05-08T11:46:21Z</time>
      </trkpt>
      <trkpt lat="43.68068" lon="6.74576">
        <ele>522</ele>
        <time>2015-05-08T11:46:26Z</time>
      </trkpt>
      <trkpt lat="43.68059" lon="6.74563">
        <ele>521</ele>
        <time>2015-05-08T11:46:32Z</time>
      </trkpt>
      <trkpt lat="43.68051" lon="6.74551">
        <ele>522</ele>
        <time>2015-05-08T11:46:38Z</time>
      </trkpt>
      <trkpt lat="43.68043" lon="6.74535">
        <ele>522</ele>
        <time>2015-05-08T11:46:44Z</time>
      </trkpt>
      <trkpt lat="43.68037" lon="6.74518">
        <ele>523</ele>
        <time>2015-05-08T11:46:50Z</time>
      </trkpt>
      <trkpt lat="43.68035" lon="6.74499">
        <ele>529</ele>
        <time>2015-05-08T11:46:56Z</time>
      </trkpt>
      <trkpt lat="43.68032" lon="6.74482">
        <ele>530</ele>
        <time>2015-05-08T11:47:02Z</time>
      </trkpt>
      <trkpt lat="43.68029" lon="6.74465">
        <ele>531</ele>
        <time>2015-05-08T11:47:08Z</time>
      </trkpt>
      <trkpt lat="43.68025" lon="6.74449">
        <ele>532</ele>
        <time>2015-05-08T11:47:14Z</time>
      </trkpt>
      <trkpt lat="43.6802" lon="6.74437">
        <ele>532</ele>
        <time>2015-05-08T11:47:20Z</time>
      </trkpt>
      <trkpt lat="43.68018" lon="6.74422">
        <ele>532</ele>
        <time>2015-05-08T11:47:26Z</time>
      </trkpt>
      <trkpt lat="43.68016" lon="6.74404">
        <ele>537</ele>
        <time>2015-05-08T11:47:32Z</time>
      </trkpt>
      <trkpt lat="43.68017" lon="6.74387">
        <ele>538</ele>
        <time>2015-05-08T11:47:37Z</time>
      </trkpt>
      <trkpt lat="43.68013" lon="6.74377">
        <ele>539</ele>
        <time>2015-05-08T11:47:42Z</time>
      </trkpt>
      <trkpt lat="43.68009" lon="6.74363">
        <ele>539</ele>
        <time>2015-05-08T11:47:47Z</time>
      </trkpt>
      <trkpt lat="43.67997" lon="6.74341">
        <ele>536</ele>
        <time>2015-05-08T11:47:52Z</time>
      </trkpt>
      <trkpt lat="43.67988" lon="6.74348">
        <ele>535</ele>
        <time>2015-05-08T11:47:57Z</time>
      </trkpt>
      <trkpt lat="43.67977" lon="6.74363">
        <ele>534</ele>
        <time>2015-05-08T11:48:03Z</time>
      </trkpt>
      <trkpt lat="43.67974" lon="6.74368">
        <ele>534</ele>
        <time>2015-05-08T11:48:05Z</time>
      </trkpt>
      <trkpt lat="43.67964" lon="6.7438">
        <ele>533</ele>
        <time>2015-05-08T11:48:10Z</time>
      </trkpt>
      <trkpt lat="43.67945" lon="6.74399">
        <ele>532</ele>
        <time>2015-05-08T11:48:15Z</time>
      </trkpt>
      <trkpt lat="43.67921" lon="6.74417">
        <ele>530</ele>
        <time>2015-05-08T11:48:20Z</time>
      </trkpt>
      <trkpt lat="43.67892" lon="6.74419">
        <ele>527</ele>
        <time>2015-05-08T11:48:25Z</time>
      </trkpt>
      <trkpt lat="43.67886" lon="6.7442">
        <ele>527</ele>
        <time>2015-05-08T11:48:26Z</time>
      </trkpt>
      <trkpt lat="43.67853" lon="6.74425">
        <ele>528</ele>
        <time>2015-05-08T11:48:31Z</time>
      </trkpt>
      <trkpt lat="43.67825" lon="6.74419">
        <ele>529</ele>
        <time>2015-05-08T11:48:36Z</time>
      </trkpt>
      <trkpt lat="43.67812" lon="6.7441">
        <ele>530</ele>
        <time>2015-05-08T11:48:41Z</time>
      </trkpt>
      <trkpt lat="43.67798" lon="6.74397">
        <ele>531</ele>
        <time>2015-05-08T11:48:46Z</time>
      </trkpt>
      <trkpt lat="43.67783" lon="6.74384">
        <ele>531</ele>
        <time>2015-05-08T11:48:51Z</time>
      </trkpt>
      <trkpt lat="43.67777" lon="6.7438">
        <ele>531</ele>
        <time>2015-05-08T11:48:53Z</time>
      </trkpt>
      <trkpt lat="43.67761" lon="6.74371">
        <ele>530</ele>
        <time>2015-05-08T11:48:58Z</time>
      </trkpt>
      <trkpt lat="43.67742" lon="6.7436">
        <ele>528</ele>
        <time>2015-05-08T11:49:03Z</time>
      </trkpt>
      <trkpt lat="43.67725" lon="6.74341">
        <ele>528</ele>
        <time>2015-05-08T11:49:07Z</time>
      </trkpt>
      <trkpt lat="43.67705" lon="6.74309">
        <ele>528</ele>
        <time>2015-05-08T11:49:12Z</time>
      </trkpt>
      <trkpt lat="43.67702" lon="6.74301">
        <ele>528</ele>
        <time>2015-05-08T11:49:13Z</time>
      </trkpt>
      <trkpt lat="43.67685" lon="6.74281">
        <ele>528</ele>
        <time>2015-05-08T11:49:18Z</time>
      </trkpt>
      <trkpt lat="43.67682" lon="6.74275">
        <ele>528</ele>
        <time>2015-05-08T11:49:19Z</time>
      </trkpt>
      <trkpt lat="43.67684" lon="6.7425">
        <ele>529</ele>
        <time>2015-05-08T11:49:24Z</time>
      </trkpt>
      <trkpt lat="43.67696" lon="6.74239">
        <ele>530</ele>
        <time>2015-05-08T11:49:29Z</time>
      </trkpt>
      <trkpt lat="43.6771" lon="6.7423">
        <ele>531</ele>
        <time>2015-05-08T11:49:34Z</time>
      </trkpt>
      <trkpt lat="43.67726" lon="6.74227">
        <ele>531</ele>
        <time>2015-05-08T11:49:39Z</time>
      </trkpt>
      <trkpt lat="43.67735" lon="6.74212">
        <ele>531</ele>
        <time>2015-05-08T11:49:44Z</time>
      </trkpt>
      <trkpt lat="43.67732" lon="6.74207">
        <ele>531</ele>
        <time>2015-05-08T11:49:45Z</time>
      </trkpt>
      <trkpt lat="43.6773" lon="6.74189">
        <ele>531</ele>
        <time>2015-05-08T11:49:49Z</time>
      </trkpt>
      <trkpt lat="43.67724" lon="6.74169">
        <ele>532</ele>
        <time>2015-05-08T11:49:54Z</time>
      </trkpt>
      <trkpt lat="43.67718" lon="6.74149">
        <ele>534</ele>
        <time>2015-05-08T11:49:59Z</time>
      </trkpt>
      <trkpt lat="43.67719" lon="6.74131">
        <ele>535</ele>
        <time>2015-05-08T11:50:04Z</time>
      </trkpt>
      <trkpt lat="43.67718" lon="6.74111">
        <ele>535</ele>
        <time>2015-05-08T11:50:10Z</time>
      </trkpt>
      <trkpt lat="43.67716" lon="6.74091">
        <ele>536</ele>
        <time>2015-05-08T11:50:16Z</time>
      </trkpt>
      <trkpt lat="43.67714" lon="6.74071">
        <ele>539</ele>
        <time>2015-05-08T11:50:22Z</time>
      </trkpt>
      <trkpt lat="43.67716" lon="6.74053">
        <ele>540</ele>
        <time>2015-05-08T11:50:28Z</time>
      </trkpt>
      <trkpt lat="43.67717" lon="6.74035">
        <ele>540</ele>
        <time>2015-05-08T11:50:34Z</time>
      </trkpt>
      <trkpt lat="43.67718" lon="6.74029">
        <ele>540</ele>
        <time>2015-05-08T11:50:36Z</time>
      </trkpt>
      <trkpt lat="43.6772" lon="6.74014">
        <ele>541</ele>
        <time>2015-05-08T11:50:42Z</time>
      </trkpt>
      <trkpt lat="43.67722" lon="6.74001">
        <ele>541</ele>
        <time>2015-05-08T11:50:48Z</time>
      </trkpt>
      <trkpt lat="43.67725" lon="6.73986">
        <ele>544</ele>
        <time>2015-05-08T11:50:54Z</time>
      </trkpt>
      <trkpt lat="43.67728" lon="6.73976">
        <ele>545</ele>
        <time>2015-05-08T11:50:59Z</time>
      </trkpt>
      <trkpt lat="43.67734" lon="6.73963">
        <ele>545</ele>
        <time>2015-05-08T11:51:05Z</time>
      </trkpt>
      <trkpt lat="43.67736" lon="6.73952">
        <ele>546</ele>
        <time>2015-05-08T11:51:10Z</time>
      </trkpt>
      <trkpt lat="43.67741" lon="6.73941">
        <ele>546</ele>
        <time>2015-05-08T11:51:16Z</time>
      </trkpt>
      <trkpt lat="43.67743" lon="6.73929">
        <ele>548</ele>
        <time>2015-05-08T11:51:22Z</time>
      </trkpt>
      <trkpt lat="43.67743" lon="6.73924">
        <ele>548</ele>
        <time>2015-05-08T11:51:25Z</time>
      </trkpt>
      <trkpt lat="43.67743" lon="6.73913">
        <ele>550</ele>
        <time>2015-05-08T11:51:31Z</time>
      </trkpt>
      <trkpt lat="43.67748" lon="6.73905">
        <ele>550</ele>
        <time>2015-05-08T11:51:34Z</time>
      </trkpt>
      <trkpt lat="43.67753" lon="6.73898">
        <ele>553</ele>
        <time>2015-05-08T11:51:39Z</time>
      </trkpt>
      <trkpt lat="43.6776" lon="6.73891">
        <ele>554</ele>
        <time>2015-05-08T11:51:44Z</time>
      </trkpt>
      <trkpt lat="43.67766" lon="6.73886">
        <ele>555</ele>
        <time>2015-05-08T11:51:50Z</time>
      </trkpt>
      <trkpt lat="43.67771" lon="6.73881">
        <ele>556</ele>
        <time>2015-05-08T11:51:57Z</time>
      </trkpt>
      <trkpt lat="43.67776" lon="6.73874">
        <ele>556</ele>
        <time>2015-05-08T11:52:02Z</time>
      </trkpt>
      <trkpt lat="43.67779" lon="6.7387">
        <ele>556</ele>
        <time>2015-05-08T11:52:04Z</time>
      </trkpt>
      <trkpt lat="43.67785" lon="6.73863">
        <ele>557</ele>
        <time>2015-05-08T11:52:08Z</time>
      </trkpt>
      <trkpt lat="43.67792" lon="6.73855">
        <ele>557</ele>
        <time>2015-05-08T11:52:14Z</time>
      </trkpt>
      <trkpt lat="43.67796" lon="6.73848">
        <ele>558</ele>
        <time>2015-05-08T11:52:19Z</time>
      </trkpt>
      <trkpt lat="43.67799" lon="6.73838">
        <ele>558</ele>
        <time>2015-05-08T11:52:25Z</time>
      </trkpt>
      <trkpt lat="43.67802" lon="6.73831">
        <ele>562</ele>
        <time>2015-05-08T11:52:31Z</time>
      </trkpt>
      <trkpt lat="43.67804" lon="6.73823">
        <ele>562</ele>
        <time>2015-05-08T11:52:37Z</time>
      </trkpt>
      <trkpt lat="43.67805" lon="6.73816">
        <ele>563</ele>
        <time>2015-05-08T11:52:43Z</time>
      </trkpt>
      <trkpt lat="43.67804" lon="6.73807">
        <ele>563</ele>
        <time>2015-05-08T11:52:50Z</time>
      </trkpt>
      <trkpt lat="43.67806" lon="6.73796">
        <ele>563</ele>
        <time>2015-05-08T11:52:57Z</time>
      </trkpt>
      <trkpt lat="43.67812" lon="6.73789">
        <ele>564</ele>
        <time>2015-05-08T11:53:02Z</time>
      </trkpt>
      <trkpt lat="43.67815" lon="6.73781">
        <ele>564</ele>
        <time>2015-05-08T11:53:07Z</time>
      </trkpt>
      <trkpt lat="43.6782" lon="6.73776">
        <ele>565</ele>
        <time>2015-05-08T11:53:14Z</time>
      </trkpt>
      <trkpt lat="43.67826" lon="6.73771">
        <ele>566</ele>
        <time>2015-05-08T11:53:19Z</time>
      </trkpt>
      <trkpt lat="43.67832" lon="6.73765">
        <ele>567</ele>
        <time>2015-05-08T11:53:26Z</time>
      </trkpt>
      <trkpt lat="43.67837" lon="6.7376">
        <ele>570</ele>
        <time>2015-05-08T11:53:31Z</time>
      </trkpt>
      <trkpt lat="43.67841" lon="6.73755">
        <ele>570</ele>
        <time>2015-05-08T11:53:36Z</time>
      </trkpt>
      <trkpt lat="43.67848" lon="6.73746">
        <ele>573</ele>
        <time>2015-05-08T11:53:43Z</time>
      </trkpt>
      <trkpt lat="43.67852" lon="6.7374">
        <ele>574</ele>
        <time>2015-05-08T11:53:48Z</time>
      </trkpt>
      <trkpt lat="43.67859" lon="6.73732">
        <ele>575</ele>
        <time>2015-05-08T11:53:54Z</time>
      </trkpt>
      <trkpt lat="43.67864" lon="6.73728">
        <ele>576</ele>
        <time>2015-05-08T11:53:59Z</time>
      </trkpt>
      <trkpt lat="43.6787" lon="6.73723">
        <ele>576</ele>
        <time>2015-05-08T11:54:05Z</time>
      </trkpt>
      <trkpt lat="43.67876" lon="6.73718">
        <ele>577</ele>
        <time>2015-05-08T11:54:11Z</time>
      </trkpt>
      <trkpt lat="43.67883" lon="6.73712">
        <ele>577</ele>
        <time>2015-05-08T11:54:17Z</time>
      </trkpt>
      <trkpt lat="43.67888" lon="6.73707">
        <ele>578</ele>
        <time>2015-05-08T11:54:23Z</time>
      </trkpt>
      <trkpt lat="43.67894" lon="6.73701">
        <ele>578</ele>
        <time>2015-05-08T11:54:30Z</time>
      </trkpt>
      <trkpt lat="43.67895" lon="6.73697">
        <ele>579</ele>
        <time>2015-05-08T11:54:32Z</time>
      </trkpt>
      <trkpt lat="43.679" lon="6.73691">
        <ele>579</ele>
        <time>2015-05-08T11:54:38Z</time>
      </trkpt>
      <trkpt lat="43.67905" lon="6.7368">
        <ele>581</ele>
        <time>2015-05-08T11:54:44Z</time>
      </trkpt>
      <trkpt lat="43.67907" lon="6.73676">
        <ele>582</ele>
        <time>2015-05-08T11:54:47Z</time>
      </trkpt>
      <trkpt lat="43.67912" lon="6.73671">
        <ele>583</ele>
        <time>2015-05-08T11:54:53Z</time>
      </trkpt>
      <trkpt lat="43.67915" lon="6.73664">
        <ele>585</ele>
        <time>2015-05-08T11:54:58Z</time>
      </trkpt>
      <trkpt lat="43.6792" lon="6.73656">
        <ele>587</ele>
        <time>2015-05-08T11:55:03Z</time>
      </trkpt>
      <trkpt lat="43.67922" lon="6.73653">
        <ele>587</ele>
        <time>2015-05-08T11:55:06Z</time>
      </trkpt>
      <trkpt lat="43.67926" lon="6.73646">
        <ele>588</ele>
        <time>2015-05-08T11:55:11Z</time>
      </trkpt>
      <trkpt lat="43.67932" lon="6.73642">
        <ele>589</ele>
        <time>2015-05-08T11:55:16Z</time>
      </trkpt>
      <trkpt lat="43.67936" lon="6.73634">
        <ele>590</ele>
        <time>2015-05-08T11:55:22Z</time>
      </trkpt>
      <trkpt lat="43.67942" lon="6.7363">
        <ele>590</ele>
        <time>2015-05-08T11:55:27Z</time>
      </trkpt>
      <trkpt lat="43.67943" lon="6.73623">
        <ele>590</ele>
        <time>2015-05-08T11:55:32Z</time>
      </trkpt>
      <trkpt lat="43.67947" lon="6.73616">
        <ele>591</ele>
        <time>2015-05-08T11:55:37Z</time>
      </trkpt>
      <trkpt lat="43.67951" lon="6.7361">
        <ele>591</ele>
        <time>2015-05-08T11:55:42Z</time>
      </trkpt>
      <trkpt lat="43.67953" lon="6.73603">
        <ele>591</ele>
        <time>2015-05-08T11:55:47Z</time>
      </trkpt>
      <trkpt lat="43.67958" lon="6.73595">
        <ele>592</ele>
        <time>2015-05-08T11:55:53Z</time>
      </trkpt>
      <trkpt lat="43.67964" lon="6.73584">
        <ele>593</ele>
        <time>2015-05-08T11:56:00Z</time>
      </trkpt>
      <trkpt lat="43.6797" lon="6.73578">
        <ele>597</ele>
        <time>2015-05-08T11:56:06Z</time>
      </trkpt>
      <trkpt lat="43.67978" lon="6.73573">
        <ele>598</ele>
        <time>2015-05-08T11:56:12Z</time>
      </trkpt>
      <trkpt lat="43.67986" lon="6.73565">
        <ele>598</ele>
        <time>2015-05-08T11:56:19Z</time>
      </trkpt>
      <trkpt lat="43.67988" lon="6.73556">
        <ele>598</ele>
        <time>2015-05-08T11:56:25Z</time>
      </trkpt>
      <trkpt lat="43.67991" lon="6.73544">
        <ele>599</ele>
        <time>2015-05-08T11:56:32Z</time>
      </trkpt>
      <trkpt lat="43.67993" lon="6.73532">
        <ele>600</ele>
        <time>2015-05-08T11:56:38Z</time>
      </trkpt>
      <trkpt lat="43.67997" lon="6.73526">
        <ele>601</ele>
        <time>2015-05-08T11:56:44Z</time>
      </trkpt>
      <trkpt lat="43.68002" lon="6.73521">
        <ele>604</ele>
        <time>2015-05-08T11:56:50Z</time>
      </trkpt>
      <trkpt lat="43.68007" lon="6.73514">
        <ele>605</ele>
        <time>2015-05-08T11:56:56Z</time>
      </trkpt>
      <trkpt lat="43.68009" lon="6.73511">
        <ele>605</ele>
        <time>2015-05-08T11:56:59Z</time>
      </trkpt>
      <trkpt lat="43.68016" lon="6.73506">
        <ele>605</ele>
        <time>2015-05-08T11:57:06Z</time>
      </trkpt>
      <trkpt lat="43.68019" lon="6.73499">
        <ele>608</ele>
        <time>2015-05-08T11:57:12Z</time>
      </trkpt>
      <trkpt lat="43.68022" lon="6.73492">
        <ele>609</ele>
        <time>2015-05-08T11:57:17Z</time>
      </trkpt>
      <trkpt lat="43.68027" lon="6.73488">
        <ele>609</ele>
        <time>2015-05-08T11:57:22Z</time>
      </trkpt>
      <trkpt lat="43.68029" lon="6.73483">
        <ele>610</ele>
        <time>2015-05-08T11:57:25Z</time>
      </trkpt>
      <trkpt lat="43.68035" lon="6.73477">
        <ele>610</ele>
        <time>2015-05-08T11:57:30Z</time>
      </trkpt>
      <trkpt lat="43.68042" lon="6.73468">
        <ele>611</ele>
        <time>2015-05-08T11:57:36Z</time>
      </trkpt>
      <trkpt lat="43.68048" lon="6.73464">
        <ele>611</ele>
        <time>2015-05-08T11:57:40Z</time>
      </trkpt>
      <trkpt lat="43.68053" lon="6.73453">
        <ele>612</ele>
        <time>2015-05-08T11:57:46Z</time>
      </trkpt>
      <trkpt lat="43.6806" lon="6.73442">
        <ele>612</ele>
        <time>2015-05-08T11:57:53Z</time>
      </trkpt>
      <trkpt lat="43.68064" lon="6.73435">
        <ele>613</ele>
        <time>2015-05-08T11:57:58Z</time>
      </trkpt>
      <trkpt lat="43.6807" lon="6.73428">
        <ele>614</ele>
        <time>2015-05-08T11:58:03Z</time>
      </trkpt>
      <trkpt lat="43.68074" lon="6.73421">
        <ele>615</ele>
        <time>2015-05-08T11:58:08Z</time>
      </trkpt>
      <trkpt lat="43.68075" lon="6.73412">
        <ele>617</ele>
        <time>2015-05-08T11:58:13Z</time>
      </trkpt>
      <trkpt lat="43.68073" lon="6.73399">
        <ele>617</ele>
        <time>2015-05-08T11:58:19Z</time>
      </trkpt>
      <trkpt lat="43.68074" lon="6.73389">
        <ele>618</ele>
        <time>2015-05-08T11:58:26Z</time>
      </trkpt>
      <trkpt lat="43.68074" lon="6.73384">
        <ele>618</ele>
        <time>2015-05-08T11:58:28Z</time>
      </trkpt>
      <trkpt lat="43.68074" lon="6.73374">
        <ele>618</ele>
        <time>2015-05-08T11:58:33Z</time>
      </trkpt>
      <trkpt lat="43.68075" lon="6.73359">
        <ele>619</ele>
        <time>2015-05-08T11:58:39Z</time>
      </trkpt>
      <trkpt lat="43.68075" lon="6.73353">
        <ele>620</ele>
        <time>2015-05-08T11:58:42Z</time>
      </trkpt>
      <trkpt lat="43.68077" lon="6.73344">
        <ele>621</ele>
        <time>2015-05-08T11:58:47Z</time>
      </trkpt>
      <trkpt lat="43.68075" lon="6.73335">
        <ele>622</ele>
        <time>2015-05-08T11:58:51Z</time>
      </trkpt>
      <trkpt lat="43.68076" lon="6.73324">
        <ele>623</ele>
        <time>2015-05-08T11:58:55Z</time>
      </trkpt>
      <trkpt lat="43.68078" lon="6.7331">
        <ele>623</ele>
        <time>2015-05-08T11:59:01Z</time>
      </trkpt>
      <trkpt lat="43.68082" lon="6.73298">
        <ele>624</ele>
        <time>2015-05-08T11:59:07Z</time>
      </trkpt>
      <trkpt lat="43.68086" lon="6.73287">
        <ele>629</ele>
        <time>2015-05-08T11:59:13Z</time>
      </trkpt>
      <trkpt lat="43.6809" lon="6.73275">
        <ele>630</ele>
        <time>2015-05-08T11:59:19Z</time>
      </trkpt>
      <trkpt lat="43.68091" lon="6.73271">
        <ele>630</ele>
        <time>2015-05-08T11:59:21Z</time>
      </trkpt>
      <trkpt lat="43.68092" lon="6.73256">
        <ele>630</ele>
        <time>2015-05-08T11:59:27Z</time>
      </trkpt>
      <trkpt lat="43.68097" lon="6.73244">
        <ele>632</ele>
        <time>2015-05-08T11:59:33Z</time>
      </trkpt>
      <trkpt lat="43.68101" lon="6.73231">
        <ele>633</ele>
        <time>2015-05-08T11:59:39Z</time>
      </trkpt>
      <trkpt lat="43.68104" lon="6.73218">
        <ele>634</ele>
        <time>2015-05-08T11:59:45Z</time>
      </trkpt>
      <trkpt lat="43.68111" lon="6.73207">
        <ele>634</ele>
        <time>2015-05-08T11:59:51Z</time>
      </trkpt>
      <trkpt lat="43.68117" lon="6.73199">
        <ele>635</ele>
        <time>2015-05-08T11:59:57Z</time>
      </trkpt>
      <trkpt lat="43.68123" lon="6.73193">
        <ele>635</ele>
        <time>2015-05-08T12:00:02Z</time>
      </trkpt>
      <trkpt lat="43.68128" lon="6.73188">
        <ele>636</ele>
        <time>2015-05-08T12:00:07Z</time>
      </trkpt>
      <trkpt lat="43.68136" lon="6.7318">
        <ele>637</ele>
        <time>2015-05-08T12:00:13Z</time>
      </trkpt>
      <trkpt lat="43.68139" lon="6.73168">
        <ele>638</ele>
        <time>2015-05-08T12:00:19Z</time>
      </trkpt>
      <trkpt lat="43.68136" lon="6.73154">
        <ele>639</ele>
        <time>2015-05-08T12:00:25Z</time>
      </trkpt>
      <trkpt lat="43.68135" lon="6.7315">
        <ele>639</ele>
        <time>2015-05-08T12:00:26Z</time>
      </trkpt>
      <trkpt lat="43.68129" lon="6.73132">
        <ele>639</ele>
        <time>2015-05-08T12:00:31Z</time>
      </trkpt>
      <trkpt lat="43.68123" lon="6.73109">
        <ele>639</ele>
        <time>2015-05-08T12:00:37Z</time>
      </trkpt>
      <trkpt lat="43.68119" lon="6.73092">
        <ele>638</ele>
        <time>2015-05-08T12:00:42Z</time>
      </trkpt>
      <trkpt lat="43.68112" lon="6.73073">
        <ele>640</ele>
        <time>2015-05-08T12:00:47Z</time>
      </trkpt>
      <trkpt lat="43.68106" lon="6.73052">
        <ele>640</ele>
        <time>2015-05-08T12:00:52Z</time>
      </trkpt>
      <trkpt lat="43.68099" lon="6.73031">
        <ele>640</ele>
        <time>2015-05-08T12:00:57Z</time>
      </trkpt>
      <trkpt lat="43.68092" lon="6.7301">
        <ele>639</ele>
        <time>2015-05-08T12:01:02Z</time>
      </trkpt>
      <trkpt lat="43.6809" lon="6.73006">
        <ele>638</ele>
        <time>2015-05-08T12:01:03Z</time>
      </trkpt>
      <trkpt lat="43.68084" lon="6.72983">
        <ele>640</ele>
        <time>2015-05-08T12:01:08Z</time>
      </trkpt>
      <trkpt lat="43.68082" lon="6.72957">
        <ele>637</ele>
        <time>2015-05-08T12:01:13Z</time>
      </trkpt>
      <trkpt lat="43.68079" lon="6.72932">
        <ele>638</ele>
        <time>2015-05-08T12:01:18Z</time>
      </trkpt>
      <trkpt lat="43.68077" lon="6.72907">
        <ele>639</ele>
        <time>2015-05-08T12:01:23Z</time>
      </trkpt>
      <trkpt lat="43.68077" lon="6.72883">
        <ele>639</ele>
        <time>2015-05-08T12:01:28Z</time>
      </trkpt>
      <trkpt lat="43.6808" lon="6.72859">
        <ele>639</ele>
        <time>2015-05-08T12:01:34Z</time>
      </trkpt>
      <trkpt lat="43.68085" lon="6.72839">
        <ele>642</ele>
        <time>2015-05-08T12:01:39Z</time>
      </trkpt>
      <trkpt lat="43.68086" lon="6.7282">
        <ele>643</ele>
        <time>2015-05-08T12:01:44Z</time>
      </trkpt>
      <trkpt lat="43.68087" lon="6.72812">
        <ele>644</ele>
        <time>2015-05-08T12:01:46Z</time>
      </trkpt>
      <trkpt lat="43.68086" lon="6.72795">
        <ele>644</ele>
        <time>2015-05-08T12:01:52Z</time>
      </trkpt>
      <trkpt lat="43.68092" lon="6.72784">
        <ele>645</ele>
        <time>2015-05-08T12:01:57Z</time>
      </trkpt>
      <trkpt lat="43.68093" lon="6.72763">
        <ele>643</ele>
        <time>2015-05-08T12:02:02Z</time>
      </trkpt>
      <trkpt lat="43.68096" lon="6.72737">
        <ele>643</ele>
        <time>2015-05-08T12:02:07Z</time>
      </trkpt>
      <trkpt lat="43.68101" lon="6.72714">
        <ele>643</ele>
        <time>2015-05-08T12:02:12Z</time>
      </trkpt>
      <trkpt lat="43.68106" lon="6.72693">
        <ele>643</ele>
        <time>2015-05-08T12:02:18Z</time>
      </trkpt>
      <trkpt lat="43.68103" lon="6.72677">
        <ele>642</ele>
        <time>2015-05-08T12:02:23Z</time>
      </trkpt>
      <trkpt lat="43.68109" lon="6.72658">
        <ele>640</ele>
        <time>2015-05-08T12:02:29Z</time>
      </trkpt>
      <trkpt lat="43.68118" lon="6.72639">
        <ele>640</ele>
        <time>2015-05-08T12:02:35Z</time>
      </trkpt>
      <trkpt lat="43.68125" lon="6.72621">
        <ele>640</ele>
        <time>2015-05-08T12:02:40Z</time>
      </trkpt>
      <trkpt lat="43.68137" lon="6.72604">
        <ele>640</ele>
        <time>2015-05-08T12:02:45Z</time>
      </trkpt>
      <trkpt lat="43.68147" lon="6.72586">
        <ele>641</ele>
        <time>2015-05-08T12:02:50Z</time>
      </trkpt>
      <trkpt lat="43.68163" lon="6.72564">
        <ele>639</ele>
        <time>2015-05-08T12:02:55Z</time>
      </trkpt>
      <trkpt lat="43.68179" lon="6.72547">
        <ele>641</ele>
        <time>2015-05-08T12:03:00Z</time>
      </trkpt>
      <trkpt lat="43.68195" lon="6.72525">
        <ele>641</ele>
        <time>2015-05-08T12:03:05Z</time>
      </trkpt>
      <trkpt lat="43.68208" lon="6.72505">
        <ele>642</ele>
        <time>2015-05-08T12:03:10Z</time>
      </trkpt>
      <trkpt lat="43.6822" lon="6.72485">
        <ele>640</ele>
        <time>2015-05-08T12:03:15Z</time>
      </trkpt>
      <trkpt lat="43.68233" lon="6.72468">
        <ele>641</ele>
        <time>2015-05-08T12:03:20Z</time>
      </trkpt>
      <trkpt lat="43.68244" lon="6.72451">
        <ele>641</ele>
        <time>2015-05-08T12:03:25Z</time>
      </trkpt>
      <trkpt lat="43.68256" lon="6.72436">
        <ele>645</ele>
        <time>2015-05-08T12:03:31Z</time>
      </trkpt>
      <trkpt lat="43.68264" lon="6.72421">
        <ele>645</ele>
        <time>2015-05-08T12:03:36Z</time>
      </trkpt>
      <trkpt lat="43.68272" lon="6.72404">
        <ele>642</ele>
        <time>2015-05-08T12:03:42Z</time>
      </trkpt>
      <trkpt lat="43.68279" lon="6.72392">
        <ele>642</ele>
        <time>2015-05-08T12:03:48Z</time>
      </trkpt>
      <trkpt lat="43.68279" lon="6.72385">
        <ele>642</ele>
        <time>2015-05-08T12:03:53Z</time>
      </trkpt>
      <trkpt lat="43.68284" lon="6.72375">
        <ele>642</ele>
        <time>2015-05-08T12:03:58Z</time>
      </trkpt>
      <trkpt lat="43.68297" lon="6.72355">
        <ele>641</ele>
        <time>2015-05-08T12:04:03Z</time>
      </trkpt>
      <trkpt lat="43.68312" lon="6.72334">
        <ele>642</ele>
        <time>2015-05-08T12:04:09Z</time>
      </trkpt>
      <trkpt lat="43.68325" lon="6.72325">
        <ele>639</ele>
        <time>2015-05-08T12:04:14Z</time>
      </trkpt>
      <trkpt lat="43.68339" lon="6.72314">
        <ele>641</ele>
        <time>2015-05-08T12:04:19Z</time>
      </trkpt>
      <trkpt lat="43.68358" lon="6.72303">
        <ele>641</ele>
        <time>2015-05-08T12:04:24Z</time>
      </trkpt>
      <trkpt lat="43.6837" lon="6.72289">
        <ele>641</ele>
        <time>2015-05-08T12:04:29Z</time>
      </trkpt>
      <trkpt lat="43.68372" lon="6.72287">
        <ele>641</ele>
        <time>2015-05-08T12:04:30Z</time>
      </trkpt>
      <trkpt lat="43.68378" lon="6.72281">
        <ele>641</ele>
        <time>2015-05-08T12:04:32Z</time>
      </trkpt>
      <trkpt lat="43.68391" lon="6.7227">
        <ele>641</ele>
        <time>2015-05-08T12:04:37Z</time>
      </trkpt>
      <trkpt lat="43.68405" lon="6.72254">
        <ele>641</ele>
        <time>2015-05-08T12:04:42Z</time>
      </trkpt>
      <trkpt lat="43.68421" lon="6.72237">
        <ele>639</ele>
        <time>2015-05-08T12:04:47Z</time>
      </trkpt>
      <trkpt lat="43.68439" lon="6.72222">
        <ele>637</ele>
        <time>2015-05-08T12:04:52Z</time>
      </trkpt>
      <trkpt lat="43.6845" lon="6.72215">
        <ele>637</ele>
        <time>2015-05-08T12:05:01Z</time>
      </trkpt>
      <trkpt lat="43.68459" lon="6.72207">
        <ele>636</ele>
        <time>2015-05-08T12:05:08Z</time>
      </trkpt>
      <trkpt lat="43.68468" lon="6.72204">
        <ele>636</ele>
        <time>2015-05-08T12:05:13Z</time>
      </trkpt>
      <trkpt lat="43.68484" lon="6.72195">
        <ele>636</ele>
        <time>2015-05-08T12:05:19Z</time>
      </trkpt>
      <trkpt lat="43.68496" lon="6.72196">
        <ele>636</ele>
        <time>2015-05-08T12:05:24Z</time>
      </trkpt>
      <trkpt lat="43.68511" lon="6.722">
        <ele>639</ele>
        <time>2015-05-08T12:05:29Z</time>
      </trkpt>
      <trkpt lat="43.68524" lon="6.722">
        <ele>639</ele>
        <time>2015-05-08T12:05:35Z</time>
      </trkpt>
      <trkpt lat="43.68537" lon="6.72201">
        <ele>639</ele>
        <time>2015-05-08T12:05:41Z</time>
      </trkpt>
      <trkpt lat="43.68551" lon="6.72202">
        <ele>639</ele>
        <time>2015-05-08T12:05:46Z</time>
      </trkpt>
      <trkpt lat="43.68555" lon="6.72202">
        <ele>639</ele>
        <time>2015-05-08T12:05:47Z</time>
      </trkpt>
      <trkpt lat="43.6857" lon="6.72207">
        <ele>640</ele>
        <time>2015-05-08T12:05:52Z</time>
      </trkpt>
      <trkpt lat="43.68574" lon="6.72208">
        <ele>640</ele>
        <time>2015-05-08T12:05:54Z</time>
      </trkpt>
      <trkpt lat="43.68594" lon="6.72218">
        <ele>645</ele>
        <time>2015-05-08T12:06:00Z</time>
      </trkpt>
      <trkpt lat="43.68597" lon="6.72217">
        <ele>645</ele>
        <time>2015-05-08T12:06:01Z</time>
      </trkpt>
      <trkpt lat="43.68616" lon="6.72217">
        <ele>646</ele>
        <time>2015-05-08T12:06:06Z</time>
      </trkpt>
      <trkpt lat="43.6862" lon="6.72215">
        <ele>646</ele>
        <time>2015-05-08T12:06:07Z</time>
      </trkpt>
      <trkpt lat="43.68633" lon="6.72228">
        <ele>647</ele>
        <time>2015-05-08T12:06:12Z</time>
      </trkpt>
      <trkpt lat="43.68645" lon="6.72237">
        <ele>647</ele>
        <time>2015-05-08T12:06:17Z</time>
      </trkpt>
      <trkpt lat="43.68648" lon="6.72235">
        <ele>648</ele>
        <time>2015-05-08T12:06:18Z</time>
      </trkpt>
      <trkpt lat="43.68655" lon="6.72236">
        <ele>648</ele>
        <time>2015-05-08T12:06:23Z</time>
      </trkpt>
      <trkpt lat="43.68661" lon="6.72229">
        <ele>648</ele>
        <time>2015-05-08T12:06:28Z</time>
      </trkpt>
      <trkpt lat="43.68663" lon="6.72225">
        <ele>648</ele>
        <time>2015-05-08T12:06:31Z</time>
      </trkpt>
      <trkpt lat="43.68663" lon="6.7222">
        <ele>648</ele>
        <time>2015-05-08T12:06:33Z</time>
      </trkpt>
      <trkpt lat="43.68666" lon="6.72211">
        <ele>648</ele>
        <time>2015-05-08T12:06:38Z</time>
      </trkpt>
      <trkpt lat="43.68664" lon="6.72203">
        <ele>648</ele>
        <time>2015-05-08T12:06:44Z</time>
      </trkpt>
      <trkpt lat="43.68663" lon="6.7219">
        <ele>649</ele>
        <time>2015-05-08T12:06:50Z</time>
      </trkpt>
      <trkpt lat="43.68664" lon="6.72177">
        <ele>651</ele>
        <time>2015-05-08T12:06:57Z</time>
      </trkpt>
      <trkpt lat="43.68664" lon="6.72168">
        <ele>653</ele>
        <time>2015-05-08T12:07:04Z</time>
      </trkpt>
      <trkpt lat="43.68666" lon="6.72158">
        <ele>653</ele>
        <time>2015-05-08T12:07:10Z</time>
      </trkpt>
      <trkpt lat="43.68663" lon="6.7215">
        <ele>652</ele>
        <time>2015-05-08T12:07:33Z</time>
      </trkpt>
      <trkpt lat="43.68659" lon="6.72142">
        <ele>652</ele>
        <time>2015-05-08T12:07:40Z</time>
      </trkpt>
      <trkpt lat="43.68658" lon="6.72134">
        <ele>652</ele>
        <time>2015-05-08T12:07:47Z</time>
      </trkpt>
      <trkpt lat="43.68657" lon="6.72126">
        <ele>653</ele>
        <time>2015-05-08T12:07:55Z</time>
      </trkpt>
      <trkpt lat="43.68654" lon="6.72126">
        <ele>653</ele>
        <time>2015-05-08T12:08:00Z</time>
      </trkpt>
      <trkpt lat="43.6865" lon="6.7212">
        <ele>653</ele>
        <time>2015-05-08T12:08:07Z</time>
      </trkpt>
      <trkpt lat="43.68648" lon="6.72112">
        <ele>654</ele>
        <time>2015-05-08T12:08:13Z</time>
      </trkpt>
      <trkpt lat="43.68647" lon="6.72103">
        <ele>655</ele>
        <time>2015-05-08T12:08:18Z</time>
      </trkpt>
      <trkpt lat="43.68645" lon="6.72096">
        <ele>656</ele>
        <time>2015-05-08T12:08:23Z</time>
      </trkpt>
      <trkpt lat="43.68644" lon="6.72087">
        <ele>657</ele>
        <time>2015-05-08T12:08:31Z</time>
      </trkpt>
      <trkpt lat="43.68643" lon="6.72078">
        <ele>662</ele>
        <time>2015-05-08T12:08:37Z</time>
      </trkpt>
      <trkpt lat="43.68641" lon="6.7207">
        <ele>661</ele>
        <time>2015-05-08T12:08:44Z</time>
      </trkpt>
      <trkpt lat="43.68639" lon="6.72066">
        <ele>661</ele>
        <time>2015-05-08T12:08:49Z</time>
      </trkpt>
      <trkpt lat="43.68638" lon="6.72062">
        <ele>661</ele>
        <time>2015-05-08T12:08:55Z</time>
      </trkpt>
      <trkpt lat="43.68638" lon="6.72053">
        <ele>661</ele>
        <time>2015-05-08T12:09:04Z</time>
      </trkpt>
      <trkpt lat="43.68639" lon="6.72045">
        <ele>662</ele>
        <time>2015-05-08T12:09:12Z</time>
      </trkpt>
      <trkpt lat="43.68642" lon="6.72045">
        <ele>662</ele>
        <time>2015-05-08T12:09:17Z</time>
      </trkpt>
      <trkpt lat="43.68642" lon="6.72041">
        <ele>662</ele>
        <time>2015-05-08T12:09:22Z</time>
      </trkpt>
      <trkpt lat="43.68642" lon="6.72032">
        <ele>663</ele>
        <time>2015-05-08T12:09:31Z</time>
      </trkpt>
      <trkpt lat="43.68641" lon="6.72029">
        <ele>663</ele>
        <time>2015-05-08T12:09:36Z</time>
      </trkpt>
      <trkpt lat="43.6864" lon="6.7202">
        <ele>664</ele>
        <time>2015-05-08T12:09:45Z</time>
      </trkpt>
      <trkpt lat="43.68641" lon="6.72012">
        <ele>665</ele>
        <time>2015-05-08T12:09:51Z</time>
      </trkpt>
      <trkpt lat="43.68642" lon="6.72008">
        <ele>666</ele>
        <time>2015-05-08T12:09:56Z</time>
      </trkpt>
      <trkpt lat="43.68642" lon="6.72003">
        <ele>666</ele>
        <time>2015-05-08T12:10:01Z</time>
      </trkpt>
      <trkpt lat="43.68643" lon="6.71999">
        <ele>670</ele>
        <time>2015-05-08T12:10:06Z</time>
      </trkpt>
      <trkpt lat="43.68645" lon="6.71991">
        <ele>670</ele>
        <time>2015-05-08T12:10:11Z</time>
      </trkpt>
      <trkpt lat="43.68644" lon="6.71985">
        <ele>669</ele>
        <time>2015-05-08T12:10:28Z</time>
      </trkpt>
      <trkpt lat="43.68647" lon="6.71976">
        <ele>669</ele>
        <time>2015-05-08T12:10:34Z</time>
      </trkpt>
      <trkpt lat="43.68648" lon="6.71972">
        <ele>669</ele>
        <time>2015-05-08T12:10:39Z</time>
      </trkpt>
      <trkpt lat="43.6865" lon="6.71964">
        <ele>669</ele>
        <time>2015-05-08T12:10:44Z</time>
      </trkpt>
      <trkpt lat="43.68652" lon="6.71955">
        <ele>668</ele>
        <time>2015-05-08T12:10:50Z</time>
      </trkpt>
      <trkpt lat="43.68652" lon="6.71945">
        <ele>669</ele>
        <time>2015-05-08T12:10:58Z</time>
      </trkpt>
      <trkpt lat="43.68655" lon="6.71935">
        <ele>670</ele>
        <time>2015-05-08T12:11:06Z</time>
      </trkpt>
      <trkpt lat="43.68657" lon="6.71932">
        <ele>670</ele>
        <time>2015-05-08T12:11:10Z</time>
      </trkpt>
      <trkpt lat="43.68662" lon="6.71927">
        <ele>671</ele>
        <time>2015-05-08T12:11:17Z</time>
      </trkpt>
      <trkpt lat="43.68664" lon="6.7193">
        <ele>671</ele>
        <time>2015-05-08T12:11:25Z</time>
      </trkpt>
      <trkpt lat="43.68666" lon="6.71934">
        <ele>670</ele>
        <time>2015-05-08T12:11:38Z</time>
      </trkpt>
      <trkpt lat="43.68668" lon="6.71936">
        <ele>681</ele>
        <time>2015-05-08T12:11:40Z</time>
      </trkpt>
      <trkpt lat="43.68669" lon="6.7194">
        <ele>682</ele>
        <time>2015-05-08T12:11:43Z</time>
      </trkpt>
      <trkpt lat="43.68671" lon="6.71943">
        <ele>683</ele>
        <time>2015-05-08T12:11:47Z</time>
      </trkpt>
      <trkpt lat="43.68673" lon="6.71955">
        <ele>684</ele>
        <time>2015-05-08T12:11:54Z</time>
      </trkpt>
      <trkpt lat="43.68674" lon="6.71964">
        <ele>684</ele>
        <time>2015-05-08T12:11:59Z</time>
      </trkpt>
      <trkpt lat="43.68677" lon="6.71963">
        <ele>685</ele>
        <time>2015-05-08T12:12:08Z</time>
      </trkpt>
      <trkpt lat="43.68678" lon="6.7196">
        <ele>685</ele>
        <time>2015-05-08T12:12:35Z</time>
      </trkpt>
      <trkpt lat="43.68682" lon="6.71957">
        <ele>685</ele>
        <time>2015-05-08T12:12:41Z</time>
      </trkpt>
      <trkpt lat="43.68684" lon="6.71967">
        <ele>685</ele>
        <time>2015-05-08T12:12:47Z</time>
      </trkpt>
      <trkpt lat="43.68687" lon="6.71976">
        <ele>686</ele>
        <time>2015-05-08T12:12:52Z</time>
      </trkpt>
      <trkpt lat="43.68689" lon="6.71991">
        <ele>685</ele>
        <time>2015-05-08T12:12:59Z</time>
      </trkpt>
      <trkpt lat="43.68693" lon="6.71998">
        <ele>686</ele>
        <time>2015-05-08T12:13:04Z</time>
      </trkpt>
      <trkpt lat="43.68698" lon="6.71992">
        <ele>687</ele>
        <time>2015-05-08T12:13:11Z</time>
      </trkpt>
      <trkpt lat="43.68695" lon="6.71989">
        <ele>687</ele>
        <time>2015-05-08T12:13:13Z</time>
      </trkpt>
      <trkpt lat="43.68696" lon="6.71986">
        <ele>687</ele>
        <time>2015-05-08T12:13:15Z</time>
      </trkpt>
      <trkpt lat="43.68698" lon="6.71978">
        <ele>687</ele>
        <time>2015-05-08T12:13:19Z</time>
      </trkpt>
      <trkpt lat="43.68698" lon="6.71974">
        <ele>687</ele>
        <time>2015-05-08T12:13:21Z</time>
      </trkpt>
      <trkpt lat="43.68698" lon="6.71966">
        <ele>687</ele>
        <time>2015-05-08T12:13:25Z</time>
      </trkpt>
      <trkpt lat="43.687" lon="6.71963">
        <ele>688</ele>
        <time>2015-05-08T12:13:27Z</time>
      </trkpt>
      <trkpt lat="43.68703" lon="6.71958">
        <ele>688</ele>
        <time>2015-05-08T12:13:35Z</time>
      </trkpt>
      <trkpt lat="43.68704" lon="6.71955">
        <ele>688</ele>
        <time>2015-05-08T12:13:40Z</time>
      </trkpt>
      <trkpt lat="43.68708" lon="6.71949">
        <ele>688</ele>
        <time>2015-05-08T12:13:48Z</time>
      </trkpt>
      <trkpt lat="43.68711" lon="6.71941">
        <ele>689</ele>
        <time>2015-05-08T12:13:53Z</time>
      </trkpt>
      <trkpt lat="43.68714" lon="6.71934">
        <ele>689</ele>
        <time>2015-05-08T12:14:03Z</time>
      </trkpt>
      <trkpt lat="43.68718" lon="6.71932">
        <ele>690</ele>
        <time>2015-05-08T12:14:06Z</time>
      </trkpt>
      <trkpt lat="43.68722" lon="6.71932">
        <ele>691</ele>
        <time>2015-05-08T12:14:17Z</time>
      </trkpt>
      <trkpt lat="43.68721" lon="6.71941">
        <ele>690</ele>
        <time>2015-05-08T12:14:25Z</time>
      </trkpt>
      <trkpt lat="43.68722" lon="6.71949">
        <ele>691</ele>
        <time>2015-05-08T12:14:35Z</time>
      </trkpt>
      <trkpt lat="43.6872" lon="6.71958">
        <ele>691</ele>
        <time>2015-05-08T12:14:40Z</time>
      </trkpt>
      <trkpt lat="43.68722" lon="6.7197">
        <ele>691</ele>
        <time>2015-05-08T12:14:49Z</time>
      </trkpt>
      <trkpt lat="43.68727" lon="6.71978">
        <ele>693</ele>
        <time>2015-05-08T12:14:55Z</time>
      </trkpt>
      <trkpt lat="43.68729" lon="6.71983">
        <ele>694</ele>
        <time>2015-05-08T12:14:57Z</time>
      </trkpt>
      <trkpt lat="43.68731" lon="6.7199">
        <ele>695</ele>
        <time>2015-05-08T12:15:03Z</time>
      </trkpt>
      <trkpt lat="43.68737" lon="6.72005">
        <ele>697</ele>
        <time>2015-05-08T12:15:09Z</time>
      </trkpt>
      <trkpt lat="43.68739" lon="6.72008">
        <ele>697</ele>
        <time>2015-05-08T12:15:11Z</time>
      </trkpt>
      <trkpt lat="43.68742" lon="6.72008">
        <ele>698</ele>
        <time>2015-05-08T12:15:14Z</time>
      </trkpt>
      <trkpt lat="43.68743" lon="6.71997">
        <ele>700</ele>
        <time>2015-05-08T12:15:24Z</time>
      </trkpt>
      <trkpt lat="43.68743" lon="6.7199">
        <ele>698</ele>
        <time>2015-05-08T12:15:29Z</time>
      </trkpt>
      <trkpt lat="43.68746" lon="6.71981">
        <ele>696</ele>
        <time>2015-05-08T12:15:34Z</time>
      </trkpt>
      <trkpt lat="43.68748" lon="6.71971">
        <ele>695</ele>
        <time>2015-05-08T12:15:40Z</time>
      </trkpt>
      <trkpt lat="43.68752" lon="6.71963">
        <ele>709</ele>
        <time>2015-05-08T12:15:46Z</time>
      </trkpt>
      <trkpt lat="43.68756" lon="6.71955">
        <ele>709</ele>
        <time>2015-05-08T12:15:51Z</time>
      </trkpt>
      <trkpt lat="43.68762" lon="6.71949">
        <ele>709</ele>
        <time>2015-05-08T12:15:57Z</time>
      </trkpt>
      <trkpt lat="43.68768" lon="6.71941">
        <ele>709</ele>
        <time>2015-05-08T12:16:04Z</time>
      </trkpt>
      <trkpt lat="43.68772" lon="6.71931">
        <ele>709</ele>
        <time>2015-05-08T12:16:14Z</time>
      </trkpt>
      <trkpt lat="43.68774" lon="6.71926">
        <ele>709</ele>
        <time>2015-05-08T12:16:18Z</time>
      </trkpt>
      <trkpt lat="43.68778" lon="6.71925">
        <ele>710</ele>
        <time>2015-05-08T12:16:21Z</time>
      </trkpt>
      <trkpt lat="43.6878" lon="6.71918">
        <ele>710</ele>
        <time>2015-05-08T12:16:28Z</time>
      </trkpt>
      <trkpt lat="43.68786" lon="6.71912">
        <ele>706</ele>
        <time>2015-05-08T12:16:38Z</time>
      </trkpt>
      <trkpt lat="43.68788" lon="6.71909">
        <ele>707</ele>
        <time>2015-05-08T12:16:49Z</time>
      </trkpt>
      <trkpt lat="43.6879" lon="6.71906">
        <ele>707</ele>
        <time>2015-05-08T12:16:51Z</time>
      </trkpt>
      <trkpt lat="43.68795" lon="6.71898">
        <ele>707</ele>
        <time>2015-05-08T12:16:56Z</time>
      </trkpt>
      <trkpt lat="43.68798" lon="6.71892">
        <ele>708</ele>
        <time>2015-05-08T12:17:01Z</time>
      </trkpt>
      <trkpt lat="43.68805" lon="6.71886">
        <ele>708</ele>
        <time>2015-05-08T12:17:07Z</time>
      </trkpt>
      <trkpt lat="43.6881" lon="6.7188">
        <ele>708</ele>
        <time>2015-05-08T12:17:14Z</time>
      </trkpt>
      <trkpt lat="43.68815" lon="6.71874">
        <ele>709</ele>
        <time>2015-05-08T12:17:21Z</time>
      </trkpt>
      <trkpt lat="43.6882" lon="6.71868">
        <ele>709</ele>
        <time>2015-05-08T12:17:27Z</time>
      </trkpt>
      <trkpt lat="43.68826" lon="6.71865">
        <ele>709</ele>
        <time>2015-05-08T12:17:33Z</time>
      </trkpt>
      <trkpt lat="43.68828" lon="6.71861">
        <ele>709</ele>
        <time>2015-05-08T12:17:38Z</time>
      </trkpt>
      <trkpt lat="43.6883" lon="6.71859">
        <ele>709</ele>
        <time>2015-05-08T12:17:43Z</time>
      </trkpt>
      <trkpt lat="43.68833" lon="6.71855">
        <ele>710</ele>
        <time>2015-05-08T12:17:50Z</time>
      </trkpt>
      <trkpt lat="43.68838" lon="6.71849">
        <ele>724</ele>
        <time>2015-05-08T12:17:54Z</time>
      </trkpt>
      <trkpt lat="43.68845" lon="6.71842">
        <ele>724</ele>
        <time>2015-05-08T12:18:00Z</time>
      </trkpt>
      <trkpt lat="43.68847" lon="6.71837">
        <ele>724</ele>
        <time>2015-05-08T12:18:15Z</time>
      </trkpt>
      <trkpt lat="43.68853" lon="6.71832">
        <ele>719</ele>
        <time>2015-05-08T12:18:20Z</time>
      </trkpt>
      <trkpt lat="43.68862" lon="6.71821">
        <ele>721</ele>
        <time>2015-05-08T12:18:26Z</time>
      </trkpt>
      <trkpt lat="43.68868" lon="6.71813">
        <ele>722</ele>
        <time>2015-05-08T12:18:32Z</time>
      </trkpt>
      <trkpt lat="43.68873" lon="6.71808">
        <ele>723</ele>
        <time>2015-05-08T12:18:37Z</time>
      </trkpt>
      <trkpt lat="43.68878" lon="6.71802">
        <ele>724</ele>
        <time>2015-05-08T12:18:42Z</time>
      </trkpt>
      <trkpt lat="43.68883" lon="6.71794">
        <ele>723</ele>
        <time>2015-05-08T12:18:48Z</time>
      </trkpt>
      <trkpt lat="43.68892" lon="6.71786">
        <ele>724</ele>
        <time>2015-05-08T12:18:55Z</time>
      </trkpt>
      <trkpt lat="43.68895" lon="6.7178">
        <ele>724</ele>
        <time>2015-05-08T12:19:04Z</time>
      </trkpt>
      <trkpt lat="43.68902" lon="6.71778">
        <ele>725</ele>
        <time>2015-05-08T12:19:11Z</time>
      </trkpt>
      <trkpt lat="43.68908" lon="6.71774">
        <ele>725</ele>
        <time>2015-05-08T12:19:19Z</time>
      </trkpt>
      <trkpt lat="43.68911" lon="6.71771">
        <ele>725</ele>
        <time>2015-05-08T12:19:24Z</time>
      </trkpt>
      <trkpt lat="43.68919" lon="6.71769">
        <ele>741</ele>
        <time>2015-05-08T12:19:48Z</time>
      </trkpt>
      <trkpt lat="43.68927" lon="6.71762">
        <ele>740</ele>
        <time>2015-05-08T12:19:56Z</time>
      </trkpt>
      <trkpt lat="43.68935" lon="6.71759">
        <ele>742</ele>
        <time>2015-05-08T12:20:01Z</time>
      </trkpt>
      <trkpt lat="43.68944" lon="6.71756">
        <ele>745</ele>
        <time>2015-05-08T12:20:08Z</time>
      </trkpt>
      <trkpt lat="43.68949" lon="6.71751">
        <ele>747</ele>
        <time>2015-05-08T12:20:14Z</time>
      </trkpt>
      <trkpt lat="43.68955" lon="6.71747">
        <ele>738</ele>
        <time>2015-05-08T12:20:21Z</time>
      </trkpt>
      <trkpt lat="43.68958" lon="6.71745">
        <ele>739</ele>
        <time>2015-05-08T12:20:24Z</time>
      </trkpt>
      <trkpt lat="43.68964" lon="6.71743">
        <ele>741</ele>
        <time>2015-05-08T12:20:29Z</time>
      </trkpt>
      <trkpt lat="43.68971" lon="6.71738">
        <ele>743</ele>
        <time>2015-05-08T12:20:36Z</time>
      </trkpt>
      <trkpt lat="43.68977" lon="6.71731">
        <ele>743</ele>
        <time>2015-05-08T12:20:43Z</time>
      </trkpt>
      <trkpt lat="43.68982" lon="6.71725">
        <ele>743</ele>
        <time>2015-05-08T12:20:50Z</time>
      </trkpt>
      <trkpt lat="43.68988" lon="6.7172">
        <ele>743</ele>
        <time>2015-05-08T12:20:55Z</time>
      </trkpt>
      <trkpt lat="43.68994" lon="6.71714">
        <ele>742</ele>
        <time>2015-05-08T12:21:01Z</time>
      </trkpt>
      <trkpt lat="43.69" lon="6.7171">
        <ele>761</ele>
        <time>2015-05-08T12:21:07Z</time>
      </trkpt>
      <trkpt lat="43.69002" lon="6.71706">
        <ele>761</ele>
        <time>2015-05-08T12:21:11Z</time>
      </trkpt>
      <trkpt lat="43.69008" lon="6.71699">
        <ele>760</ele>
        <time>2015-05-08T12:21:18Z</time>
      </trkpt>
      <trkpt lat="43.69014" lon="6.71695">
        <ele>760</ele>
        <time>2015-05-08T12:21:24Z</time>
      </trkpt>
      <trkpt lat="43.69018" lon="6.71688">
        <ele>759</ele>
        <time>2015-05-08T12:21:32Z</time>
      </trkpt>
      <trkpt lat="43.69023" lon="6.71682">
        <ele>759</ele>
        <time>2015-05-08T12:21:39Z</time>
      </trkpt>
      <trkpt lat="43.69029" lon="6.71679">
        <ele>761</ele>
        <time>2015-05-08T12:21:45Z</time>
      </trkpt>
      <trkpt lat="43.69034" lon="6.71675">
        <ele>762</ele>
        <time>2015-05-08T12:21:50Z</time>
      </trkpt>
      <trkpt lat="43.6904" lon="6.71671">
        <ele>763</ele>
        <time>2015-05-08T12:21:56Z</time>
      </trkpt>
      <trkpt lat="43.69041" lon="6.71667">
        <ele>764</ele>
        <time>2015-05-08T12:22:01Z</time>
      </trkpt>
      <trkpt lat="43.69045" lon="6.71661">
        <ele>758</ele>
        <time>2015-05-08T12:22:08Z</time>
      </trkpt>
      <trkpt lat="43.69049" lon="6.71655">
        <ele>759</ele>
        <time>2015-05-08T12:22:14Z</time>
      </trkpt>
      <trkpt lat="43.69054" lon="6.7165">
        <ele>760</ele>
        <time>2015-05-08T12:22:22Z</time>
      </trkpt>
      <trkpt lat="43.69057" lon="6.71644">
        <ele>760</ele>
        <time>2015-05-08T12:22:27Z</time>
      </trkpt>
      <trkpt lat="43.69062" lon="6.71639">
        <ele>760</ele>
        <time>2015-05-08T12:22:32Z</time>
      </trkpt>
      <trkpt lat="43.69067" lon="6.71634">
        <ele>760</ele>
        <time>2015-05-08T12:22:39Z</time>
      </trkpt>
      <trkpt lat="43.69073" lon="6.71629">
        <ele>760</ele>
        <time>2015-05-08T12:22:45Z</time>
      </trkpt>
      <trkpt lat="43.69079" lon="6.71627">
        <ele>761</ele>
        <time>2015-05-08T12:22:50Z</time>
      </trkpt>
      <trkpt lat="43.69084" lon="6.71622">
        <ele>776</ele>
        <time>2015-05-08T12:22:56Z</time>
      </trkpt>
      <trkpt lat="43.69087" lon="6.71618">
        <ele>776</ele>
        <time>2015-05-08T12:23:01Z</time>
      </trkpt>
      <trkpt lat="43.6909" lon="6.71616">
        <ele>776</ele>
        <time>2015-05-08T12:23:07Z</time>
      </trkpt>
      <trkpt lat="43.69093" lon="6.71614">
        <ele>776</ele>
        <time>2015-05-08T12:23:13Z</time>
      </trkpt>
      <trkpt lat="43.69098" lon="6.71608">
        <ele>775</ele>
        <time>2015-05-08T12:23:21Z</time>
      </trkpt>
      <trkpt lat="43.69101" lon="6.71609">
        <ele>776</ele>
        <time>2015-05-08T12:23:24Z</time>
      </trkpt>
      <trkpt lat="43.69106" lon="6.71603">
        <ele>776</ele>
        <time>2015-05-08T12:23:31Z</time>
      </trkpt>
      <trkpt lat="43.69112" lon="6.71598">
        <ele>777</ele>
        <time>2015-05-08T12:23:40Z</time>
      </trkpt>
      <trkpt lat="43.69117" lon="6.71591">
        <ele>777</ele>
        <time>2015-05-08T12:23:54Z</time>
      </trkpt>
      <trkpt lat="43.69122" lon="6.71589">
        <ele>778</ele>
        <time>2015-05-08T12:23:59Z</time>
      </trkpt>
      <trkpt lat="43.69125" lon="6.71586">
        <ele>779</ele>
        <time>2015-05-08T12:24:05Z</time>
      </trkpt>
      <trkpt lat="43.69129" lon="6.71581">
        <ele>780</ele>
        <time>2015-05-08T12:24:11Z</time>
      </trkpt>
      <trkpt lat="43.69135" lon="6.71578">
        <ele>781</ele>
        <time>2015-05-08T12:24:17Z</time>
      </trkpt>
      <trkpt lat="43.69141" lon="6.71575">
        <ele>782</ele>
        <time>2015-05-08T12:24:23Z</time>
      </trkpt>
      <trkpt lat="43.69147" lon="6.71572">
        <ele>783</ele>
        <time>2015-05-08T12:24:28Z</time>
      </trkpt>
      <trkpt lat="43.6915" lon="6.71569">
        <ele>783</ele>
        <time>2015-05-08T12:24:42Z</time>
      </trkpt>
      <trkpt lat="43.69156" lon="6.71565">
        <ele>784</ele>
        <time>2015-05-08T12:24:48Z</time>
      </trkpt>
      <trkpt lat="43.69159" lon="6.7157">
        <ele>784</ele>
        <time>2015-05-08T12:24:53Z</time>
      </trkpt>
      <trkpt lat="43.69158" lon="6.7158">
        <ele>785</ele>
        <time>2015-05-08T12:25:04Z</time>
      </trkpt>
      <trkpt lat="43.69155" lon="6.71592">
        <ele>784</ele>
        <time>2015-05-08T12:25:10Z</time>
      </trkpt>
      <trkpt lat="43.69154" lon="6.716">
        <ele>783</ele>
        <time>2015-05-08T12:25:16Z</time>
      </trkpt>
      <trkpt lat="43.6916" lon="6.71597">
        <ele>784</ele>
        <time>2015-05-08T12:25:26Z</time>
      </trkpt>
      <trkpt lat="43.69165" lon="6.71593">
        <ele>784</ele>
        <time>2015-05-08T12:25:31Z</time>
      </trkpt>
      <trkpt lat="43.6917" lon="6.71588">
        <ele>789</ele>
        <time>2015-05-08T12:25:38Z</time>
      </trkpt>
      <trkpt lat="43.69175" lon="6.71583">
        <ele>791</ele>
        <time>2015-05-08T12:25:44Z</time>
      </trkpt>
      <trkpt lat="43.69187" lon="6.71581">
        <ele>794</ele>
        <time>2015-05-08T12:25:51Z</time>
      </trkpt>
      <trkpt lat="43.69192" lon="6.71578">
        <ele>796</ele>
        <time>2015-05-08T12:25:58Z</time>
      </trkpt>
      <trkpt lat="43.69194" lon="6.71575">
        <ele>797</ele>
        <time>2015-05-08T12:26:01Z</time>
      </trkpt>
      <trkpt lat="43.69197" lon="6.71572">
        <ele>797</ele>
        <time>2015-05-08T12:26:04Z</time>
      </trkpt>
      <trkpt lat="43.69199" lon="6.71568">
        <ele>798</ele>
        <time>2015-05-08T12:26:07Z</time>
      </trkpt>
      <trkpt lat="43.69203" lon="6.7156">
        <ele>799</ele>
        <time>2015-05-08T12:26:14Z</time>
      </trkpt>
      <trkpt lat="43.69208" lon="6.7156">
        <ele>800</ele>
        <time>2015-05-08T12:26:28Z</time>
      </trkpt>
      <trkpt lat="43.6921" lon="6.71557">
        <ele>800</ele>
        <time>2015-05-08T12:26:56Z</time>
      </trkpt>
      <trkpt lat="43.69211" lon="6.71553">
        <ele>800</ele>
        <time>2015-05-08T12:27:01Z</time>
      </trkpt>
      <trkpt lat="43.69212" lon="6.71549">
        <ele>801</ele>
        <time>2015-05-08T12:27:13Z</time>
      </trkpt>
      <trkpt lat="43.69214" lon="6.71539">
        <ele>801</ele>
        <time>2015-05-08T12:27:18Z</time>
      </trkpt>
      <trkpt lat="43.69216" lon="6.71529">
        <ele>801</ele>
        <time>2015-05-08T12:27:24Z</time>
      </trkpt>
      <trkpt lat="43.6922" lon="6.71523">
        <ele>802</ele>
        <time>2015-05-08T12:27:29Z</time>
      </trkpt>
      <trkpt lat="43.69229" lon="6.71518">
        <ele>803</ele>
        <time>2015-05-08T12:27:36Z</time>
      </trkpt>
      <trkpt lat="43.69237" lon="6.71512">
        <ele>804</ele>
        <time>2015-05-08T12:27:43Z</time>
      </trkpt>
      <trkpt lat="43.69243" lon="6.71506">
        <ele>805</ele>
        <time>2015-05-08T12:27:49Z</time>
      </trkpt>
      <trkpt lat="43.69238" lon="6.71498">
        <ele>806</ele>
        <time>2015-05-08T12:27:54Z</time>
      </trkpt>
      <trkpt lat="43.69234" lon="6.71491">
        <ele>806</ele>
        <time>2015-05-08T12:27:59Z</time>
      </trkpt>
      <trkpt lat="43.69227" lon="6.71485">
        <ele>805</ele>
        <time>2015-05-08T12:28:05Z</time>
      </trkpt>
      <trkpt lat="43.69222" lon="6.7148">
        <ele>805</ele>
        <time>2015-05-08T12:28:10Z</time>
      </trkpt>
      <trkpt lat="43.69216" lon="6.71475">
        <ele>805</ele>
        <time>2015-05-08T12:28:15Z</time>
      </trkpt>
      <trkpt lat="43.6921" lon="6.71471">
        <ele>805</ele>
        <time>2015-05-08T12:28:21Z</time>
      </trkpt>
      <trkpt lat="43.692" lon="6.71465">
        <ele>805</ele>
        <time>2015-05-08T12:28:27Z</time>
      </trkpt>
      <trkpt lat="43.69194" lon="6.71464">
        <ele>805</ele>
        <time>2015-05-08T12:28:29Z</time>
      </trkpt>
      <trkpt lat="43.69188" lon="6.71461">
        <ele>805</ele>
        <time>2015-05-08T12:28:35Z</time>
      </trkpt>
      <trkpt lat="43.69171" lon="6.71451">
        <ele>806</ele>
        <time>2015-05-08T12:28:40Z</time>
      </trkpt>
      <trkpt lat="43.69162" lon="6.71448">
        <ele>803</ele>
        <time>2015-05-08T12:28:43Z</time>
      </trkpt>
      <trkpt lat="43.69156" lon="6.71446">
        <ele>803</ele>
        <time>2015-05-08T12:28:45Z</time>
      </trkpt>
      <trkpt lat="43.69148" lon="6.71439">
        <ele>803</ele>
        <time>2015-05-08T12:28:48Z</time>
      </trkpt>
      <trkpt lat="43.69141" lon="6.71424">
        <ele>804</ele>
        <time>2015-05-08T12:28:53Z</time>
      </trkpt>
      <trkpt lat="43.69128" lon="6.71417">
        <ele>808</ele>
        <time>2015-05-08T12:28:59Z</time>
      </trkpt>
      <trkpt lat="43.69116" lon="6.71402">
        <ele>808</ele>
        <time>2015-05-08T12:29:06Z</time>
      </trkpt>
      <trkpt lat="43.69104" lon="6.71395">
        <ele>807</ele>
        <time>2015-05-08T12:29:11Z</time>
      </trkpt>
      <trkpt lat="43.69096" lon="6.71386">
        <ele>807</ele>
        <time>2015-05-08T12:29:16Z</time>
      </trkpt>
      <trkpt lat="43.69087" lon="6.71378">
        <ele>807</ele>
        <time>2015-05-08T12:29:18Z</time>
      </trkpt>
      <trkpt lat="43.69071" lon="6.71377">
        <ele>807</ele>
        <time>2015-05-08T12:29:23Z</time>
      </trkpt>
      <trkpt lat="43.69071" lon="6.71381">
        <ele>807</ele>
        <time>2015-05-08T12:29:27Z</time>
      </trkpt>
      <trkpt lat="43.69068" lon="6.71381">
        <ele>807</ele>
        <time>2015-05-08T12:29:34Z</time>
      </trkpt>
      <trkpt lat="43.69068" lon="6.71377">
        <ele>807</ele>
        <time>2015-05-08T12:29:59Z</time>
      </trkpt>
      <trkpt lat="43.69064" lon="6.71365">
        <ele>807</ele>
        <time>2015-05-08T12:30:04Z</time>
      </trkpt>
      <trkpt lat="43.69046" lon="6.71369">
        <ele>807</ele>
        <time>2015-05-08T12:30:10Z</time>
      </trkpt>
      <trkpt lat="43.69043" lon="6.71366">
        <ele>807</ele>
        <time>2015-05-08T12:30:11Z</time>
      </trkpt>
      <trkpt lat="43.69033" lon="6.71366">
        <ele>807</ele>
        <time>2015-05-08T12:30:16Z</time>
      </trkpt>
      <trkpt lat="43.69016" lon="6.71359">
        <ele>807</ele>
        <time>2015-05-08T12:30:21Z</time>
      </trkpt>
      <trkpt lat="43.68999" lon="6.7136">
        <ele>802</ele>
        <time>2015-05-08T12:30:25Z</time>
      </trkpt>
      <trkpt lat="43.68983" lon="6.71359">
        <ele>801</ele>
        <time>2015-05-08T12:30:31Z</time>
      </trkpt>
      <trkpt lat="43.68972" lon="6.71352">
        <ele>800</ele>
        <time>2015-05-08T12:30:36Z</time>
      </trkpt>
      <trkpt lat="43.68978" lon="6.71327">
        <ele>803</ele>
        <time>2015-05-08T12:30:41Z</time>
      </trkpt>
      <trkpt lat="43.68982" lon="6.71305">
        <ele>802</ele>
        <time>2015-05-08T12:30:46Z</time>
      </trkpt>
      <trkpt lat="43.68969" lon="6.71295">
        <ele>800</ele>
        <time>2015-05-08T12:30:51Z</time>
      </trkpt>
      <trkpt lat="43.68962" lon="6.71292">
        <ele>800</ele>
        <time>2015-05-08T12:30:58Z</time>
      </trkpt>
      <trkpt lat="43.68946" lon="6.71288">
        <ele>799</ele>
        <time>2015-05-08T12:31:03Z</time>
      </trkpt>
      <trkpt lat="43.68939" lon="6.71287">
        <ele>799</ele>
        <time>2015-05-08T12:31:16Z</time>
      </trkpt>
      <trkpt lat="43.68946" lon="6.71285">
        <ele>799</ele>
        <time>2015-05-08T12:31:23Z</time>
      </trkpt>
    </trkseg>
  </trk>
</gpx>